[[{"header":{"parameterUnit":"m.s-1","parameterCategory":1,"la1":31.0,"la2":29.5877,"lo1":-88.7671,"lo2":-86.6584,"dx":0.0162,"dy":0.0185,"nx":115,"ny":88,"refTime":"2022-11-07T18:00:00:Z","depth":0,"parameterNumber":2,"parameterNumberName":"U-component_of_WINDS"},"data":[0.0,0.0,0.0,0.0,0.0,0.0,0.0,0.0,0.0,0.0,0.0,0.0,0.0,0.0,0.0,0.0,0.0,0.0,0.0,0.0,0.0,0.0,0.0,0.0,0.0,0.0,0.0,0.0,0.0,0.0,0.0,0.0,0.0,0.0,0.0,0.0,0.0,0.0,0.0,0.0,0.0,0.0,0.0,0.0,0.0,0.0,0.0,0.0,0.0,0.0,0.0,0.0,0.0,0.0,0.0,0.0,0.0,0.0,0.0,0.0,0.0,0.0,0.0,0.0,0.0,0.0,0.0,0.0,0.0,0.0,0.0,0.0,0.0,0.0,0.0,0.0,0.0,0.0,0.0,0.0,0.0,0.0,0.0,0.0,0.0,0.0,0.0,0.0,0.0,0.0,0.0,0.0,0.0,0.0,0.0,0.0,0.0,0.0,0.0,0.0,0.0,0.0,0.0,0.0,0.0,0.0,0.0,0.0,0.0,0.0,0.0,0.0,0.0,0.0,0.0,0.0,0.0,0.0,0.0,0.0,0.0,0.0,0.0,0.0,0.0,0.0,0.0,0.0,0.0,0.0,0.0,0.0,0.0,0.0,0.0,0.0,0.0,0.0,0.0,0.0,0.0,0.0,0.0,0.0,0.0,0.0,0.0,0.0,0.0,0.0,0.0,0.0,0.0,0.0,0.0,0.0,0.0,0.0,0.0,0.0,0.0,0.0,0.0,0.0,0.0,0.0,0.0,0.0,0.0,0.0,0.0,0.0,0.0,0.0,0.0,0.0,0.0,0.0,0.0,0.0,0.0,0.0,0.0,0.0,0.0,0.0,0.0,0.0,0.0,0.0,0.0,0.0,0.0,0.0,0.0,0.0,0.0,0.0,0.0,0.0,0.0,0.0,0.0,0.0,0.0,0.0,0.0,0.0,0.0,0.0,0.0,0.0,0.0,0.0,0.0,0.0,0.0,0.0,0.0,0.0,0.0,0.0,0.0,0.0,0.0,0.0,0.0,0.0,0.0,0.0,0.0,0.0,0.0,0.0,0.0,0.0,0.0,0.0,0.0,0.0,0.0,0.0,0.0,0.0,0.0,0.0,0.0,0.0,0.0,0.0,0.0,0.0,0.0,0.0,0.0,0.0,0.0,0.0,0.0,0.0,0.0,0.0,0.0,0.0,0.0,0.0,0.0,0.0,0.0,0.0,0.0,0.0,0.0,0.0,0.0,0.0,0.0,0.0,0.0,0.0,0.0,0.0,0.0,0.0,0.0,0.0,0.0,0.0,0.0,0.0,0.0,0.0,0.0,0.0,0.0,0.0,0.0,0.0,0.0,0.0,0.0,0.0,0.0,0.0,0.0,0.0,0.0,0.0,0.0,0.0,0.0,0.0,0.0,0.0,0.0,0.0,0.0,0.0,0.0,0.0,0.0,0.0,0.0,0.0,0.0,0.0,0.0,0.0,0.0,0.0,0.0,0.0,0.0,0.0,0.0,0.0,0.0,0.0,0.0,0.0,0.0,0.0,0.0,0.0,0.0,0.0,0.0,0.0,0.0,0.0,0.0,0.0,0.0,0.0,0.0,0.0,0.0,0.0,0.0,0.0,0.0,0.0,0.0,0.0,0.0,0.0,0.0,0.0,0.0,0.0,0.0,0.0,0.0,0.0,0.0,0.0,0.0,0.0,0.0,0.0,0.0,0.0,0.0,0.0,0.0,0.0,0.0,0.0,0.0,0.0,0.0,0.0,0.0,0.0,0.0,0.0,0.0,0.0,0.0,0.0,0.0,0.0,0.0,0.0,0.0,0.0,0.0,0.0,0.0,0.0,0.0,0.0,0.0,0.0,0.0,0.0,0.0,0.0,0.0,0.0,0.0,0.0,0.0,0.0,0.0,0.0,0.0,0.0,0.0,0.0,0.0,0.0,0.0,0.0,0.0,0.0,0.0,0.0,0.0,0.0,0.0,0.0,0.0,0.0,0.0,0.0,0.0,0.0,0.0,0.0,0.0,0.0,0.0,0.0,0.0,0.0,0.0,0.0,0.0,0.0,0.0,0.0,0.0,0.0,0.0,0.0,0.0,0.0,0.0,0.0,0.0,0.0,0.0,0.0,0.0,0.0,0.0,0.0,0.0,0.0,0.0,0.0,0.0,0.0,0.0,0.0,0.0,0.0,0.0,0.0,0.0,0.0,0.0,0.0,0.0,0.0,0.0,0.0,0.0,0.0,0.0,0.0,0.0,0.0,0.0,0.0,0.0,0.0,0.0,0.0,0.0,0.0,0.0,0.0,0.0,0.0,0.0,0.0,0.0,0.0,0.0,0.0,0.0,0.0,0.0,0.0,0.0,0.0,0.0,0.0,0.0,0.0,0.0,0.0,0.0,0.0,0.0,0.0,0.0,0.0,0.0,0.0,0.0,0.0,0.0,0.0,0.0,0.0,0.0,0.0,0.0,0.0,0.0,0.0,0.0,0.0,0.0,0.0,0.0,0.0,0.0,0.0,0.0,0.0,0.0,0.0,0.0,0.0,0.0,0.0,0.0,0.0,0.0,0.0,0.0,0.0,0.0,0.0,0.0,0.0,0.0,0.0,0.0,0.0,0.0,0.0,0.0,0.0,0.0,0.0,0.0,0.0,0.0,0.0,0.0,0.0,0.0,0.0,0.0,0.0,0.0,0.0,0.0,0.0,0.0,0.0,0.0,0.0,0.0,0.0,0.0,0.0,0.0,0.0,0.0,0.0,0.0,0.0,0.0,0.0,0.0,0.0,0.0,0.0,0.0,0.0,0.0,0.0,0.0,0.0,0.0,0.0,0.0,0.0,0.0,0.0,0.0,0.0,0.0,0.0,0.0,0.0,0.0,0.0,0.0,0.0,0.0,0.0,0.0,0.0,0.0,0.0,0.0,0.0,0.0,0.0,0.0,0.0,0.0,0.0,0.0,0.0,0.0,0.0,0.0,0.0,0.0,0.0,0.0,0.0,0.0,0.0,0.0,0.0,0.0,0.0,0.0,0.0,0.0,0.0,0.0,0.0,0.0,0.0,0.0,0.0,0.0,0.0,0.0,0.0,0.0,0.0,0.0,0.0,0.0,0.0,0.0,0.0,0.0,0.0,0.0,0.0,0.0,0.0,0.0,0.0,0.0,0.0,0.0,0.0,0.0,0.0,0.0,0.0,0.0,0.0,0.0,0.0,0.0,0.0,0.0,0.0,0.0,0.0,0.0,0.0,0.0,0.0,0.0,0.0,0.0,0.0,0.0,0.0,0.0,0.0,0.0,0.0,0.0,0.0,0.0,0.0,0.0,0.0,0.0,0.0,0.0,0.0,0.0,0.0,0.0,0.0,0.0,0.0,0.0,0.0,0.0,0.0,0.0,0.0,0.0,0.0,0.0,0.0,0.0,0.0,0.0,0.0,0.0,0.0,0.0,0.0,0.0,0.0,0.0,0.0,0.0,0.0,0.0,0.0,0.0,0.0,0.0,0.0,0.0,0.0,0.0,0.0,0.0,0.0,0.0,0.0,0.0,0.0,0.0,0.0,0.0,0.0,0.0,0.0,0.0,0.0,0.0,0.0,0.0,0.0,0.0,0.0,0.0,0.0,0.0,0.0,0.0,0.0,0.0,0.0,0.0,0.0,0.0,0.0,0.0,0.0,0.0,0.0,0.0,0.0,0.0,0.0,0.0,0.0,0.0,0.0,0.0,0.0,0.0,0.0,0.0,0.0,0.0,0.0,0.0,0.0,0.0,0.0,0.0,0.0,0.0,0.0,0.0,0.0,0.0,0.0,0.0,0.0,0.0,0.0,0.0,0.0,0.0,0.0,0.0,0.0,0.0,0.0,0.0,0.0,0.0,0.0,0.0,0.0,0.0,0.0,0.0,0.0,0.0,0.0,0.0,0.0,0.0,0.0,0.0,0.0,0.0,0.0,0.0,0.0,0.0,0.0,0.0,0.0,0.0,0.0,0.0,0.0,0.0,0.0,0.0,0.0,0.0,0.0,0.0,0.0,0.0,0.0,0.0,0.0,0.0,0.0,0.0,0.0,0.0,0.0,0.0,0.0,0.0,0.0,0.0,0.0,0.0,0.0,0.0,0.0,0.0,0.0,0.0,0.0,0.0,0.0,0.0,0.0,0.0,0.0,0.0,0.0,0.0,0.0,0.0,0.0,0.0,0.0,0.0,0.0,0.0,0.0,0.0,0.0,0.0,0.0,0.0,0.0,0.0,0.0,0.0,0.0,0.0,0.0,0.0,0.0,0.0,0.0,0.0,0.0,4.4804,0.0,0.0,0.0,4.3771,0.0,0.0,0.0,0.0,0.0,0.0,0.0,0.0,0.0,0.0,0.0,0.0,0.0,0.0,0.0,0.0,0.0,0.0,0.0,0.0,0.0,0.0,0.0,0.0,0.0,0.0,0.0,0.0,0.0,0.0,0.0,0.0,0.0,0.0,0.0,0.0,0.0,0.0,0.0,0.0,0.0,0.0,0.0,0.0,0.0,0.0,0.0,0.0,0.0,0.0,0.0,0.0,0.0,0.0,0.0,0.0,0.0,0.0,0.0,0.0,0.0,0.0,0.0,0.0,0.0,0.0,0.0,0.0,0.0,0.0,0.0,0.0,0.0,0.0,0.0,0.0,0.0,0.0,0.0,0.0,0.0,0.0,0.0,0.0,0.0,0.0,0.0,0.0,0.0,0.0,0.0,0.0,0.0,0.0,0.0,0.0,0.0,0.0,0.0,0.0,0.0,0.0,0.0,0.0,0.0,0.0,0.0,0.0,0.0,0.0,4.5463,4.5023,4.4653,4.4247,4.3841,0.0,0.0,0.0,0.0,0.0,0.0,0.0,0.0,0.0,0.0,0.0,0.0,0.0,0.0,0.0,0.0,0.0,0.0,0.0,0.0,0.0,0.0,0.0,0.0,0.0,0.0,0.0,0.0,0.0,0.0,0.0,0.0,0.0,0.0,0.0,0.0,0.0,0.0,0.0,0.0,0.0,0.0,0.0,0.0,0.0,0.0,0.0,0.0,0.0,0.0,0.0,0.0,0.0,0.0,0.0,0.0,0.0,0.0,0.0,0.0,0.0,0.0,0.0,0.0,0.0,0.0,0.0,0.0,0.0,0.0,0.0,0.0,0.0,0.0,0.0,0.0,0.0,0.0,0.0,0.0,0.0,0.0,0.0,0.0,0.0,0.0,0.0,0.0,0.0,0.0,0.0,0.0,0.0,0.0,0.0,0.0,0.0,0.0,0.0,0.0,0.0,0.0,0.0,0.0,0.0,0.0,0.0,0.0,0.0,0.0,0.0,0.0,4.546,4.4942,4.4202,0.0,0.0,0.0,0.0,0.0,0.0,0.0,0.0,0.0,0.0,0.0,0.0,0.0,0.0,0.0,0.0,0.0,0.0,0.0,0.0,0.0,0.0,0.0,0.0,0.0,0.0,0.0,0.0,0.0,0.0,0.0,0.0,0.0,0.0,0.0,0.0,0.0,0.0,0.0,0.0,0.0,0.0,0.0,0.0,0.0,0.0,0.0,0.0,0.0,0.0,0.0,0.0,0.0,0.0,0.0,0.0,0.0,0.0,0.0,0.0,0.0,0.0,0.0,0.0,0.0,0.0,0.0,0.0,0.0,0.0,0.0,0.0,0.0,0.0,0.0,0.0,0.0,0.0,0.0,0.0,0.0,0.0,0.0,0.0,0.0,0.0,0.0,0.0,0.0,0.0,0.0,0.0,0.0,0.0,0.0,0.0,0.0,0.0,0.0,0.0,0.0,0.0,0.0,0.0,0.0,0.0,0.0,0.0,0.0,0.0,4.7519,4.7445,4.6739,0.0,4.518,0.0,0.0,0.0,0.0,0.0,0.0,0.0,0.0,0.0,0.0,0.0,0.0,0.0,0.0,0.0,0.0,0.0,0.0,0.0,0.0,0.0,0.0,0.0,0.0,0.0,0.0,0.0,0.0,0.0,0.0,0.0,0.0,0.0,0.0,0.0,0.0,0.0,0.0,0.0,0.0,0.0,0.0,0.0,0.0,0.0,0.0,0.0,0.0,0.0,0.0,0.0,0.0,0.0,0.0,0.0,0.0,0.0,0.0,0.0,0.0,0.0,0.0,0.0,0.0,0.0,0.0,0.0,0.0,0.0,0.0,0.0,0.0,0.0,0.0,0.0,0.0,0.0,0.0,0.0,0.0,0.0,0.0,0.0,0.0,0.0,0.0,0.0,0.0,0.0,0.0,0.0,0.0,0.0,0.0,0.0,0.0,0.0,0.0,0.0,0.0,0.0,0.0,0.0,0.0,0.0,0.0,0.0,0.0,0.0,0.0,4.8184,4.7701,4.6921,4.6104,0.0,0.0,0.0,0.0,0.0,0.0,0.0,0.0,0.0,0.0,0.0,0.0,0.0,0.0,0.0,0.0,0.0,0.0,0.0,0.0,0.0,0.0,0.0,0.0,0.0,0.0,0.0,0.0,0.0,0.0,0.0,0.0,0.0,0.0,0.0,0.0,0.0,0.0,0.0,0.0,0.0,0.0,0.0,0.0,0.0,0.0,0.0,0.0,0.0,0.0,0.0,0.0,0.0,0.0,0.0,0.0,0.0,0.0,0.0,0.0,0.0,0.0,0.0,0.0,0.0,0.0,0.0,0.0,0.0,0.0,0.0,0.0,0.0,0.0,0.0,0.0,0.0,0.0,0.0,0.0,0.0,0.0,0.0,0.0,0.0,0.0,0.0,0.0,0.0,0.0,0.0,0.0,0.0,0.0,0.0,0.0,0.0,0.0,0.0,0.0,0.0,0.0,0.0,0.0,0.0,0.0,0.0,0.0,0.0,0.0,4.889,4.863,4.8036,4.7256,4.655,4.5992,0.0,0.0,0.0,0.0,0.0,0.0,0.0,0.0,0.0,0.0,0.0,0.0,0.0,0.0,0.0,0.0,0.0,0.0,0.0,0.0,0.0,0.0,0.0,0.0,0.0,0.0,0.0,0.0,0.0,0.0,0.0,0.0,0.0,0.0,0.0,0.0,0.0,0.0,0.0,0.0,0.0,0.0,0.0,0.0,0.0,0.0,0.0,0.0,0.0,0.0,0.0,0.0,0.0,0.0,0.0,0.0,0.0,0.0,0.0,0.0,0.0,0.0,0.0,0.0,0.0,0.0,0.0,0.0,0.0,0.0,0.0,0.0,0.0,0.0,0.0,0.0,0.0,0.0,0.0,0.0,0.0,0.0,0.0,0.0,0.0,0.0,0.0,0.0,0.0,0.0,0.0,0.0,0.0,0.0,0.0,0.0,0.0,0.0,0.0,0.0,0.0,0.0,0.0,0.0,0.0,0.0,0.0,0.0,4.889,4.889,4.889,4.8816,4.8073,4.7627,0.0,0.0,0.0,0.0,0.0,0.0,0.0,0.0,0.0,0.0,0.0,0.0,0.0,0.0,0.0,0.0,0.0,0.0,0.0,0.0,0.0,0.0,0.0,0.0,0.0,0.0,0.0,0.0,0.0,0.0,0.0,0.0,0.0,0.0,0.0,0.0,0.0,0.0,0.0,0.0,0.0,0.0,0.0,0.0,0.0,0.0,0.0,0.0,0.0,0.0,0.0,0.0,0.0,0.0,0.0,0.0,0.0,0.0,0.0,0.0,0.0,0.0,0.0,0.0,0.0,0.0,0.0,0.0,0.0,0.0,0.0,0.0,0.0,0.0,0.0,0.0,0.0,0.0,0.0,0.0,0.0,0.0,0.0,0.0,0.0,0.0,0.0,0.0,0.0,0.0,0.0,0.0,0.0,0.0,0.0,0.0,0.0,0.0,0.0,0.0,0.0,0.0,0.0,0.0,0.0,0.0,0.0,0.0,0.0,4.889,4.889,4.889,4.889,4.863,4.8221,0.0,0.0,0.0,0.0,0.0,0.0,0.0,0.0,0.0,0.0,0.0,0.0,0.0,0.0,0.0,0.0,0.0,0.0,0.0,0.0,0.0,0.0,0.0,0.0,0.0,0.0,0.0,0.0,0.0,0.0,0.0,0.0,0.0,0.0,0.0,0.0,0.0,0.0,0.0,0.0,0.0,0.0,0.0,0.0,0.0,0.0,0.0,0.0,0.0,0.0,0.0,0.0,0.0,0.0,0.0,0.0,0.0,0.0,0.0,0.0,0.0,0.0,0.0,0.0,0.0,0.0,0.0,0.0,0.0,0.0,0.0,0.0,0.0,0.0,0.0,0.0,0.0,0.0,0.0,0.0,0.0,0.0,0.0,0.0,0.0,0.0,0.0,0.0,0.0,0.0,0.0,0.0,0.0,0.0,0.0,0.0,0.0,0.0,0.0,0.0,0.0,0.0,0.0,0.0,0.0,0.0,0.0,0.0,0.0,4.889,4.889,4.889,4.889,4.889,4.8667,0.0,0.0,0.0,0.0,0.0,0.0,0.0,0.0,0.0,0.0,0.0,0.0,0.0,0.0,0.0,0.0,0.0,0.0,0.0,0.0,0.0,0.0,0.0,0.0,0.0,0.0,0.0,0.0,0.0,0.0,0.0,0.0,0.0,0.0,0.0,0.0,0.0,0.0,0.0,0.0,0.0,0.0,0.0,0.0,0.0,0.0,0.0,0.0,0.0,0.0,0.0,0.0,0.0,0.0,0.0,0.0,0.0,0.0,0.0,0.0,0.0,0.0,0.0,0.0,0.0,0.0,0.0,0.0,0.0,0.0,0.0,0.0,0.0,0.0,0.0,0.0,0.0,0.0,0.0,0.0,0.0,0.0,0.0,0.0,0.0,0.0,0.0,0.0,0.0,0.0,0.0,0.0,0.0,0.0,0.0,0.0,0.0,0.0,0.0,0.0,0.0,0.0,0.0,0.0,0.0,0.0,0.0,0.0,4.8964,4.8964,4.8927,4.8927,4.8927,4.8927,4.889,0.0,0.0,0.0,0.0,0.0,0.0,0.0,0.0,0.0,0.0,0.0,0.0,0.0,0.0,0.0,0.0,0.0,0.0,0.0,0.0,0.0,0.0,0.0,0.0,0.0,0.0,0.0,0.0,0.0,0.0,0.0,0.0,0.0,0.0,0.0,0.0,0.0,0.0,0.0,0.0,0.0,0.0,0.0,0.0,0.0,0.0,0.0,0.0,0.0,0.0,0.0,0.0,0.0,0.0,0.0,0.0,0.0,0.0,0.0,0.0,0.0,0.0,0.0,0.0,0.0,0.0,0.0,0.0,0.0,0.0,0.0,0.0,0.0,0.0,0.0,0.0,0.0,0.0,0.0,0.0,0.0,0.0,0.0,0.0,0.0,0.0,0.0,0.0,0.0,0.0,0.0,0.0,0.0,0.0,0.0,0.0,0.0,0.0,0.0,0.0,0.0,0.0,0.0,0.0,0.0,0.0,0.0,0.0,0.0,5.0599,4.9485,4.915,4.9707,4.9187,4.889,0.0,0.0,0.0,0.0,0.0,0.0,0.0,0.0,0.0,0.0,0.0,0.0,0.0,0.0,0.0,0.0,0.0,0.0,0.0,0.0,0.0,0.0,0.0,0.0,0.0,0.0,0.0,0.0,0.0,0.0,0.0,0.0,0.0,0.0,0.0,0.0,0.0,0.0,0.0,0.0,0.0,0.0,0.0,0.0,0.0,0.0,0.0,0.0,0.0,0.0,0.0,0.0,0.0,0.0,0.0,0.0,0.0,0.0,0.0,0.0,0.0,0.0,0.0,0.0,0.0,0.0,0.0,0.0,0.0,0.0,0.0,0.0,0.0,0.0,0.0,0.0,0.0,0.0,0.0,0.0,0.0,0.0,0.0,0.0,0.0,0.0,0.0,0.0,0.0,0.0,0.0,0.0,0.0,0.0,0.0,0.0,0.0,0.0,0.0,0.0,0.0,0.0,0.0,0.0,0.0,0.0,0.0,0.0,0.0,5.2234,5.0673,5.0079,5.0599,4.9782,4.9336,4.9336,0.0,0.0,0.0,0.0,0.0,0.0,0.0,0.0,0.0,0.0,0.0,0.0,0.0,0.0,0.0,0.0,0.0,0.0,0.0,0.0,0.0,0.0,0.0,0.0,0.0,0.0,0.0,0.0,0.0,0.0,0.0,0.0,0.0,0.0,0.0,0.0,0.0,0.0,0.0,0.0,0.0,0.0,0.0,0.0,0.0,0.0,0.0,0.0,0.0,0.0,0.0,0.0,0.0,0.0,0.0,0.0,0.0,0.0,0.0,0.0,0.0,0.0,0.0,0.0,0.0,0.0,0.0,0.0,0.0,0.0,0.0,0.0,0.0,0.0,0.0,0.0,0.0,0.0,0.0,0.0,0.0,0.0,0.0,0.0,0.0,0.0,0.0,0.0,0.0,0.0,0.0,0.0,0.0,0.0,0.0,0.0,0.0,0.0,0.0,0.0,0.0,0.0,0.0,0.0,0.0,0.0,0.0,0.0,5.3794,5.2308,5.1491,5.1454,5.0636,5.0153,0.0,0.0,0.0,0.0,0.0,0.0,0.0,0.0,0.0,0.0,0.0,0.0,0.0,0.0,0.0,0.0,0.0,0.0,0.0,0.0,0.0,0.0,0.0,0.0,0.0,0.0,0.0,0.0,0.0,0.0,0.0,0.0,0.0,0.0,0.0,0.0,0.0,0.0,0.0,0.0,0.0,0.0,0.0,0.0,0.0,0.0,0.0,0.0,0.0,0.0,0.0,0.0,0.0,0.0,0.0,0.0,0.0,0.0,0.0,0.0,0.0,0.0,0.0,0.0,0.0,0.0,0.0,0.0,0.0,0.0,0.0,0.0,0.0,0.0,0.0,0.0,0.0,0.0,0.0,0.0,0.0,0.0,0.0,0.0,0.0,0.0,0.0,0.0,0.0,0.0,0.0,0.0,0.0,0.0,0.0,0.0,0.0,0.0,0.0,0.0,0.0,0.0,0.0,0.0,0.0,0.0,0.0,0.0,0.0,5.3794,5.3385,5.2902,5.2308,5.1491,5.0748,0.0,0.0,0.0,0.0,0.0,0.0,0.0,0.0,0.0,0.0,0.0,0.0,0.0,0.0,0.0,0.0,0.0,0.0,0.0,0.0,0.0,0.0,0.0,0.0,0.0,0.0,0.0,0.0,0.0,0.0,0.0,0.0,0.0,0.0,0.0,0.0,0.0,0.0,0.0,0.0,0.0,0.0,0.0,0.0,0.0,0.0,0.0,0.0,0.0,0.0,0.0,0.0,0.0,0.0,0.0,0.0,0.0,0.0,0.0,0.0,0.0,0.0,0.0,0.0,0.0,0.0,0.0,0.0,0.0,0.0,0.0,0.0,0.0,0.0,0.0,0.0,0.0,0.0,0.0,0.0,0.0,0.0,0.0,0.0,0.0,0.0,0.0,0.0,0.0,0.0,0.0,0.0,0.0,0.0,0.0,0.0,0.0,0.0,0.0,0.0,0.0,0.0,0.0,0.0,0.0,0.0,0.0,0.0,5.502,5.4351,5.4686,5.4463,5.3645,5.2494,5.1676,0.0,0.0,0.0,0.0,0.0,0.0,0.0,0.0,0.0,0.0,0.0,0.0,0.0,0.0,0.0,0.0,0.0,0.0,0.0,0.0,0.0,0.0,0.0,0.0,0.0,0.0,0.0,0.0,0.0,0.0,0.0,0.0,0.0,0.0,0.0,0.0,0.0,0.0,0.0,0.0,0.0,0.0,0.0,0.0,0.0,0.0,0.0,0.0,0.0,0.0,0.0,0.0,0.0,0.0,0.0,0.0,0.0,0.0,0.0,0.0,0.0,0.0,0.0,0.0,0.0,0.0,0.0,0.0,0.0,0.0,0.0,0.0,0.0,0.0,0.0,0.0,0.0,0.0,0.0,0.0,0.0,0.0,0.0,0.0,0.0,0.0,0.0,0.0,0.0,0.0,0.0,0.0,0.0,0.0,0.0,0.0,0.0,0.0,0.0,0.0,0.0,0.0,0.0,0.0,0.0,0.0,0.0,0.0,5.6543,5.5169,5.5912,5.5949,5.5131,5.3645,5.2791,0.0,0.0,0.0,0.0,0.0,0.0,0.0,0.0,0.0,0.0,0.0,0.0,0.0,0.0,0.0,0.0,0.0,0.0,0.0,0.0,0.0,0.0,0.0,0.0,0.0,0.0,0.0,0.0,0.0,0.0,0.0,0.0,0.0,0.0,0.0,0.0,0.0,0.0,0.0,0.0,0.0,0.0,0.0,0.0,0.0,0.0,0.0,0.0,0.0,0.0,0.0,0.0,0.0,0.0,0.0,0.0,0.0,0.0,0.0,0.0,0.0,0.0,0.0,0.0,0.0,0.0,0.0,0.0,0.0,0.0,0.0,0.0,0.0,0.0,0.0,0.0,0.0,0.0,0.0,0.0,0.0,0.0,0.0,0.0,0.0,0.0,0.0,0.0,0.0,0.0,0.0,0.0,0.0,0.0,0.0,0.0,0.0,0.0,0.0,0.0,0.0,0.0,0.0,0.0,0.0,0.0,0.0,0.0,5.5726,5.6023,5.6209,5.6209,5.6023,5.502,5.3905,0.0,0.0,0.0,0.0,0.0,0.0,0.0,0.0,0.0,0.0,0.0,0.0,0.0,0.0,0.0,0.0,0.0,0.0,0.0,0.0,0.0,0.0,0.0,0.0,0.0,0.0,0.0,0.0,0.0,0.0,0.0,0.0,0.0,0.0,0.0,0.0,0.0,0.0,0.0,0.0,0.0,0.0,0.0,0.0,0.0,0.0,0.0,0.0,5.183,0.0,0.0,0.0,0.0,0.0,0.0,0.0,0.0,0.0,0.0,0.0,0.0,0.0,0.0,0.0,0.0,0.0,0.0,0.0,0.0,0.0,0.0,0.0,0.0,0.0,0.0,0.0,0.0,0.0,0.0,0.0,0.0,0.0,0.0,0.0,0.0,0.0,0.0,0.0,0.0,0.0,0.0,0.0,0.0,0.0,0.0,0.0,0.0,0.0,0.0,0.0,0.0,0.0,0.0,0.0,0.0,0.0,0.0,0.0,5.6766,5.6878,5.7249,5.7249,5.6878,5.606,5.502,0.0,0.0,0.0,0.0,0.0,0.0,0.0,0.0,0.0,0.0,0.0,0.0,0.0,0.0,0.0,0.0,0.0,0.0,0.0,0.0,0.0,0.0,0.0,0.0,0.0,0.0,0.0,0.0,0.0,0.0,0.0,0.0,0.0,0.0,0.0,0.0,0.0,0.0,0.0,0.0,0.0,0.0,0.0,0.0,0.0,0.0,0.0,0.0,0.0,0.0,0.0,0.0,0.0,0.0,0.0,0.0,0.0,0.0,0.0,0.0,0.0,0.0,0.0,0.0,0.0,0.0,0.0,0.0,0.0,0.0,0.0,0.0,0.0,0.0,0.0,0.0,0.0,0.0,0.0,0.0,0.0,0.0,0.0,0.0,0.0,0.0,0.0,0.0,0.0,0.0,0.0,0.0,0.0,0.0,0.0,0.0,0.0,0.0,0.0,0.0,0.0,0.0,0.0,0.0,0.0,0.0,0.0,5.7583,5.8438,5.7918,5.8661,5.8698,5.7881,5.71,5.6209,5.5243,0.0,0.0,0.0,0.0,0.0,0.0,0.0,0.0,0.0,0.0,0.0,0.0,0.0,0.0,0.0,0.0,0.0,0.0,0.0,0.0,0.0,0.0,0.0,0.0,0.0,0.0,0.0,0.0,0.0,0.0,0.0,0.0,0.0,0.0,0.0,0.0,0.0,0.0,5.0105,5.1316,0.0,0.0,0.0,0.0,0.0,0.0,0.0,0.0,5.3225,0.0,0.0,0.0,0.0,0.0,0.0,0.0,0.0,0.0,0.0,0.0,0.0,0.0,0.0,0.0,0.0,0.0,0.0,0.0,0.0,0.0,0.0,0.0,0.0,0.0,0.0,0.0,0.0,0.0,0.0,0.0,0.0,0.0,0.0,0.0,0.0,0.0,0.0,0.0,0.0,0.0,0.0,0.0,0.0,0.0,0.0,0.0,0.0,0.0,0.0,0.0,0.0,0.0,0.0,0.0,0.0,5.7063,5.8141,5.8958,5.9515,6.0333,6.037,5.9552,5.8735,5.7621,5.6134,0.0,0.0,0.0,0.0,0.0,0.0,0.0,0.0,0.0,0.0,0.0,0.0,0.0,0.0,0.0,0.0,0.0,0.0,0.0,0.0,0.0,0.0,0.0,0.0,0.0,0.0,0.0,0.0,0.0,0.0,0.0,0.0,0.0,0.0,0.0,0.0,0.0,0.0,0.0,5.2858,5.3078,0.0,0.0,0.0,0.0,0.0,0.0,0.0,0.0,5.3115,0.0,0.0,0.0,0.0,0.0,0.0,0.0,0.0,0.0,0.0,0.0,0.0,0.0,0.0,0.0,0.0,0.0,0.0,0.0,0.0,0.0,0.0,0.0,0.0,0.0,0.0,0.0,0.0,0.0,0.0,0.0,0.0,0.0,0.0,0.0,0.0,0.0,0.0,0.0,0.0,0.0,0.0,0.0,0.0,0.0,0.0,0.0,0.0,0.0,0.0,0.0,0.0,0.0,0.0,0.0,5.8066,5.8921,5.9738,6.0555,6.1001,6.1001,6.0593,5.9367,5.8326,0.0,0.0,0.0,0.0,0.0,0.0,0.0,0.0,0.0,0.0,0.0,0.0,0.0,0.0,0.0,0.0,0.0,0.0,0.0,0.0,0.0,0.0,0.0,0.0,0.0,0.0,0.0,0.0,0.0,0.0,0.0,0.0,0.0,0.0,0.0,0.0,0.0,0.0,0.0,0.0,5.3225,5.3371,5.3775,0.0,0.0,0.0,0.0,0.0,0.0,5.3849,5.3665,0.0,0.0,0.0,0.0,0.0,0.0,0.0,0.0,0.0,0.0,0.0,0.0,0.0,0.0,0.0,0.0,0.0,0.0,0.0,0.0,0.0,0.0,0.0,0.0,0.0,0.0,0.0,0.0,0.0,0.0,0.0,0.0,0.0,0.0,0.0,0.0,0.0,0.0,0.0,0.0,0.0,0.0,0.0,0.0,0.0,0.0,0.0,0.0,0.0,0.0,0.0,0.0,0.0,0.0,0.0,5.8921,5.9924,6.0741,6.141,6.1633,6.1633,6.141,6.0147,5.9218,0.0,0.0,0.0,0.0,0.0,0.0,0.0,0.0,0.0,0.0,0.0,0.0,0.0,0.0,0.0,0.0,0.0,0.0,0.0,0.0,0.0,0.0,0.0,0.0,0.0,0.0,0.0,0.0,0.0,0.0,0.0,0.0,0.0,0.0,0.0,0.0,0.0,0.0,0.0,0.0,0.0,5.3702,5.4326,5.4693,0.0,0.0,0.0,0.0,5.4766,5.4656,0.0,0.0,0.0,0.0,0.0,0.0,0.0,0.0,0.0,0.0,0.0,0.0,0.0,0.0,0.0,0.0,0.0,0.0,0.0,0.0,0.0,0.0,0.0,0.0,0.0,0.0,0.0,0.0,0.0,0.0,0.0,0.0,0.0,0.0,0.0,0.0,0.0,0.0,0.0,0.0,0.0,0.0,0.0,0.0,0.0,0.0,0.0,0.0,0.0,0.0,0.0,0.0,0.0,0.0,0.0,0.0,5.9775,6.1336,6.2153,6.2301,6.297,6.3007,6.2301,6.2079,6.0964,0.0,0.0,0.0,0.0,0.0,0.0,0.0,0.0,0.0,0.0,0.0,0.0,0.0,0.0,0.0,0.0,0.0,0.0,0.0,0.0,0.0,0.0,0.0,0.0,0.0,0.0,0.0,0.0,0.0,0.0,0.0,0.0,0.0,0.0,0.0,0.0,0.0,0.0,0.0,0.0,0.0,5.4289,5.4399,5.5611,5.6308,0.0,0.0,5.6381,5.5574,5.5464,0.0,0.0,0.0,0.0,0.0,0.0,0.0,0.0,0.0,0.0,0.0,0.0,0.0,0.0,0.0,0.0,0.0,0.0,0.0,0.0,0.0,0.0,0.0,0.0,0.0,0.0,0.0,0.0,0.0,0.0,0.0,0.0,0.0,0.0,0.0,0.0,0.0,0.0,0.0,0.0,0.0,0.0,0.0,0.0,0.0,0.0,0.0,0.0,0.0,0.0,0.0,0.0,0.0,0.0,0.0,5.9329,6.063,6.1819,6.2636,6.3082,6.3416,6.3453,6.3082,6.2636,6.1893,0.0,0.0,0.0,0.0,0.0,0.0,0.0,0.0,0.0,0.0,0.0,0.0,0.0,0.0,0.0,0.0,0.0,0.0,0.0,0.0,0.0,0.0,0.0,0.0,0.0,0.0,0.0,0.0,0.0,0.0,0.0,0.0,0.0,0.0,0.0,0.0,0.0,0.0,0.0,0.0,0.0,0.0,5.6308,5.7042,0.0,0.0,0.0,5.8584,5.7776,0.0,0.0,0.0,0.0,0.0,0.0,0.0,0.0,0.0,0.0,0.0,0.0,0.0,0.0,0.0,0.0,0.0,0.0,0.0,0.0,0.0,0.0,0.0,0.0,0.0,0.0,0.0,0.0,0.0,0.0,0.0,0.0,0.0,0.0,0.0,0.0,0.0,0.0,0.0,0.0,0.0,0.0,0.0,0.0,0.0,0.0,0.0,0.0,0.0,0.0,0.0,0.0,0.0,0.0,0.0,0.0,0.0,6.1484,6.2301,6.3007,6.3602,6.3602,6.3602,6.3602,6.3007,0.0,0.0,0.0,0.0,0.0,0.0,0.0,0.0,0.0,0.0,0.0,0.0,0.0,0.0,0.0,0.0,0.0,0.0,0.0,0.0,0.0,0.0,0.0,0.0,0.0,0.0,0.0,4.4294,0.0,0.0,0.0,0.0,0.0,0.0,0.0,0.0,0.0,0.0,0.0,0.0,0.0,0.0,5.6712,5.8107,5.8657,5.9245,0.0,0.0,6.0419,5.9648,5.9501,5.9281,0.0,0.0,0.0,0.0,0.0,0.0,0.0,0.0,0.0,0.0,0.0,0.0,0.0,0.0,0.0,0.0,0.0,0.0,0.0,0.0,0.0,0.0,0.0,0.0,0.0,0.0,0.0,0.0,0.0,0.0,0.0,0.0,0.0,0.0,0.0,0.0,0.0,0.0,0.0,0.0,0.0,0.0,0.0,0.0,0.0,0.0,0.0,0.0,0.0,0.0,0.0,0.0,0.0,0.0,0.0,6.2301,6.3119,6.3565,6.3602,6.3602,6.3602,6.3602,6.3565,6.3193,0.0,0.0,0.0,0.0,0.0,0.0,0.0,0.0,0.0,0.0,0.0,0.0,0.0,0.0,0.0,0.0,0.0,0.0,0.0,0.0,0.0,0.0,0.0,0.0,0.0,0.0,0.0,0.0,0.0,0.0,0.0,0.0,0.0,0.0,0.0,0.0,0.0,0.0,0.0,0.0,0.0,5.8143,5.9024,6.0419,6.1117,0.0,0.0,6.1227,6.0456,6.0346,6.0309,6.0236,0.0,0.0,0.0,0.0,0.0,0.0,0.0,0.0,0.0,0.0,0.0,0.0,0.0,0.0,0.0,0.0,0.0,0.0,0.0,0.0,0.0,0.0,0.0,0.0,0.0,0.0,0.0,0.0,0.0,0.0,0.0,0.0,0.0,0.0,0.0,0.0,0.0,0.0,0.0,0.0,0.0,0.0,0.0,0.0,0.0,0.0,0.0,0.0,0.0,0.0,0.0,0.0,0.0,6.2305,6.2413,6.3193,6.3862,6.4345,6.4345,6.4345,6.4345,6.4345,6.3973,0.0,0.0,0.0,0.0,0.0,0.0,0.0,0.0,0.0,0.0,0.0,0.0,0.0,0.0,0.0,0.0,0.0,0.0,0.0,0.0,0.0,0.0,0.0,0.0,0.0,0.0,0.0,0.0,4.7166,4.7684,4.8565,0.0,0.0,0.0,0.0,0.0,0.0,0.0,0.0,0.0,0.0,5.9758,6.0566,6.1227,0.0,0.0,6.2144,6.2254,6.1961,6.1887,6.1887,6.1887,6.1484,0.0,0.0,0.0,0.0,0.0,0.0,0.0,0.0,0.0,0.0,0.0,0.0,0.0,0.0,0.0,0.0,0.0,0.0,0.0,0.0,0.0,0.0,0.0,0.0,0.0,0.0,0.0,0.0,0.0,0.0,0.0,0.0,0.0,0.0,0.0,0.0,0.0,0.0,0.0,0.0,0.0,0.0,0.0,0.0,0.0,0.0,0.0,0.0,0.0,0.0,0.0,0.0,6.3256,6.3119,6.3936,6.4642,6.5199,6.5199,6.5199,6.5199,6.5199,6.4828,0.0,0.0,0.0,0.0,0.0,0.0,0.0,0.0,0.0,0.0,0.0,0.0,0.0,0.0,0.0,0.0,0.0,0.0,0.0,0.0,0.0,0.0,0.0,0.0,0.0,0.0,0.0,0.0,4.8274,4.8899,5.022,0.0,0.0,0.0,0.0,0.0,0.0,0.0,0.0,0.0,0.0,6.1043,6.1814,6.1961,6.2181,6.2732,6.2805,6.2805,6.2805,6.2805,6.2805,6.2805,0.0,0.0,0.0,0.0,0.0,0.0,0.0,0.0,0.0,0.0,0.0,0.0,0.0,0.0,0.0,0.0,0.0,0.0,0.0,0.0,0.0,0.0,0.0,0.0,0.0,0.0,0.0,0.0,0.0,0.0,5.3318,0.0,0.0,0.0,0.0,0.0,0.0,0.0,0.0,0.0,0.0,0.0,0.0,0.0,0.0,0.0,0.0,0.0,0.0,0.0,0.0,0.0,0.0,6.4379,6.4753,6.558,6.6017,6.6091,6.6091,6.6091,6.6091,6.6091,6.5682,6.4791,0.0,0.0,0.0,0.0,0.0,0.0,0.0,0.0,0.0,0.0,0.0,0.0,0.0,0.0,0.0,0.0,0.0,0.0,0.0,0.0,0.0,0.0,0.0,0.0,0.0,0.0,4.9861,5.0451,5.1146,0.0,0.0,0.0,0.0,0.0,0.0,0.0,0.0,0.0,0.0,6.1557,6.1887,6.2658,6.2768,6.2768,6.2805,6.2805,6.2805,6.2805,6.2805,6.2805,0.0,0.0,0.0,0.0,0.0,0.0,0.0,0.0,0.0,0.0,0.0,0.0,0.0,0.0,0.0,0.0,0.0,0.0,0.0,0.0,0.0,0.0,0.0,0.0,0.0,0.0,0.0,5.6588,5.6609,0.0,0.0,0.0,0.0,0.0,0.0,0.0,0.0,0.0,0.0,0.0,6.0777,6.071,0.0,0.0,0.0,0.0,0.0,0.0,0.0,0.0,0.0,0.0,0.0,0.0,6.5988,6.6481,6.6744,6.7158,6.7686,6.7434,6.7298,6.7298,6.7058,6.6239,6.4865,0.0,0.0,0.0,0.0,0.0,0.0,0.0,0.0,0.0,0.0,0.0,0.0,0.0,0.0,0.0,0.0,0.0,0.0,0.0,0.0,0.0,0.0,0.0,0.0,0.0,5.0824,0.0,0.0,0.0,0.0,0.0,0.0,0.0,0.0,0.0,0.0,0.0,6.0089,6.1447,6.2071,6.2511,6.2768,6.2805,6.2805,0.0,0.0,0.0,0.0,0.0,0.0,0.0,0.0,0.0,0.0,0.0,0.0,0.0,0.0,5.7593,5.676,5.6299,5.6012,5.6012,0.0,0.0,0.0,0.0,0.0,0.0,0.0,0.0,0.0,0.0,0.0,0.0,0.0,0.0,5.9188,0.0,5.9165,0.0,0.0,0.0,0.0,0.0,0.0,0.0,0.0,6.206,6.2216,6.2781,6.2753,6.2782,0.0,6.3238,6.3462,0.0,0.0,0.0,0.0,0.0,0.0,0.0,0.0,6.7545,6.773,6.8299,6.8867,6.9323,6.9231,6.9058,6.8753,6.7821,6.6797,6.5719,6.4605,6.3639,0.0,0.0,0.0,0.0,0.0,0.0,0.0,0.0,0.0,0.0,0.0,0.0,0.0,0.0,0.0,0.0,0.0,0.0,0.0,0.0,0.0,0.0,0.0,5.3385,0.0,0.0,0.0,0.0,0.0,0.0,0.0,0.0,0.0,6.0052,6.0493,6.1117,6.1924,6.2475,6.2805,6.2805,0.0,0.0,0.0,0.0,0.0,0.0,0.0,6.2805,6.2805,6.2805,6.2755,6.2515,6.1604,6.0855,6.0615,0.0,0.0,5.8293,5.7794,5.7564,5.7564,5.7564,5.7564,5.7564,5.7564,5.7564,0.0,0.0,0.0,0.0,0.0,0.0,0.0,0.0,6.1204,6.0881,0.0,6.0881,0.0,0.0,0.0,0.0,0.0,6.3012,0.0,0.0,6.3526,6.3706,6.4153,6.455,6.515,6.6021,6.6401,6.675,6.6971,6.4048,0.0,0.0,0.0,0.0,0.0,0.0,6.8955,6.8715,7.0232,7.1029,7.1067,7.1379,7.12,7.0367,6.8493,6.7428,6.728,6.5794,6.4568,6.375,6.2859,0.0,0.0,0.0,0.0,0.0,0.0,0.0,0.0,0.0,0.0,0.0,0.0,0.0,0.0,0.0,0.0,0.0,0.0,0.0,0.0,5.5429,0.0,0.0,0.0,0.0,0.0,0.0,0.0,0.0,0.0,0.0,6.1594,6.163,6.1924,6.2732,0.0,0.0,0.0,0.0,6.2805,6.2879,6.2842,6.2805,6.2805,6.2805,6.2805,6.2805,0.0,0.0,6.2005,6.1379,6.0736,6.0129,5.9516,5.9012,5.8978,5.8909,5.8944,5.8944,5.8909,5.8978,5.8978,5.884,5.8909,6.5513,0.0,0.0,0.0,0.0,6.3051,6.2974,6.2935,6.2704,6.2589,6.2589,6.2589,0.0,0.0,0.0,0.0,0.0,0.0,6.5782,6.6898,6.6936,6.6853,6.6743,6.6804,6.6879,6.6969,6.7311,6.7522,6.7578,6.6987,6.6672,6.6751,0.0,0.0,0.0,0.0,7.0652,7.1137,7.1875,7.2272,7.2272,7.1845,7.1312,7.0757,7.0153,6.9323,6.8208,6.7688,6.6834,6.5422,6.4048,0.0,0.0,0.0,0.0,0.0,0.0,0.0,0.0,0.0,0.0,0.0,0.0,0.0,0.0,0.0,0.0,0.0,0.0,0.0,5.7249,5.8252,5.8958,0.0,0.0,0.0,0.0,0.0,0.0,0.0,0.0,0.0,6.2475,6.2475,6.2768,0.0,0.0,6.3246,6.442,6.3576,6.3025,6.3649,6.3209,0.0,6.2805,6.2805,6.2805,6.2805,6.2805,6.2755,6.2567,6.1604,6.0855,6.0676,5.9709,5.9012,5.9012,5.9012,5.9012,5.9012,5.9012,5.9012,5.9012,5.9012,5.9012,6.7179,6.532,6.532,6.532,6.532,6.532,6.532,6.532,6.532,6.532,6.5307,6.532,6.5295,6.5308,6.5295,0.0,0.0,0.0,6.7436,6.8398,6.8398,6.8252,6.8033,6.8033,6.8327,6.8711,6.8939,6.9314,6.984,7.022,7.0191,6.9769,0.0,0.0,7.0667,7.1514,7.2206,7.2706,7.3269,7.3559,7.3559,7.2927,7.2407,7.192,7.162,7.0892,6.9771,6.9099,6.8222,6.7094,6.5496,6.4308,0.0,0.0,0.0,0.0,0.0,0.0,0.0,0.0,0.0,0.0,0.0,5.4946,5.5912,0.0,0.0,0.0,5.9069,5.9181,5.9664,6.0407,0.0,0.0,0.0,0.0,0.0,0.0,0.0,6.165,6.2365,6.2904,6.2805,6.2805,6.3025,6.3503,6.3135,6.3172,6.4163,0.0,6.2989,6.3503,6.3429,6.3319,6.3319,6.3576,6.3723,6.3356,6.3025,6.2567,6.2112,6.1379,6.0736,6.0184,5.9547,5.9012,5.9012,5.9012,5.9012,5.9012,5.9012,5.9012,5.9012,5.9012,5.9012,6.8806,6.8821,6.8821,6.8667,6.8398,6.8398,6.8398,6.8398,6.8359,6.8385,6.8398,6.8385,6.8398,6.8398,6.8398,0.0,6.8629,6.859,6.8706,6.8821,6.8821,6.8821,6.8821,6.8821,6.9629,7.1129,7.1091,7.1718,7.2887,7.3253,7.333,7.3008,7.1833,7.1552,7.2322,7.3168,7.3591,7.3591,7.4409,7.4879,7.4888,7.4489,7.4063,7.3684,7.281,7.2154,7.1651,7.0179,6.9132,6.8654,6.7168,6.5608,6.4122,0.0,0.0,0.0,0.0,0.0,0.0,0.0,0.0,0.0,0.0,0.0,0.0,0.0,0.0,0.0,6.0927,0.0,6.141,6.2079,0.0,0.0,0.0,6.3557,6.3428,6.3511,6.3465,6.3051,0.0,0.0,6.2855,6.2805,6.2842,6.2915,6.2842,6.2879,6.3062,6.3135,6.3062,6.3392,6.3906,6.4383,6.4567,6.5044,6.5264,6.4604,6.3672,6.2854,6.1897,6.139,6.0733,5.9972,5.9426,5.9357,5.9323,5.9392,5.9185,5.9254,5.9116,5.9012,5.9012,5.9012,5.9012,7.2294,7.2283,7.2283,7.0783,6.8398,6.8398,6.8398,6.8398,6.8398,6.8398,6.8398,6.8398,6.8398,6.8398,6.8398,6.9129,7.0283,7.0321,7.1014,7.2283,7.2283,7.2322,7.2322,7.2322,7.2514,7.286,7.2899,7.3034,7.336,7.3447,7.3793,7.4243,7.3947,7.3591,7.3245,7.4014,7.4437,7.4437,7.5539,7.6303,7.6579,7.5931,7.5509,7.539,7.4261,7.3244,7.2507,7.1845,7.1107,7.0326,6.8803,6.7763,6.7391,6.6202,0.0,0.0,0.0,0.0,0.0,0.0,0.0,0.0,0.0,5.9627,6.0295,0.0,6.1187,0.0,6.2896,6.3044,6.3044,6.3193,0.0,0.0,6.349,6.3602,6.3557,6.3511,6.3373,6.3147,6.3147,6.3099,6.2953,6.2953,6.3174,6.3763,6.3259,6.3466,6.5264,6.5081,6.5154,6.6219,6.6623,6.6843,6.6806,6.699,6.7026,6.688,6.6208,6.5612,6.5249,6.4294,6.3545,6.3205,6.2334,6.1774,6.1634,6.1185,6.0771,6.0668,5.984,5.9012,5.9012,5.9012,5.9012,7.3486,7.3514,7.3514,7.2399,7.0667,7.0667,7.0667,7.0667,7.0667,7.0667,7.0656,7.0667,7.0667,7.0706,7.0667,7.1168,7.2052,7.2052,7.2591,7.3476,7.3514,7.3514,7.3514,7.3514,7.3707,7.4014,7.4053,7.4437,7.5168,7.5207,7.5592,7.6361,7.6399,7.6169,7.5745,7.5822,7.6015,7.6399,7.7061,7.7548,7.7757,7.7337,7.7108,7.7108,7.6194,7.522,7.4255,7.3419,7.251,7.1515,7.0252,6.9249,6.8543,6.7651,6.6648,0.0,0.0,0.0,0.0,0.0,0.0,0.0,0.0,0.0,0.0,0.0,6.2636,6.3527,6.3602,6.3602,6.3602,6.3602,6.3602,6.3602,6.3602,6.3602,6.3602,6.3557,6.3465,6.3289,6.3622,6.3896,6.4119,6.4401,6.4954,6.5727,6.5367,6.5338,6.6256,6.6402,6.6696,6.754,6.7981,6.8385,6.8678,6.8458,6.8238,6.8201,6.7597,6.691,6.6283,6.5561,6.4838,6.4183,6.3511,6.2979,6.2944,6.2668,6.2324,6.222,6.1634,6.084,6.0185,6.0047,6.0013,7.388,7.4014,7.3976,7.4053,7.413,7.4168,7.3899,7.3514,7.3514,7.3504,7.3493,7.3476,7.3514,7.3514,7.3514,7.3553,7.3668,7.3668,7.3707,7.3822,7.3937,7.3976,7.4014,7.4091,7.4514,7.5168,7.5168,7.5976,7.74,7.7438,7.7784,7.8477,7.8477,7.8554,7.8631,7.7977,7.7938,7.8631,7.8669,7.8707,7.8823,7.8707,7.8631,7.8569,7.8014,7.7189,7.6104,7.4869,7.3725,7.2569,7.1663,7.0549,6.91,6.8877,6.8097,0.0,6.6425,0.0,0.0,0.0,0.0,0.0,0.0,0.0,0.0,6.3267,6.3602,6.3602,6.3602,6.3602,6.3602,6.3602,6.3602,6.3602,6.3602,6.3639,6.375,6.3862,6.3928,6.3864,6.4567,6.5286,6.5828,6.6478,6.7178,6.7841,6.7957,6.7814,6.7357,6.7687,6.8054,6.8091,6.8825,6.9779,7.022,6.9853,6.9449,6.9339,6.8657,6.7643,6.6602,6.6144,6.5576,6.4554,6.4255,6.4117,6.4014,6.3979,6.3876,6.3876,6.3807,6.3289,6.2013,6.1599,6.1599,7.5938,7.6553,7.6592,7.6938,7.7553,7.7553,7.6015,7.3514,7.3514,7.3476,7.3476,7.3514,7.3486,7.3514,7.3514,7.386,7.4476,7.4476,7.4861,7.5553,7.6245,7.6592,7.663,7.7246,7.763,7.7784,7.7784,7.7938,7.8246,7.8246,7.8361,7.8477,7.8477,7.8861,7.9515,0.0,0.0,0.0,7.9554,7.99,8.0554,7.99,7.9352,7.8971,7.7912,0.0,7.6404,7.5807,7.5038,7.4153,7.3372,0.0,0.0,0.0,0.0,0.0,0.0,0.0,0.0,0.0,0.0,0.0,6.5496,6.5125,6.4419,6.3899,6.3602,6.3602,6.3602,6.3602,6.3602,6.3602,6.3602,6.3602,6.3602,6.3862,6.4493,6.5199,6.5821,6.6394,6.7123,6.7642,6.7741,6.7825,6.8166,6.9015,6.9499,6.9926,7.0293,6.9889,6.9889,7.0513,7.1138,7.1798,7.2018,7.1835,7.1578,7.1684,7.0661,6.9735,6.9229,6.8254,6.7655,6.7118,6.6738,6.629,6.629,6.5876,6.5428,6.5462,6.5462,6.4979,6.3496,6.3186,6.3151,7.7476,0.0,7.79,7.813,0.0,7.8477,7.7515,7.5976,7.5976,7.5976,7.5976,7.5947,7.5947,7.5976,7.5976,7.6169,7.6592,7.6592,7.6823,7.7246,7.7669,7.79,7.79,7.8323,7.8477,7.8477,7.8477,7.8707,7.9131,7.9131,7.9361,7.9785,7.9785,8.0015,8.0439,8.0439,8.0439,8.0439,8.0439,8.0669,8.1054,8.0669,8.0306,8.0102,7.9015,0.0,0.0,0.0,0.0,0.0,0.0,0.0,0.0,0.0,0.0,6.9806,6.9694,6.9323,6.8543,6.8134,6.7874,6.7874,6.7168,6.6351,6.5534,6.5088,6.4828,6.4828,6.4865,6.4828,6.4865,6.4865,6.5013,6.5385,6.5422,6.5756,6.65,6.702,6.738,6.7777,6.8519,6.91,6.9457,6.9813,7.0317,7.0988,7.1323,7.1563,7.1875,7.1598,7.1468,7.1835,7.2202,7.2496,7.2532,7.2532,7.2532,7.238,7.1891,7.1131,7.0436,6.9672,6.8978,6.8284,6.7773,6.7532,6.7497,6.7221,6.698,6.698,6.698,6.6773,6.5911,6.5255,6.4738,7.8592,7.8707,7.8746,7.8823,7.8938,7.8938,7.8938,7.8938,0.0,0.0,0.0,7.8515,7.8515,7.8477,7.8477,7.8477,7.8477,7.8477,7.8477,7.8515,7.8669,7.8746,7.8746,7.8861,7.8938,7.8938,7.8977,7.9323,8.0015,8.0015,8.04,8.1054,8.1246,8.14,8.1516,8.1554,8.1554,8.1516,8.14,8.14,8.1554,8.1554,8.1446,8.1189,8.043,7.9562,7.8517,7.7842,7.6973,7.6084,7.5378,7.4673,7.3855,7.3038,7.2221,7.1441,7.1218,7.1069,7.092,7.0326,6.9917,6.9917,6.8691,6.7428,6.6202,6.6091,6.6165,6.6314,6.6314,6.6388,6.65,6.6537,6.6797,6.7465,6.754,6.78,6.858,6.8877,6.9026,6.9174,6.9905,7.0522,7.1102,7.168,7.2331,7.2815,7.2743,7.2723,7.2723,7.2443,7.2386,7.2422,7.2496,7.2532,7.2532,7.2532,7.2532,7.2496,7.238,7.1794,7.0704,7.0163,6.9564,6.8319,6.8083,6.8049,6.8083,6.8014,6.8083,6.8083,6.8083,6.8083,6.798,6.7152,6.6324,7.8946,7.9631,7.9631,8.0054,8.0746,8.0746,8.0746,8.0592,7.9169,7.8477,7.8477,7.8477,7.8477,7.8477,7.8477,7.8477,7.8477,7.8477,7.8477,7.8515,7.9285,7.9631,7.9669,8.04,8.0746,8.0708,8.0708,8.0785,8.09,8.0939,8.0977,8.117,8.1785,8.2516,8.317,8.3247,8.3247,8.3208,8.2516,8.2477,8.3208,8.3247,8.2693,8.1611,8.1423,8.0566,7.8962,7.8816,7.8177,7.6993,7.679,7.6344,7.549,7.4673,7.3892,7.3075,7.2406,7.1701,7.0995,7.0809,7.0735,7.0735,7.0549,6.9211,6.6425,6.6091,6.6388,6.7057,6.7205,6.7428,6.806,6.8171,6.8246,6.8394,6.8394,6.8691,6.9546,7.0215,7.0809,7.1478,7.2266,7.2711,7.28,7.2971,7.2923,7.3,7.2963,7.2963,7.265,7.261,7.2496,7.2532,7.2532,7.2532,7.2532,7.2532,7.2532,7.2532,7.2011,7.1422,7.0436,6.9884,6.92,6.8241,6.8083,6.8083,6.8083,6.8083,6.8083,6.8083,6.8083,6.8083,6.8083,6.7807,6.7704,8.0138,8.0477,8.0516,8.0746,8.1093,8.1093,8.1093,8.1016,8.0246,7.99,7.99,7.99,7.99,7.99,7.99,7.99,7.99,7.99,7.99,7.9939,8.0323,8.0516,8.0554,8.09,8.1093,8.1131,8.1554,8.1747,8.1785,8.2208,8.2439,8.2477,8.2824,8.3208,8.3555,8.3593,8.3824,8.4286,8.3439,8.3208,8.3555,8.3593,8.3297,8.2706,8.2451,8.1568,8.0083,7.98,7.9014,7.7811,7.731,7.6902,7.6493,7.5713,7.5081,7.4673,7.393,7.3335,7.2927,7.2109,7.1403,7.0958,7.092,7.0326,6.8877,6.8729,6.8877,6.9211,6.9286,6.9397,6.9769,6.9843,6.9992,7.0475,7.0512,7.0846,7.1552,7.1998,7.2406,7.2778,7.3097,7.332,7.3372,7.332,7.3252,7.3108,7.2704,7.2263,7.2024,7.1581,7.1541,7.2312,7.2532,7.2532,7.2496,7.2532,7.2532,7.2532,7.2226,7.1547,7.057,6.9954,6.9311,6.8362,6.8083,6.8083,6.8083,6.8083,6.8083,6.8083,6.8083,6.8083,6.8083,6.8083,6.8083,8.167,8.167,8.167,8.167,8.167,8.167,8.167,8.167,8.167,8.167,8.1631,8.1285,8.1093,8.1093,8.1285,8.1362,8.14,8.1593,8.167,8.167,8.167,8.167,8.167,8.167,8.167,8.1708,8.2285,8.2593,8.267,8.3285,8.3708,8.3862,8.3901,8.3978,8.4132,8.417,8.4478,8.5093,8.4516,8.417,8.417,8.4132,8.4093,8.3901,8.3515,8.2683,8.1306,8.0821,7.9991,7.8629,7.7979,7.7533,7.731,7.6567,7.6084,7.601,7.5304,7.4784,7.4524,7.3447,7.2369,7.1552,7.1478,7.1478,7.1478,7.1478,7.1403,7.1255,7.1143,7.1218,7.1441,7.1478,7.1738,7.2369,7.2444,7.2592,7.3224,7.3372,7.3372,7.3372,7.3372,7.3372,7.3372,7.3372,7.3246,7.2881,7.1985,7.125,7.114,7.0551,7.0697,7.1505,7.1945,7.1872,7.1982,7.1908,7.1872,7.1945,7.1908,7.1187,7.0339,7.0015,6.953,6.8412,6.8083,6.8083,6.8083,6.8083,6.8083,6.8083,6.8083,6.8083,6.8083,6.8083,6.8083,8.3324,8.3362,8.3285,8.3362,8.3285,8.3324,8.3285,8.3324,8.3324,8.3362,8.3131,8.1785,8.117,8.1208,8.1862,8.217,8.2247,8.3016,8.3324,8.3285,8.3362,8.3362,8.3285,8.3324,8.3362,8.3324,8.3439,8.3478,8.3478,8.3632,8.4016,8.4709,8.4786,8.5132,8.5747,8.5824,8.5901,8.5978,8.5901,8.5901,8.5863,8.5863,8.5517,8.4824,8.4753,8.3905,8.2178,8.2013,8.1204,7.9577,7.9279,7.8908,7.8202,7.7385,7.6976,7.6939,7.6159,7.5378,7.4673,7.445,7.3967,7.3261,7.3075,7.3075,7.3075,7.3112,7.2815,7.2258,7.2072,7.2369,7.3038,7.3075,7.3038,7.3112,7.3187,7.3335,7.3372,7.3372,7.3372,7.3372,7.3335,7.3372,7.3298,7.3224,7.3001,7.2318,7.1189,7.0458,7.0475,7.0128,6.9926,7.0257,7.0367,7.0403,7.044,7.033,7.055,7.0477,7.0367,7.0046,6.9512,6.9166,6.8858,6.7996,6.7911,6.7842,6.7911,6.8083,6.798,6.7773,6.7842,6.8014,6.8049,6.8014,6.8014,8.3599,8.3593,8.3593,8.3593,8.3593,8.3593,8.3593,8.3593,8.3593,8.3593,8.3516,8.2862,8.2554,8.2593,8.2939,8.3054,8.3093,8.3439,8.3593,8.3593,8.3593,8.3593,8.3593,8.3593,8.3593,8.367,8.4093,8.4362,8.4439,8.4863,8.5247,8.5593,8.5632,8.5786,8.6094,8.6094,8.6094,8.6094,8.6094,8.6094,8.6094,8.6094,8.594,8.567,8.5593,8.4746,8.3139,8.2892,8.2044,8.0358,7.9762,7.9354,7.9019,7.8239,7.7793,7.7756,7.7013,7.6196,7.5378,7.4858,7.445,7.4115,7.367,7.3372,7.3372,7.3372,7.3224,7.2964,7.2889,7.3038,7.3335,7.3372,7.3372,7.3372,7.3372,7.3372,7.3372,7.3372,7.3372,7.3372,7.2964,7.2704,7.2592,7.2221,7.1849,7.1315,7.0428,6.9827,6.9806,6.9188,6.8953,6.9265,6.9412,6.9633,6.9963,7.011,7.011,7.011,7.011,6.98,6.8802,6.848,6.8148,6.7115,6.7057,6.698,6.6704,6.6773,6.6773,6.6842,6.6842,6.6876,6.7325,6.7428,6.7566,8.4291,8.4286,8.4286,8.4286,8.4286,8.4286,8.4286,8.4286,8.4286,8.4286,8.4286,8.4286,8.4286,8.4247,8.4055,8.3939,8.3978,8.417,8.4286,8.4286,8.4286,8.4286,8.4286,8.4286,8.4286,8.4401,8.4939,8.5247,8.5286,8.5786,8.6094,8.6094,8.6094,8.6094,8.6094,8.6094,8.6094,8.6094,8.6094,8.6094,8.6094,8.6094,8.6094,8.6094,8.6094,8.5359,8.3892,8.3726,8.296,8.112,8.0468,7.9948,7.9502,7.8945,7.8536,7.8276,7.7756,7.705,7.6196,7.5601,7.5081,7.4598,7.4004,7.3632,7.3447,7.3372,7.3372,7.3372,7.3372,7.3372,7.3372,7.3372,7.3372,7.3372,7.3372,7.3372,7.3372,7.3372,7.3372,7.3335,7.2964,7.2518,7.2406,7.1923,7.1403,7.1278,7.042,6.9673,6.9584,6.9041,6.8733,6.9119,6.9265,6.9486,7.0,7.011,7.011,7.011,7.011,6.9712,6.8558,6.8404,6.8113,6.7579,6.6754,6.6428,6.6669,6.6428,6.6048,6.5945,6.5911,6.6048,6.6566,6.6669,6.6876,8.6017,8.594,8.5978,8.5901,8.5978,8.594,8.594,8.5824,8.5901,8.594,8.5863,8.5901,8.594,8.5824,8.5132,8.4863,8.4939,8.5555,8.5824,8.5824,8.5863,8.594,8.6017,8.5978,8.594,8.5747,8.5863,8.5978,8.5978,8.6094,8.6094,8.6094,8.6094,8.6094,8.6094,8.6094,8.6094,8.6094,8.6094,8.6094,8.6094,8.6094,8.6094,8.6094,8.6094,8.5627,8.4734,8.4597,8.3778,8.2012,8.1806,8.1137,7.9762,7.9465,7.9056,7.8388,7.8239,7.7868,7.7162,7.6902,7.6233,7.4933,7.4524,7.419,7.3447,7.3372,7.3372,7.3372,7.3372,7.3372,7.3372,7.3372,7.3372,7.3372,7.3372,7.3372,7.3372,7.3372,7.3372,7.3372,7.3224,7.3038,7.3187,7.2629,7.2146,7.1961,7.1301,7.0628,7.0434,7.0236,7.0128,7.0055,7.0036,7.0073,7.0146,7.011,7.011,7.011,7.0034,6.9879,6.9444,6.8991,6.8537,6.8078,6.7523,6.7118,6.7014,6.6738,6.6359,6.6083,6.5738,6.5876,6.5876,6.5911,6.6117,8.6094,8.6094,8.6094,8.6094,8.6094,8.6159,8.6159,8.6094,8.6159,8.6159,8.6094,8.6094,8.6094,8.6094,8.5786,8.567,8.5709,8.5978,8.6094,8.6094,8.6094,8.6094,8.6094,8.6094,8.6094,8.6094,8.6094,8.6094,8.6094,8.6094,8.6094,8.6094,8.6094,8.6094,8.6094,8.6094,8.6094,8.6094,8.6094,8.6094,8.6094,8.6094,8.6094,8.6094,8.6094,8.5665,8.4719,8.4673,8.408,8.2793,8.2288,8.1694,8.1063,8.0059,7.9131,7.8388,7.8276,7.8165,7.783,7.7347,7.6604,7.549,7.4858,7.4264,7.3595,7.3372,7.3372,7.3372,7.3372,7.3372,7.3372,7.3372,7.3372,7.3372,7.3372,7.3372,7.3372,7.3372,7.3372,7.3298,7.2964,7.2629,7.2778,7.2369,7.2406,7.2815,7.2563,7.2034,7.1394,7.1175,7.1048,7.0937,7.0881,7.1064,7.1651,7.066,7.011,7.011,7.0034,6.9785,6.9415,6.8958,6.8467,6.7823,6.7544,6.7126,6.6712,6.6428,6.6117,6.5635,6.5359,6.5462,6.5152,6.529,6.5497,8.6159,8.6197,8.6159,8.6159,8.623,8.6223,8.6223,8.6191,8.6223,8.6153,8.6126,8.6094,8.6094,8.6094,8.6094,8.6094,8.6094,8.6094,8.6094,8.6094,8.6094,8.6094,8.6094,8.6094,8.6094,8.6094,8.6094,8.6094,8.6094,8.6094,8.6094,8.6094,8.6094,8.6094,8.6094,8.6094,8.6094,8.6094,8.6094,8.6094,8.6094,8.6094,8.6094,8.6094,8.6094,8.5665,8.4719,8.4673,8.423,8.3301,8.266,8.214,8.1508,8.0245,7.9131,7.8425,7.8276,7.8276,7.8239,7.7756,7.7125,7.627,7.5453,7.4635,7.3892,7.3521,7.341,7.3372,7.3372,7.3372,7.3372,7.3372,7.3372,7.3372,7.3372,7.3372,7.3372,7.3372,7.3521,7.3744,7.3707,7.3447,7.3335,7.341,7.367,7.4115,7.41,7.3643,7.3111,7.2595,7.2281,7.2075,7.1835,7.1945,7.2165,7.1541,7.1138,7.1138,7.0991,7.0485,6.989,6.9273,6.8658,6.7905,6.7256,6.6774,6.6408,6.6125,6.5669,6.5186,6.5255,6.5462,6.5117,6.4772,6.4945,8.6285,8.6354,8.6254,8.6254,8.6354,8.6384,8.6384,8.6354,8.6254,8.6184,8.6153,8.6126,8.6094,8.6094,8.6094,8.6094,8.6094,8.6094,8.6094,8.6094,8.6094,8.6094,8.6094,8.6094,8.6094,8.6094,8.6094,8.6094,8.6094,8.6094,8.6094,8.6094,8.6094,8.6094,8.6094,8.6094,8.6094,8.6094,8.6094,8.6094,8.6094,8.6094,8.6094,8.6094,8.6094,8.5665,8.4719,8.4673,8.423,8.3318,8.3143,8.2363,8.0951,8.0022,7.9168,7.8462,7.8276,7.8276,7.8276,7.8239,7.7793,7.6976,7.6233,7.5304,7.4487,7.3781,7.3372,7.3372,7.3372,7.3372,7.3372,7.3484,7.3484,7.3372,7.3372,7.341,7.3447,7.3447,7.3707,7.4487,7.5007,7.5676,7.575,7.5527,7.5564,7.575,7.5824,7.5605,7.5125,7.4533,7.4126,7.3566,7.2994,7.27,7.2569,7.2496,7.2459,7.2386,7.2202,7.1809,7.1271,7.0645,6.989,6.9176,6.8239,6.7753,6.7092,6.6773,6.6359,6.5979,6.5876,6.5635,6.529,6.4945,6.4462,8.6354,8.6384,8.6354,8.6354,8.6384,8.6443,8.6443,8.6384,8.6354,8.6285,8.6184,8.6126,8.6094,8.6094,8.6094,8.6094,8.6094,8.6094,8.6094,8.6094,8.6094,8.6094,8.6094,8.6094,8.6094,8.6094,8.6094,8.6094,8.6094,8.6094,8.6094,8.6094,8.6094,8.6094,8.6094,8.6094,8.6094,8.6094,8.6094,8.6094,8.6094,8.6094,8.6094,8.6094,8.6094,8.5665,8.4765,8.4673,8.423,8.3239,8.318,8.2437,8.0988,8.0468,7.9688,7.8499,7.8276,7.8276,7.8276,7.8276,7.7942,7.7125,7.627,7.5453,7.4635,7.3892,7.3484,7.341,7.3372,7.3372,7.3484,7.393,7.3967,7.3447,7.3372,7.3707,7.419,7.471,7.5118,7.5341,7.5639,7.601,7.653,7.6679,7.6865,7.731,7.7422,7.7218,7.6495,7.6013,7.5328,7.4233,7.3697,7.3125,7.2737,7.2496,7.2532,7.2532,7.2496,7.2496,7.2108,7.1671,7.1002,7.0024,6.92,6.8412,6.786,6.7428,6.7014,6.6773,6.6635,6.6221,6.5635,6.5186,6.4738,8.6433,8.6472,8.6443,8.6481,8.6472,8.6528,8.6528,8.6472,8.6443,8.6384,8.6254,8.6191,8.6126,8.6094,8.6094,8.6094,8.6094,8.6094,8.6094,8.6094,8.6094,8.6094,8.6094,8.6094,8.6094,8.6094,8.6094,8.6094,8.6094,8.6094,8.6094,8.6094,8.6094,8.6094,8.6094,8.6094,8.6094,8.6094,8.6094,8.6094,8.6094,8.6094,8.6094,8.6094,8.6094,8.5628,8.4765,8.4673,8.423,8.3433,8.318,8.24,8.0877,8.0617,7.9985,7.8685,7.8276,7.8276,7.8276,7.8276,7.809,7.7496,7.6753,7.6121,7.549,7.4747,7.4301,7.4264,7.4301,7.4264,7.4375,7.471,7.4747,7.4338,7.4338,7.4524,7.5044,7.575,7.6196,7.6344,7.6567,7.6976,7.7347,7.757,7.7719,7.8202,7.8276,7.809,7.7347,7.6864,7.5826,7.4769,7.4065,7.3419,7.2757,7.2553,7.2496,7.2532,7.2496,7.2496,7.2321,7.2108,7.1609,7.0232,6.92,6.844,6.7876,6.7911,6.7704,6.7566,6.729,6.698,6.6428,6.5704,6.5186,8.6532,8.6583,8.6528,8.6556,8.6583,8.661,8.6583,8.6583,8.6528,8.6443,8.6384,8.6254,8.6191,8.6126,8.6094,8.6094,8.6094,8.6094,8.6094,8.6094,8.6094,8.6094,8.6094,8.6094,8.6094,8.6094,8.6094,8.6094,8.6094,8.6094,8.6094,8.6094,8.6094,8.6094,8.6094,8.6094,8.6094,8.6094,8.6094,8.6094,8.6094,8.6094,8.6094,8.6094,8.606,8.5665,8.4854,8.4571,8.4078,8.3318,8.318,8.2437,8.1063,8.0691,7.9985,7.8462,7.8276,7.8276,7.8276,7.8276,7.8165,7.7942,7.7347,7.7013,7.6567,7.5899,7.5453,7.549,7.5564,7.5639,7.5601,7.5824,7.5861,7.5936,7.5787,7.5824,7.5899,7.6604,7.705,7.7273,7.7793,7.8239,7.8165,7.8165,7.8202,7.8276,7.8276,7.809,7.7866,7.7234,7.6343,7.5416,7.4491,7.366,7.2998,7.2553,7.2496,7.2532,7.2532,7.2532,7.2321,7.2011,7.1671,7.0368,6.92,6.8517,6.8083,6.8083,6.8083,6.7911,6.7738,6.7635,6.7152,6.6359,6.5635,8.6571,8.661,8.6583,8.6583,8.661,8.661,8.661,8.661,8.6528,8.65,8.6443,8.6285,8.6184,8.6191,8.6126,8.6094,8.6094,8.6094,8.6094,8.6094,8.6094,8.6094,8.6094,8.6094,8.6094,8.6094,8.6094,8.6094,8.6094,8.6094,8.6094,8.6094,8.6094,8.6094,8.6094,8.6094,8.6094,8.6094,8.6094,8.6094,8.6094,8.6094,8.6094,8.6094,8.6094,8.5628,8.4719,8.4012,8.3508,8.3239,8.318,8.24,8.0914,8.0654,7.9985,7.8611,7.8276,7.8276,7.8276,7.8276,7.8016,7.7459,7.731,7.6827,7.6159,7.5973,7.5787,7.5787,7.5787,7.5861,7.5936,7.6382,7.6902,7.7459,7.705,7.6753,7.6865,7.7422,7.7979,7.8016,7.8165,7.8276,7.8276,7.8276,7.8276,7.8276,7.8276,7.8221,7.7997,7.7886,7.7106,7.5976,7.5013,7.4052,7.3275,7.2737,7.2496,7.2496,7.2532,7.2532,7.2108,7.1547,7.1067,7.0163,6.9013,6.8162,6.8118,6.8118,6.8118,6.8325,6.829,6.8221,6.7635,6.6911,6.6152,8.661,8.661,8.661,8.661,8.661,8.661,8.661,8.661,8.6556,8.6528,8.65,8.6375,8.6246,8.6223,8.6159,8.6126,8.6094,8.6094,8.6094,8.6094,8.6094,8.6094,8.6094,8.6094,8.6094,8.6094,8.6094,8.6094,8.6094,8.6094,8.6094,8.6094,8.6094,8.6094,8.6094,8.6094,8.6094,8.6094,8.6094,8.6094,8.6094,8.6094,8.6094,8.6094,8.606,8.5665,8.4719,8.3922,8.3395,8.3297,8.3106,8.2437,8.0914,8.0691,7.9948,7.8462,7.8276,7.8276,7.8276,7.8276,7.7905,7.7347,7.7347,7.7125,7.6679,7.6604,7.6827,7.6902,7.6827,7.6827,7.6902,7.731,7.7756,7.8053,7.7868,7.757,7.757,7.7979,7.8239,7.8276,7.8276,7.8276,7.8276,7.8276,7.8276,7.8276,7.8276,7.8221,7.8127,7.8109,7.7608,7.6273,7.531,7.4347,7.3349,7.2757,7.2496,7.2496,7.2532,7.2532,7.2071,7.1323,7.0704,7.0024,6.8863,6.8187,6.8359,6.8566,6.8911,6.9049,6.8946,6.8877,6.8497,6.7394,6.6669,8.661,8.661,8.661,8.661,8.661,8.661,8.661,8.661,8.661,8.6583,8.6528,8.65,8.6375,8.6215,8.6223,8.6191,8.6094,8.6094,8.6094,8.6094,8.6094,8.6094,8.6094,8.6094,8.6094,8.6094,8.6094,8.6094,8.6094,8.6094,8.6094,8.6094,8.6094,8.6094,8.6094,8.6094,8.6094,8.6094,8.6094,8.6094,8.6094,8.6094,8.6094,8.6094,8.5954,8.559,8.481,8.4142,8.3692,8.318,8.318,8.2326,8.0951,8.0691,7.9874,7.8685,7.8276,7.8276,7.8276,7.8276,7.783,7.7162,7.7608,7.7793,7.7087,7.7273,7.7793,7.7942,7.8276,7.8053,7.8053,7.8239,7.8202,7.8239,7.8165,7.8128,7.8165,7.8239,7.8276,7.8276,7.8276,7.8276,7.8276,7.8276,7.8276,7.8276,7.8276,7.8276,7.8221,7.8183,7.7311,7.5903,7.5144,7.4605,7.3664,7.2704,7.2553,7.2532,7.2532,7.2438,7.2226,7.1609,7.077,6.999,6.9372,6.9072,6.898,6.9256,6.9635,6.9773,6.9704,6.9946,6.9911,6.8221,6.7118,8.661,8.661,8.661,8.661,8.661,8.661,8.661,8.661,8.661,8.6583,8.6583,8.6528,8.6472,8.6443,8.6285,8.6184,8.6153,8.6126,8.6094,8.6094,8.6094,8.6094,8.6094,8.6094,8.6094,8.6094,8.6094,8.6094,8.6094,8.6094,8.6094,8.6094,8.6094,8.6094,8.6094,8.6094,8.6094,8.6094,8.6094,8.6094,8.6094,8.6094,8.6094,8.606,8.5813,8.5317,8.4719,8.4193,8.3692,8.3318,8.3106,8.24,8.1063,8.0691,7.9911,7.8722,7.8276,7.8276,7.8276,7.8202,7.7645,7.6456,7.6902,7.7013,7.6233,7.6902,7.7645,7.809,7.8276,7.8276,7.8276,7.8276,7.8239,7.8128,7.7756,7.7385,7.7422,7.7868,7.809,7.8165,7.8165,7.8276,7.8239,7.8202,7.8239,7.8276,7.8276,7.8276,7.8276,7.8221,7.7163,7.5829,7.5384,7.4772,7.3423,7.2667,7.2553,7.2532,7.2532,7.2496,7.2285,7.1951,7.1195,7.0654,7.0164,6.9882,6.9554,6.9946,7.0325,7.0394,7.0463,7.036,6.998,6.8601,6.7635,8.661,8.661,8.661,8.661,8.661,8.661,8.661,8.661,8.661,8.661,8.661,8.6556,8.6528,8.65,8.6375,8.6315,8.6184,8.6126,8.6094,8.6094,8.6094,8.6094,8.6094,8.6094,8.6094,8.6094,8.6094,8.6094,8.6094,8.6094,8.6094,8.6094,8.6094,8.6094,8.6094,8.6094,8.6094,8.6094,8.6094,8.6094,8.6094,8.6094,8.6094,8.6094,8.5849,8.5436,8.4719,8.4438,8.3907,8.3433,8.3143,8.2437,8.1063,8.0654,7.9874,7.8648,7.8276,7.8276,7.8276,7.8202,7.757,7.5973,7.6604,7.6456,7.6233,7.6567,7.7422,7.8053,7.8276,7.8276,7.8276,7.8276,7.8165,7.7719,7.7347,7.6939,7.6642,7.6865,7.7125,7.7125,7.7013,7.731,7.7496,7.7682,7.8053,7.8053,7.8239,7.8239,7.8276,7.8072,7.72,7.6217,7.568,7.4772,7.3312,7.261,7.2553,7.2532,7.2532,7.2532,7.2438,7.2048,7.1609,7.0996,7.0344,7.0266,7.0129,7.0522,7.0981,7.136,7.136,7.0843,7.0084,6.9015,6.8256,8.661,8.661,8.661,8.661,8.661,8.661,8.661,8.661,8.661,8.661,8.661,8.661,8.6583,8.6528,8.65,8.6375,8.6254,8.6126,8.6094,8.6094,8.6094,8.6094,8.6094,8.6094,8.6094,8.6094,8.6094,8.6094,8.6094,8.6094,8.6094,8.6094,8.6094,8.6094,8.6094,8.6094,8.6094,8.6094,8.6094,8.6094,8.6094,8.6094,8.6094,8.6094,8.606,8.5665,8.5024,8.4711,8.428,8.3376,8.3127,8.2177,8.1174,8.0617,7.9985,7.8462,7.8276,7.8276,7.8276,7.8202,7.757,7.601,7.6382,7.6382,7.5973,7.627,7.7087,7.7756,7.8128,7.8276,7.8276,7.8276,7.7905,7.731,7.7013,7.6493,7.5824,7.5564,7.5527,7.5973,7.6233,7.6493,7.6716,7.6902,7.7422,7.7868,7.8016,7.8128,7.8165,7.7905,7.694,7.6014,7.5328,7.4457,7.3072,7.2573,7.2459,7.2349,7.2386,7.2275,7.2275,7.1919,7.1405,7.0955,7.0451,7.0453,7.0566,7.0752,7.1325,7.2119,7.1739,7.0739,7.0015,6.9394,6.8739,8.661,8.661,8.661,8.661,8.661,8.661,8.661,8.661,8.661,8.661,8.661,8.661,8.661,8.6583,8.6528,8.6375,8.6254,8.6159,8.6094,8.6094,8.6094,8.6094,8.6094,8.6094,8.6094,8.6094,8.6094,8.6094,8.6094,8.6094,8.6094,8.6094,8.6094,8.6094,8.6094,8.6094,8.6094,8.6094,8.6094,8.6094,8.6094,8.6094,8.6094,8.6094,8.6094,8.5813,8.5317,8.4854,8.439,8.3742,8.2762,8.1752,8.0914,8.0654,7.9799,7.8685,7.8276,7.8276,7.8276,7.8276,7.7422,7.6307,7.601,7.5676,7.5267,7.5601,7.6567,7.7347,7.7979,7.8276,7.8276,7.8276,7.7868,7.7199,7.6456,7.575,7.4933,7.445,7.4487,7.523,7.5564,7.575,7.5899,7.6121,7.653,7.6939,7.7199,7.7496,7.7682,7.7292,7.6644,7.5755,7.4848,7.3848,7.27,7.2516,7.2349,7.2092,7.2018,7.1762,7.1688,7.1541,7.1126,7.0685,7.0699,7.0937,7.1035,7.0949,7.0981,7.1291,7.0877,7.0394,6.9773,6.9153,6.8808,8.661,8.661,8.661,8.661,8.661,8.661,8.661,8.661,8.661,8.661,8.661,8.661,8.661,8.661,8.6583,8.6433,8.6323,8.6159,8.6094,8.6094,8.6094,8.6094,8.6094,8.6094,8.6094,8.6094,8.6094,8.6094,8.6094,8.6094,8.6094,8.6094,8.6094,8.6094,8.6094,8.6094,8.6094,8.6094,8.6094,8.6094,8.6094,8.6094,8.6094,8.6094,8.606,8.5849,8.5436,8.4942,8.4438,8.3772,8.2706,8.164,8.0877,8.0171,7.9539,7.8536,7.8276,7.8276,7.8276,7.8239,7.7496,7.6084,7.5787,7.5416,7.5044,7.5378,7.6307,7.7385,7.7905,7.8276,7.8276,7.8276,7.7682,7.6679,7.601,7.5267,7.4264,7.367,7.4004,7.4561,7.4487,7.4635,7.5118,7.5341,7.5639,7.601,7.6344,7.6716,7.7125,7.6624,7.6013,7.483,7.385,7.2944,7.2112,7.1945,7.1798,7.1615,7.1468,7.1211,7.0954,7.077,7.0624,7.0365,7.0682,7.0842,7.0845,7.06,7.0534,7.0394,7.0049,6.967,6.936,6.898,6.8601,8.661,8.661,8.661,8.661,8.661,8.661,8.661,8.661,8.661,8.661,8.661,8.661,8.661,8.661,8.6583,8.65,8.6423,8.6191,8.6126,8.6094,8.6094,8.6094,8.6094,8.6094,8.6094,8.6094,8.6094,8.6094,8.6094,8.6094,8.6094,8.6094,8.6094,8.6094,8.6094,8.6094,8.6094,8.6094,8.6094,8.6094,8.6094,8.6094,8.6094,8.6094,8.6094,8.5919,8.559,8.4986,8.4533,8.3777,8.2648,8.1397,8.0691,7.9762,7.8982,7.8425,7.8313,7.8276,7.8276,7.8276,7.757,7.5973,7.5824,7.5267,7.4858,7.5193,7.6382,7.7719,7.8239,7.8276,7.8276,7.8276,7.7459,7.6344,7.575,7.5267,7.4041,7.341,7.341,7.3632,7.3372,7.367,7.4264,7.445,7.471,7.523,7.5564,7.5936,7.6196,7.5861,7.5123,7.3813,7.2705,7.1875,7.1284,7.1101,7.0917,7.0734,7.0624,7.044,7.0146,6.9889,6.9872,7.0023,6.9849,7.0047,7.0056,7.0217,7.0045,6.9807,6.9371,6.9015,6.8773,6.8566,6.8325,8.661,8.661,8.661,8.661,8.661,8.661,8.661,8.661,8.661,8.661,8.661,8.661,8.661,8.6583,8.6556,8.6472,8.6384,8.6254,8.6159,8.6126,8.6094,8.6094,8.6094,8.6094,8.6094,8.6094,8.6094,8.6094,8.6094,8.6094,8.6094,8.6094,8.6094,8.6094,8.6094,8.6094,8.6094,8.6094,8.6094,8.6094,8.6094,8.6094,8.6094,8.6094,8.6094,8.606,8.5849,8.5235,8.4673,8.4335,8.2195,8.0934,8.0468,7.9205,7.8573,7.8313,7.8276,7.8276,7.8276,7.8276,7.757,7.6196,7.5787,7.497,7.4561,7.497,7.6084,7.7087,7.7793,7.8239,7.8276,7.8276,7.7385,7.653,7.5824,7.5007,7.3892,7.3372,7.3372,7.3372,7.3372,7.3372,7.367,7.3707,7.3781,7.4338,7.4784,7.5081,7.5044,7.4471,7.3972,7.263,7.1766,7.0973,7.044,7.0257,7.0,6.9816,6.9669,6.9596,6.9376,6.9192,6.9669,6.9675,6.9564,6.9685,7.0025,7.0085,6.9701,6.9358,6.9029,6.8665,6.8221,6.8083,6.8083,8.661,8.661,8.661,8.661,8.661,8.661,8.661,8.661,8.661,8.661,8.661,8.661,8.661,8.6583,8.6528,8.65,8.6443,8.6285,8.6223,8.6159,8.6126,8.6094,8.6094,8.6094,8.6094,8.6094,8.6094,8.6094,8.6094,8.6094,8.6094,8.6094,8.6094,8.6094,8.6094,8.6094,8.6094,8.6094,8.6094,8.6094,8.6094,8.6094,8.6094,8.6094,8.6094,8.6094,8.5919,8.5514,8.4942,8.437,8.2397,8.1027,8.0433,7.9279,7.8313,7.8313,7.8276,7.8276,7.8276,7.8276,7.7347,7.627,7.5713,7.5267,7.4524,7.4673,7.575,7.7013,7.7385,7.7756,7.8165,7.8276,7.7645,7.6865,7.6084,7.5193,7.4264,7.367,7.3372,7.3372,7.3372,7.3372,7.3335,7.3335,7.3372,7.3632,7.3781,7.3818,7.3357,7.2473,7.196,7.1373,7.0661,7.011,6.9706,6.9412,6.9009,6.8788,6.8568,6.8495,6.8495,6.8568,6.9229,6.9963,7.0376,7.0408,7.036,7.0132,6.9952,6.9372,6.8746,6.8517,6.8241,6.8083,6.8083,8.661,8.661,8.661,8.661,8.661,8.661,8.661,8.661,8.661,8.661,8.661,8.661,8.661,8.661,8.6556,8.6528,8.65,8.6345,8.6254,8.6223,8.6159,8.6126,8.6094,8.6094,8.6094,8.6094,8.6094,8.6094,8.6094,8.6094,8.6094,8.6094,8.6094,8.6094,8.6094,8.6094,8.6094,8.6094,8.6094,8.6094,8.6094,8.6094,8.6094,8.6094,8.6094,8.6094,8.6026,8.5628,8.5155,8.4252,8.2621,8.12,8.043,7.9168,7.8406,7.8276,7.8276,7.8276,7.8276,7.8165,7.7347,7.6307,7.5267,7.471,7.4375,7.445,7.4896,7.6196,7.6976,7.7385,7.783,7.809,7.7793,7.705,7.627,7.549,7.471,7.3967,7.3447,7.3372,7.3372,7.3372,7.3298,7.3112,7.3075,7.3075,7.2927,7.2666,7.1895,7.1013,7.0576,7.0212,6.961,6.9173,6.8862,6.8495,6.8128,6.7981,6.776,6.7724,6.7944,6.8495,6.9192,6.9963,7.0807,7.1216,7.1241,7.08,7.03,6.9564,6.8863,6.8635,6.844,6.8241,6.8083,8.661,8.661,8.661,8.661,8.661,8.661,8.661,8.661,8.661,8.661,8.661,8.661,8.661,8.661,8.6583,8.6556,8.65,8.65,8.6375,8.6285,8.6184,8.6159,8.6126,8.6094,8.6094,8.6094,8.6094,8.6094,8.6094,8.6094,8.6094,8.6094,8.6094,8.6094,8.6094,8.6094,8.6094,8.6094,8.6094,8.6094,8.6094,8.6094,8.6094,8.6094,8.6094,8.6094,8.606,8.5702,8.5053,8.4284,8.2649,8.1157,8.0315,7.9087,7.8478,7.8332,7.8276,7.8276,7.8276,7.8165,7.7385,7.5973,7.4635,7.3855,7.3744,7.4227,7.4673,7.5044,7.6047,7.6865,7.7347,7.7645,7.7645,7.7385,7.6642,7.5824,7.497,7.4115,7.3632,7.3447,7.3372,7.3298,7.3038,7.2778,7.2666,7.2666,7.1886,7.1626,7.1018,7.0249,6.9776,6.9304,6.8594,6.8178,6.7998,6.776,6.7834,6.7834,6.7724,6.7687,6.7724,6.8421,6.9412,7.0036,7.0881,7.1558,7.2087,7.1562,7.0872,6.9778,6.9126,6.92,6.8711,6.8284,6.8162,8.661,8.661,8.661,8.661,8.661,8.661,8.661,8.661,8.661,8.661,8.661,8.661,8.661,8.661,8.661,8.6583,8.6556,8.6528,8.6472,8.6345,8.6285,8.6223,8.6159,8.6126,8.6094,8.6094,8.6094,8.6094,8.6094,8.6094,8.6094,8.6094,8.6094,8.6094,8.6094,8.6094,8.6094,8.6094,8.6094,8.6094,8.6094,8.6094,8.6094,8.6094,8.6094,8.6094,8.606,8.5919,8.5166,8.4136,8.2935,8.1665,8.0316,7.9266,7.8655,7.8386,7.8332,7.8276,7.8239,7.8165,7.7496,7.5936,7.4413,7.3372,7.3372,7.3707,7.4153,7.4635,7.5193,7.5936,7.705,7.7347,7.7422,7.7496,7.6976,7.601,7.5193,7.4264,7.3707,7.3484,7.3298,7.3149,7.2778,7.2369,7.2295,7.2184,7.1329,7.0549,7.0016,6.9595,6.9161,6.8823,6.8225,6.792,6.7741,6.7687,6.7687,6.7687,6.7687,6.776,6.7944,6.9045,6.9926,7.0477,7.1064,7.1814,7.227,7.2189,7.1547,7.0503,7.0163,7.0094,6.9419,6.844,6.8241,8.661,8.661,8.661,8.661,8.661,8.661,8.661,8.661,8.661,8.661,8.661,8.661,8.661,8.661,8.661,8.661,8.6583,8.6556,8.6528,8.6472,8.6345,8.6254,8.6191,8.6159,8.6094,8.6094,8.6094,8.6094,8.6094,8.6094,8.6094,8.6094,8.6094,8.6094,8.6094,8.6094,8.6094,8.6094,8.6094,8.6094,8.6094,8.6094,8.6094,8.6094,8.6094,8.6094,8.6094,8.595,8.5266,8.4207,8.3066,8.1946,8.0636,7.9489,7.8929,7.8581,7.8386,7.8276,7.8239,7.7608,7.705,7.5787,7.4301,7.3558,7.3372,7.3372,7.3744,7.4078,7.445,7.5118,7.6419,7.6456,7.6716,7.6716,7.6196,7.5378,7.5007,7.4301,7.3818,7.3447,7.3187,7.2741,7.2221,7.1701,7.1143,7.092,7.0215,6.962,6.9348,6.8964,6.8642,6.8393,6.8129,6.7899,6.7741,6.7741,6.7687,6.7687,6.7724,6.7944,6.8385,6.9449,7.0293,7.0844,7.1468,7.2239,7.2438,7.238,7.1951,7.1422,7.1002,7.0436,6.9707,6.8711,6.844,8.661,8.661,8.661,8.661,8.661,8.661,8.661,8.661,8.661,8.661,8.661,8.661,8.661,8.661,8.661,8.661,8.661,8.6583,8.6583,8.65,8.6443,8.6315,8.6223,8.6159,8.6094,8.6094,8.6094,8.6094,8.6094,8.6094,8.6094,8.6094,8.6094,8.6094,8.6094,8.6094,8.6094,8.6094,8.6094,8.6094,8.6094,8.6094,8.6094,8.6094,8.6094,8.6094,8.6094,8.5901,8.5104,8.3917,8.3137,8.1958,8.0543,7.9592,7.9064,7.8904,7.8512,7.8332,7.8239,7.679,7.6047,7.5676,7.4338,7.3484,7.3372,7.341,7.341,7.3744,7.4078,7.445,7.497,7.5341,7.5787,7.601,7.5527,7.5118,7.4784,7.445,7.4004,7.3224,7.2629,7.2109,7.1552,7.0958,7.014,6.9583,6.8989,6.8729,6.8729,6.8605,6.8396,6.8259,6.8107,6.7952,6.7847,6.7741,6.7687,6.7687,6.7797,6.8017,6.8568,6.9486,7.0293,7.1064,7.1762,7.2422,7.2532,7.2496,7.2167,7.1732,7.1002,7.0368,6.9636,6.9087,6.8711,8.661,8.661,8.661,8.661,8.661,8.661,8.661,8.661,8.661,8.661,8.661,8.661,8.661,8.661,8.661,8.661,8.661,8.661,8.6583,8.6556,8.65,8.6414,8.6315,8.6223,8.612,8.6094,8.6094,8.6094,8.6094,8.6094,8.6094,8.6094,8.6094,8.6094,8.6094,8.6094,8.6094,8.6094,8.6094,8.6094,8.6094,8.6094,8.6094,8.6094,8.6094,8.6094,8.6055,8.5709,8.4786,8.367,8.2971,8.1869,8.0658,7.9751,7.9349,7.9053,7.8618,7.8332,7.7868,7.6865,7.5899,7.5304,7.4413,7.3447,7.3372,7.3372,7.3372,7.341,7.367,7.4078,7.4598,7.4784,7.5156,7.5787,7.5564,7.5193,7.4821,7.4561,7.4078,7.3001,7.2184,7.1292,7.0623,7.0177,6.9434,6.9137,6.8729,6.8617,6.8617,6.8531,6.8408,6.8309,6.8158,6.8055,6.7899,6.7794,6.7687,6.7687,6.7797,6.8017,6.8715,6.9706,7.0477,7.1284,7.1945,7.2532,7.2532,7.2496,7.2438,7.2011,7.1422,7.1002,7.057,6.9849,6.9087,8.661,8.661,8.661,8.661,8.661,8.661,8.661,8.661,8.661,8.661,8.661,8.661,8.661,8.661,8.661,8.661,8.661,8.661,8.661,8.6583,8.6528,8.6472,8.6414,8.6285,8.6191,8.6126,8.6094,8.6094,8.6094,8.6094,8.6094,8.6094,8.6094,8.6094,8.6094,8.6094,8.6094,8.6094,8.6094,8.6094,8.6094,8.6094,8.6094,8.6094,8.6094,8.6094,8.5863,8.5324,8.4478,8.3593,8.2715,8.1804,8.0844,8.0043,7.9621,7.9161,7.8633,7.8386,7.7905,7.6716,7.5899,7.5713,7.4264,7.3484,7.3372,7.3372,7.3372,7.3372,7.3372,7.3632,7.4078,7.4227,7.445,7.5081,7.4933,7.4524,7.4413,7.4078,7.3744,7.2629,7.1663,7.0698,6.9732,6.9249,6.8729,6.8617,6.8543,6.8543,6.8543,6.8457,6.8457,6.8309,6.8208,6.8055,6.7899,6.7794,6.7741,6.7687,6.7944,6.8274,6.9192,7.022,7.0881,7.1505,7.2092,7.2532,7.2532,7.2496,7.2438,7.238,7.2108,7.1707,7.1485,7.074,6.9849,8.661,8.661,8.661,8.661,8.661,8.661,8.661,8.661,8.661,8.661,8.661,8.661,8.661,8.661,8.661,8.661,8.661,8.661,8.661,8.6583,8.6556,8.65,8.6443,8.6315,8.6254,8.6153,8.612,8.6126,8.6094,8.6094,8.6094,8.6094,8.6094,8.6094,8.6094,8.6094,8.6094,8.6094,8.6094,8.6094,8.6094,8.6094,8.6094,8.6094,8.6094,8.6094,8.5824,8.517,8.4362,8.3555,8.2708,8.19,8.1057,8.0239,7.9878,7.9395,7.8738,7.8441,7.8053,7.6716,7.5936,7.5601,7.4264,7.3632,7.3372,7.3372,7.3372,7.3372,7.3372,7.3372,7.3484,7.3521,7.3595,7.3744,7.3707,7.3595,7.3595,7.3335,7.3038,7.2258,7.1329,7.0326,6.9211,6.8543,6.8543,6.8543,6.8543,6.8457,6.8457,6.8506,6.8408,6.8309,6.8208,6.8055,6.7952,6.7794,6.7998,6.8017,6.8458,6.8898,6.9816,7.066,7.1284,7.1835,7.2275,7.2532,7.2532,7.2532,7.2496,7.238,7.2321,7.2167,7.183,7.1422,7.0673,8.661,8.661,8.661,8.661,8.661,8.661,8.661,8.661,8.661,8.661,8.661,8.661,8.661,8.661,8.661,8.661,8.661,8.661,8.661,8.6583,8.6583,8.6556,8.65,8.6443,8.6315,8.6215,8.6153,8.612,8.6094,8.6094,8.6094,8.6094,8.6094,8.6094,8.6094,8.6094,8.6094,8.6094,8.6094,8.6094,8.6094,8.6094,8.6094,8.6094,8.6094,8.6094,8.5786,8.4709,8.3901,8.3478,8.217,8.1285,8.1138,8.0503,8.0043,7.9208,7.8633,7.8276,7.8016,7.6753,7.5824,7.5527,7.4338,7.3595,7.3372,7.3372,7.3372,7.3372,7.3372,7.3372,7.3372,7.3372,7.3372,7.3372,7.3372,7.3372,7.3372,7.3298,7.2964,7.2184,7.1218,7.0066,6.8914,6.8543,6.8543,6.8543,6.8457,6.8457,6.8408,6.8457,6.8408,6.8259,6.8158,6.8055,6.7952,6.7794,6.8145,6.8458,6.8898,6.9486,7.0477,7.1211,7.1725,7.2092,7.2422,7.2532,7.2532,7.2532,7.2532,7.2532,7.2438,7.238,7.2167,7.183,7.1359,8.661,8.661,8.661,8.661,8.661,8.661,8.661,8.661,8.661,8.661,8.661,8.661,8.661,8.661,8.661,8.661,8.661,8.661,8.661,8.661,8.661,8.6583,8.6556,8.65,8.6375,8.6315,8.6223,8.612,8.6126,8.6094,8.6094,8.6094,8.6094,8.6094,8.6094,8.6094,8.6094,8.6094,8.6094,8.6094,8.6094,8.6094,8.6094,8.6094,8.6094,8.594,8.5555,8.4209,8.3555,8.3054,8.167,8.1131,8.0959,8.0503,7.9836,7.9102,7.8618,7.8332,7.809,7.7162,7.6307,7.5564,7.4598,7.3892,7.3484,7.3372,7.3372,7.3372,7.3372,7.3372,7.3372,7.3372,7.3372,7.3372,7.3372,7.3372,7.3372,7.3372,7.2815,7.2109,7.1069,6.9917,6.9137,6.8766,6.8543,6.8543,6.8457,6.8408,6.8358,6.8358,6.8309,6.8208,6.8107,6.8004,6.7899,6.7904,6.8292,6.8715,6.9302,7.0,7.1027,7.1688,7.2092,7.2312,7.2459,7.2532,7.2532,7.2532,7.2532,7.2532,7.2532,7.2438,7.238,7.2226,7.1671,8.661,8.661,8.661,8.661,8.661,8.661,8.661,8.661,8.661,8.661,8.661,8.661,8.661,8.661,8.661,8.661,8.661,8.661,8.661,8.661,8.661,8.6583,8.6583,8.6556,8.6472,8.6384,8.6285,8.6191,8.6126,8.6094,8.6094,8.6094,8.6094,8.6094,8.6094,8.6094,8.6094,8.6094,8.6094,8.6094,8.6094,8.6094,8.6094,8.6055,8.594,8.567,8.4901,8.4016,8.3131,8.2324,8.1631,8.1131,8.0822,8.0354,7.9708,7.9198,7.8738,7.8441,7.8146,7.7385,7.6604,7.5824,7.5044,7.4153,7.3632,7.341,7.3372,7.3372,7.3372,7.3372,7.3372,7.3372,7.3372,7.3372,7.3372,7.3372,7.3372,7.3298,7.2927,7.2258,7.1478,7.0326,6.9472,6.9137,6.8766,6.8654,6.8457,6.8408,6.8358,6.8309,6.8208,6.8121,6.8018,6.7952,6.792,6.7998,6.8385,6.8935,6.9669,7.0513,7.1541,7.2092,7.2459,7.2532,7.2532,7.2532,7.2532,7.2532,7.2532,7.2532,7.2532,7.2532,7.2438,7.238,7.1951,8.661,8.661,8.661,8.661,8.661,8.661,8.661,8.661,8.661,8.661,8.661,8.661,8.661,8.661,8.661,8.661,8.661,8.661,8.661,8.661,8.661,8.661,8.661,8.6583,8.6528,8.6472,8.6384,8.6223,8.6126,8.6094,8.6094,8.6094,8.6094,8.6094,8.6094,8.6094,8.6094,8.6094,8.5978,8.5978,8.5978,8.6055,8.6094,8.5863,8.5632,8.5093,8.4324,8.3401,8.2785,8.217,8.1516,8.117,8.1061,8.054,8.0002,7.9576,7.9102,7.8686,7.8255,7.7662,7.6827,7.5936,7.5081,7.4264,7.3707,7.3484,7.3372,7.3372,7.3372,7.3372,7.3372,7.3372,7.3372,7.3372,7.3372,7.3372,7.3372,7.3187,7.3001,7.2481,7.1849,7.1032,7.0103,6.9509,6.91,6.884,6.8617,6.8457,6.8309,6.8259,6.8107,6.8018,6.7915,6.7899,6.7978,6.8292,6.8752,6.9559,7.0367,7.1211,7.2055,7.2275,7.2532,7.2532,7.2532,7.2532,7.2532,7.2532,7.2532,7.2532,7.2532,7.2532,7.2532,7.2438,7.2048,8.661,8.661,8.661,8.661,8.661,8.661,8.661,8.661,8.661,8.661,8.661,8.661,8.661,8.661,8.661,8.661,8.661,8.661,8.661,8.661,8.661,8.661,8.661,8.661,8.6556,8.65,8.6345,8.6223,8.6159,8.6094,8.6094,8.6094,8.6094,8.6055,8.6055,8.6094,8.6017,8.6094,8.5747,8.5593,8.5555,8.5555,8.5555,8.5363,8.4863,8.4324,8.3555,8.267,8.2285,8.1862,8.1285,8.1131,8.0991,8.065,8.0316,7.9878,7.9441,7.8904,7.8484,7.792,7.703,7.6047,7.549,7.4821,7.3595,7.3372,7.3372,7.3372,7.3372,7.3372,7.3372,7.3372,7.3372,7.3372,7.3372,7.3372,7.3372,7.3298,7.3187,7.3001,7.2406,7.1812,7.0995,7.0512,7.0029,6.936,6.91,6.8754,6.8531,6.8504,6.8277,6.8136,6.8194,6.8288,6.8439,6.8788,6.9265,7.011,7.1027,7.1578,7.2165,7.2349,7.2532,7.2532,7.2532,7.2532,7.2532,7.2532,7.2532,7.2532,7.2532,7.2532,7.2532,7.2532,7.2226,8.661,8.661,8.661,8.661,8.661,8.661,8.661,8.661,8.661,8.661,8.661,8.661,8.661,8.661,8.661,8.661,8.661,8.661,8.661,8.661,8.661,8.661,8.661,8.661,8.6556,8.6472,8.6384,8.6285,8.6254,8.6159,8.6094,8.6094,8.6017,8.594,8.594,8.5786,8.5555,8.5324,8.5016,8.4786,8.4747,8.4747,8.4747,8.4439,8.3901,8.3131,8.2631,8.2247,8.19,8.1554,8.1246,8.1131,8.1061,8.0788,8.054,8.02,7.9621,7.9161,7.8866,7.84,7.727,7.627,7.5973,7.5156,7.3892,7.3372,7.3372,7.3372,7.3372,7.3372,7.3372,7.3372,7.3372,7.3372,7.3372,7.3372,7.3372,7.3372,7.3335,7.3298,7.2889,7.2369,7.1886,7.1366,7.0846,7.0177,6.9645,6.9261,6.9063,6.9133,6.9141,6.891,6.884,6.8934,6.8862,6.9486,7.0,7.0587,7.1431,7.1872,7.2239,7.2422,7.2532,7.2532,7.2532,7.2532,7.2532,7.2532,7.2532,7.2532,7.2532,7.2532,7.2532,7.2532,7.2532,8.661,8.661,8.661,8.661,8.661,8.661,8.661,8.661,8.661,8.661,8.661,8.661,8.661,8.661,8.661,8.661,8.661,8.661,8.661,8.661,8.661,8.661,8.661,8.661,8.6556,8.65,8.6414,8.6384,8.6246,8.6153,8.6088,8.6076,8.5286,8.5093,8.5016,8.4747,8.4324,8.4247,8.4247,8.3978,8.3939,8.3901,8.3824,8.3478,8.3016,8.3016,8.2978,8.2593,8.2324,8.1939,8.1516,8.1285,8.1138,8.1036,8.0754,8.043,7.9836,7.9441,7.9064,7.8618,7.7456,7.6084,7.5639,7.5081,7.4078,7.3372,7.3372,7.3372,7.3372,7.3372,7.3372,7.3372,7.3372,7.3372,7.3372,7.3372,7.3372,7.3372,7.3372,7.3372,7.3224,7.2741,7.2258,7.1886,7.1626,7.1069,7.0698,7.0313,7.004,6.9999,6.9917,6.9737,6.9539,6.921,6.9119,7.0257,7.0917,7.1394,7.1762,7.2129,7.2386,7.2459,7.2532,7.2532,7.2532,7.2532,7.2532,7.2532,7.2532,7.2532,7.2532,7.2532,7.2532,7.2532,7.2532]},{"header":{"parameterUnit":"m.s-1","parameterCategory":1,"la1":31.0,"la2":29.5877,"lo1":-88.7671,"lo2":-86.6584,"dx":0.0162,"dy":0.0185,"nx":115,"ny":88,"refTime":"2022-11-07T18:00:00:Z","depth":0,"parameterNumber":3,"parameterNumberName":"V-component_of_WINDS"},"data":[0.0,0.0,0.0,0.0,0.0,0.0,0.0,0.0,0.0,0.0,0.0,0.0,0.0,0.0,0.0,0.0,0.0,0.0,0.0,0.0,0.0,0.0,0.0,0.0,0.0,0.0,0.0,0.0,0.0,0.0,0.0,0.0,0.0,0.0,0.0,0.0,0.0,0.0,0.0,0.0,0.0,0.0,0.0,0.0,0.0,0.0,0.0,0.0,0.0,0.0,0.0,0.0,0.0,0.0,0.0,0.0,0.0,0.0,0.0,0.0,0.0,0.0,0.0,0.0,0.0,0.0,0.0,0.0,0.0,0.0,0.0,0.0,0.0,0.0,0.0,0.0,0.0,0.0,0.0,0.0,0.0,0.0,0.0,0.0,0.0,0.0,0.0,0.0,0.0,0.0,0.0,0.0,0.0,0.0,0.0,0.0,0.0,0.0,0.0,0.0,0.0,0.0,0.0,0.0,0.0,0.0,0.0,0.0,0.0,0.0,0.0,0.0,0.0,0.0,0.0,0.0,0.0,0.0,0.0,0.0,0.0,0.0,0.0,0.0,0.0,0.0,0.0,0.0,0.0,0.0,0.0,0.0,0.0,0.0,0.0,0.0,0.0,0.0,0.0,0.0,0.0,0.0,0.0,0.0,0.0,0.0,0.0,0.0,0.0,0.0,0.0,0.0,0.0,0.0,0.0,0.0,0.0,0.0,0.0,0.0,0.0,0.0,0.0,0.0,0.0,0.0,0.0,0.0,0.0,0.0,0.0,0.0,0.0,0.0,0.0,0.0,0.0,0.0,0.0,0.0,0.0,0.0,0.0,0.0,0.0,0.0,0.0,0.0,0.0,0.0,0.0,0.0,0.0,0.0,0.0,0.0,0.0,0.0,0.0,0.0,0.0,0.0,0.0,0.0,0.0,0.0,0.0,0.0,0.0,0.0,0.0,0.0,0.0,0.0,0.0,0.0,0.0,0.0,0.0,0.0,0.0,0.0,0.0,0.0,0.0,0.0,0.0,0.0,0.0,0.0,0.0,0.0,0.0,0.0,0.0,0.0,0.0,0.0,0.0,0.0,0.0,0.0,0.0,0.0,0.0,0.0,0.0,0.0,0.0,0.0,0.0,0.0,0.0,0.0,0.0,0.0,0.0,0.0,0.0,0.0,0.0,0.0,0.0,0.0,0.0,0.0,0.0,0.0,0.0,0.0,0.0,0.0,0.0,0.0,0.0,0.0,0.0,0.0,0.0,0.0,0.0,0.0,0.0,0.0,0.0,0.0,0.0,0.0,0.0,0.0,0.0,0.0,0.0,0.0,0.0,0.0,0.0,0.0,0.0,0.0,0.0,0.0,0.0,0.0,0.0,0.0,0.0,0.0,0.0,0.0,0.0,0.0,0.0,0.0,0.0,0.0,0.0,0.0,0.0,0.0,0.0,0.0,0.0,0.0,0.0,0.0,0.0,0.0,0.0,0.0,0.0,0.0,0.0,0.0,0.0,0.0,0.0,0.0,0.0,0.0,0.0,0.0,0.0,0.0,0.0,0.0,0.0,0.0,0.0,0.0,0.0,0.0,0.0,0.0,0.0,0.0,0.0,0.0,0.0,0.0,0.0,0.0,0.0,0.0,0.0,0.0,0.0,0.0,0.0,0.0,0.0,0.0,0.0,0.0,0.0,0.0,0.0,0.0,0.0,0.0,0.0,0.0,0.0,0.0,0.0,0.0,0.0,0.0,0.0,0.0,0.0,0.0,0.0,0.0,0.0,0.0,0.0,0.0,0.0,0.0,0.0,0.0,0.0,0.0,0.0,0.0,0.0,0.0,0.0,0.0,0.0,0.0,0.0,0.0,0.0,0.0,0.0,0.0,0.0,0.0,0.0,0.0,0.0,0.0,0.0,0.0,0.0,0.0,0.0,0.0,0.0,0.0,0.0,0.0,0.0,0.0,0.0,0.0,0.0,0.0,0.0,0.0,0.0,0.0,0.0,0.0,0.0,0.0,0.0,0.0,0.0,0.0,0.0,0.0,0.0,0.0,0.0,0.0,0.0,0.0,0.0,0.0,0.0,0.0,0.0,0.0,0.0,0.0,0.0,0.0,0.0,0.0,0.0,0.0,0.0,0.0,0.0,0.0,0.0,0.0,0.0,0.0,0.0,0.0,0.0,0.0,0.0,0.0,0.0,0.0,0.0,0.0,0.0,0.0,0.0,0.0,0.0,0.0,0.0,0.0,0.0,0.0,0.0,0.0,0.0,0.0,0.0,0.0,0.0,0.0,0.0,0.0,0.0,0.0,0.0,0.0,0.0,0.0,0.0,0.0,0.0,0.0,0.0,0.0,0.0,0.0,0.0,0.0,0.0,0.0,0.0,0.0,0.0,0.0,0.0,0.0,0.0,0.0,0.0,0.0,0.0,0.0,0.0,0.0,0.0,0.0,0.0,0.0,0.0,0.0,0.0,0.0,0.0,0.0,0.0,0.0,0.0,0.0,0.0,0.0,0.0,0.0,0.0,0.0,0.0,0.0,0.0,0.0,0.0,0.0,0.0,0.0,0.0,0.0,0.0,0.0,0.0,0.0,0.0,0.0,0.0,0.0,0.0,0.0,0.0,0.0,0.0,0.0,0.0,0.0,0.0,0.0,0.0,0.0,0.0,0.0,0.0,0.0,0.0,0.0,0.0,0.0,0.0,0.0,0.0,0.0,0.0,0.0,0.0,0.0,0.0,0.0,0.0,0.0,0.0,0.0,0.0,0.0,0.0,0.0,0.0,0.0,0.0,0.0,0.0,0.0,0.0,0.0,0.0,0.0,0.0,0.0,0.0,0.0,0.0,0.0,0.0,0.0,0.0,0.0,0.0,0.0,0.0,0.0,0.0,0.0,0.0,0.0,0.0,0.0,0.0,0.0,0.0,0.0,0.0,0.0,0.0,0.0,0.0,0.0,0.0,0.0,0.0,0.0,0.0,0.0,0.0,0.0,0.0,0.0,0.0,0.0,0.0,0.0,0.0,0.0,0.0,0.0,0.0,0.0,0.0,0.0,0.0,0.0,0.0,0.0,0.0,0.0,0.0,0.0,0.0,0.0,0.0,0.0,0.0,0.0,0.0,0.0,0.0,0.0,0.0,0.0,0.0,0.0,0.0,0.0,0.0,0.0,0.0,0.0,0.0,0.0,0.0,0.0,0.0,0.0,0.0,0.0,0.0,0.0,0.0,0.0,0.0,0.0,0.0,0.0,0.0,0.0,0.0,0.0,0.0,0.0,0.0,0.0,0.0,0.0,0.0,0.0,0.0,0.0,0.0,0.0,0.0,0.0,0.0,0.0,0.0,0.0,0.0,0.0,0.0,0.0,0.0,0.0,0.0,0.0,0.0,0.0,0.0,0.0,0.0,0.0,0.0,0.0,0.0,0.0,0.0,0.0,0.0,0.0,0.0,0.0,0.0,0.0,0.0,0.0,0.0,0.0,0.0,0.0,0.0,0.0,0.0,0.0,0.0,0.0,0.0,0.0,0.0,0.0,0.0,0.0,0.0,0.0,0.0,0.0,0.0,0.0,0.0,0.0,0.0,0.0,0.0,0.0,0.0,0.0,0.0,0.0,0.0,0.0,0.0,0.0,0.0,0.0,0.0,0.0,0.0,0.0,0.0,0.0,0.0,0.0,0.0,0.0,0.0,0.0,0.0,0.0,0.0,0.0,0.0,0.0,0.0,0.0,0.0,0.0,0.0,0.0,0.0,0.0,0.0,0.0,0.0,0.0,0.0,0.0,0.0,0.0,0.0,0.0,0.0,0.0,0.0,0.0,0.0,0.0,0.0,0.0,0.0,0.0,0.0,0.0,0.0,0.0,0.0,0.0,0.0,0.0,0.0,0.0,0.0,0.0,0.0,0.0,0.0,0.0,0.0,0.0,0.0,0.0,0.0,0.0,0.0,0.0,0.0,0.0,0.0,0.0,0.0,0.0,0.0,0.0,0.0,0.0,0.0,0.0,0.0,0.0,0.0,0.0,0.0,0.0,0.0,0.0,0.0,0.0,0.0,0.0,0.0,0.0,0.0,0.0,0.0,0.0,0.0,0.0,0.0,0.0,0.0,0.0,0.0,0.0,0.0,0.0,0.0,0.0,0.0,0.0,0.0,0.0,0.0,0.0,0.0,0.0,0.0,0.0,0.0,0.0,0.0,0.0,0.0,0.0,0.0,0.0,0.0,0.0,0.0,0.0,0.0,0.0,0.0,0.0,0.0,0.0,0.0,0.0,0.0,0.0,0.0,0.0,0.0,0.0,-1.5537,0.0,0.0,0.0,-1.5178,0.0,0.0,0.0,0.0,0.0,0.0,0.0,0.0,0.0,0.0,0.0,0.0,0.0,0.0,0.0,0.0,0.0,0.0,0.0,0.0,0.0,0.0,0.0,0.0,0.0,0.0,0.0,0.0,0.0,0.0,0.0,0.0,0.0,0.0,0.0,0.0,0.0,0.0,0.0,0.0,0.0,0.0,0.0,0.0,0.0,0.0,0.0,0.0,0.0,0.0,0.0,0.0,0.0,0.0,0.0,0.0,0.0,0.0,0.0,0.0,0.0,0.0,0.0,0.0,0.0,0.0,0.0,0.0,0.0,0.0,0.0,0.0,0.0,0.0,0.0,0.0,0.0,0.0,0.0,0.0,0.0,0.0,0.0,0.0,0.0,0.0,0.0,0.0,0.0,0.0,0.0,0.0,0.0,0.0,0.0,0.0,0.0,0.0,0.0,0.0,0.0,0.0,0.0,0.0,0.0,0.0,0.0,0.0,0.0,0.0,-1.5543,-1.5503,-1.5375,-1.5236,-1.5096,0.0,0.0,0.0,0.0,0.0,0.0,0.0,0.0,0.0,0.0,0.0,0.0,0.0,0.0,0.0,0.0,0.0,0.0,0.0,0.0,0.0,0.0,0.0,0.0,0.0,0.0,0.0,0.0,0.0,0.0,0.0,0.0,0.0,0.0,0.0,0.0,0.0,0.0,0.0,0.0,0.0,0.0,0.0,0.0,0.0,0.0,0.0,0.0,0.0,0.0,0.0,0.0,0.0,0.0,0.0,0.0,0.0,0.0,0.0,0.0,0.0,0.0,0.0,0.0,0.0,0.0,0.0,0.0,0.0,0.0,0.0,0.0,0.0,0.0,0.0,0.0,0.0,0.0,0.0,0.0,0.0,0.0,0.0,0.0,0.0,0.0,0.0,0.0,0.0,0.0,0.0,0.0,0.0,0.0,0.0,0.0,0.0,0.0,0.0,0.0,0.0,0.0,0.0,0.0,0.0,0.0,0.0,0.0,0.0,0.0,0.0,0.0,-1.5432,-1.5256,-1.5005,0.0,0.0,0.0,0.0,0.0,0.0,0.0,0.0,0.0,0.0,0.0,0.0,0.0,0.0,0.0,0.0,0.0,0.0,0.0,0.0,0.0,0.0,0.0,0.0,0.0,0.0,0.0,0.0,0.0,0.0,0.0,0.0,0.0,0.0,0.0,0.0,0.0,0.0,0.0,0.0,0.0,0.0,0.0,0.0,0.0,0.0,0.0,0.0,0.0,0.0,0.0,0.0,0.0,0.0,0.0,0.0,0.0,0.0,0.0,0.0,0.0,0.0,0.0,0.0,0.0,0.0,0.0,0.0,0.0,0.0,0.0,0.0,0.0,0.0,0.0,0.0,0.0,0.0,0.0,0.0,0.0,0.0,0.0,0.0,0.0,0.0,0.0,0.0,0.0,0.0,0.0,0.0,0.0,0.0,0.0,0.0,0.0,0.0,0.0,0.0,0.0,0.0,0.0,0.0,0.0,0.0,0.0,0.0,0.0,0.0,-1.5555,-1.553,-1.5299,0.0,-1.4789,0.0,0.0,0.0,0.0,0.0,0.0,0.0,0.0,0.0,0.0,0.0,0.0,0.0,0.0,0.0,0.0,0.0,0.0,0.0,0.0,0.0,0.0,0.0,0.0,0.0,0.0,0.0,0.0,0.0,0.0,0.0,0.0,0.0,0.0,0.0,0.0,0.0,0.0,0.0,0.0,0.0,0.0,0.0,0.0,0.0,0.0,0.0,0.0,0.0,0.0,0.0,0.0,0.0,0.0,0.0,0.0,0.0,0.0,0.0,0.0,0.0,0.0,0.0,0.0,0.0,0.0,0.0,0.0,0.0,0.0,0.0,0.0,0.0,0.0,0.0,0.0,0.0,0.0,0.0,0.0,0.0,0.0,0.0,0.0,0.0,0.0,0.0,0.0,0.0,0.0,0.0,0.0,0.0,0.0,0.0,0.0,0.0,0.0,0.0,0.0,0.0,0.0,0.0,0.0,0.0,0.0,0.0,0.0,0.0,0.0,-1.5656,-1.5499,-1.5246,-1.498,0.0,0.0,0.0,0.0,0.0,0.0,0.0,0.0,0.0,0.0,0.0,0.0,0.0,0.0,0.0,0.0,0.0,0.0,0.0,0.0,0.0,0.0,0.0,0.0,0.0,0.0,0.0,0.0,0.0,0.0,0.0,0.0,0.0,0.0,0.0,0.0,0.0,0.0,0.0,0.0,0.0,0.0,0.0,0.0,0.0,0.0,0.0,0.0,0.0,0.0,0.0,0.0,0.0,0.0,0.0,0.0,0.0,0.0,0.0,0.0,0.0,0.0,0.0,0.0,0.0,0.0,0.0,0.0,0.0,0.0,0.0,0.0,0.0,0.0,0.0,0.0,0.0,0.0,0.0,0.0,0.0,0.0,0.0,0.0,0.0,0.0,0.0,0.0,0.0,0.0,0.0,0.0,0.0,0.0,0.0,0.0,0.0,0.0,0.0,0.0,0.0,0.0,0.0,0.0,0.0,0.0,0.0,0.0,0.0,0.0,-1.5885,-1.5801,-1.5608,-1.5354,-1.5125,-1.4944,0.0,0.0,0.0,0.0,0.0,0.0,0.0,0.0,0.0,0.0,0.0,0.0,0.0,0.0,0.0,0.0,0.0,0.0,0.0,0.0,0.0,0.0,0.0,0.0,0.0,0.0,0.0,0.0,0.0,0.0,0.0,0.0,0.0,0.0,0.0,0.0,0.0,0.0,0.0,0.0,0.0,0.0,0.0,0.0,0.0,0.0,0.0,0.0,0.0,0.0,0.0,0.0,0.0,0.0,0.0,0.0,0.0,0.0,0.0,0.0,0.0,0.0,0.0,0.0,0.0,0.0,0.0,0.0,0.0,0.0,0.0,0.0,0.0,0.0,0.0,0.0,0.0,0.0,0.0,0.0,0.0,0.0,0.0,0.0,0.0,0.0,0.0,0.0,0.0,0.0,0.0,0.0,0.0,0.0,0.0,0.0,0.0,0.0,0.0,0.0,0.0,0.0,0.0,0.0,0.0,0.0,0.0,0.0,-1.5885,-1.5885,-1.5885,-1.5861,-1.562,-1.5475,0.0,0.0,0.0,0.0,0.0,0.0,0.0,0.0,0.0,0.0,0.0,0.0,0.0,0.0,0.0,0.0,0.0,0.0,0.0,0.0,0.0,0.0,0.0,0.0,0.0,0.0,0.0,0.0,0.0,0.0,0.0,0.0,0.0,0.0,0.0,0.0,0.0,0.0,0.0,0.0,0.0,0.0,0.0,0.0,0.0,0.0,0.0,0.0,0.0,0.0,0.0,0.0,0.0,0.0,0.0,0.0,0.0,0.0,0.0,0.0,0.0,0.0,0.0,0.0,0.0,0.0,0.0,0.0,0.0,0.0,0.0,0.0,0.0,0.0,0.0,0.0,0.0,0.0,0.0,0.0,0.0,0.0,0.0,0.0,0.0,0.0,0.0,0.0,0.0,0.0,0.0,0.0,0.0,0.0,0.0,0.0,0.0,0.0,0.0,0.0,0.0,0.0,0.0,0.0,0.0,0.0,0.0,0.0,0.0,-1.5885,-1.5885,-1.5885,-1.5885,-1.5801,-1.5668,0.0,0.0,0.0,0.0,0.0,0.0,0.0,0.0,0.0,0.0,0.0,0.0,0.0,0.0,0.0,0.0,0.0,0.0,0.0,0.0,0.0,0.0,0.0,0.0,0.0,0.0,0.0,0.0,0.0,0.0,0.0,0.0,0.0,0.0,0.0,0.0,0.0,0.0,0.0,0.0,0.0,0.0,0.0,0.0,0.0,0.0,0.0,0.0,0.0,0.0,0.0,0.0,0.0,0.0,0.0,0.0,0.0,0.0,0.0,0.0,0.0,0.0,0.0,0.0,0.0,0.0,0.0,0.0,0.0,0.0,0.0,0.0,0.0,0.0,0.0,0.0,0.0,0.0,0.0,0.0,0.0,0.0,0.0,0.0,0.0,0.0,0.0,0.0,0.0,0.0,0.0,0.0,0.0,0.0,0.0,0.0,0.0,0.0,0.0,0.0,0.0,0.0,0.0,0.0,0.0,0.0,0.0,0.0,0.0,-1.5885,-1.5885,-1.5885,-1.5885,-1.5885,-1.5813,0.0,0.0,0.0,0.0,0.0,0.0,0.0,0.0,0.0,0.0,0.0,0.0,0.0,0.0,0.0,0.0,0.0,0.0,0.0,0.0,0.0,0.0,0.0,0.0,0.0,0.0,0.0,0.0,0.0,0.0,0.0,0.0,0.0,0.0,0.0,0.0,0.0,0.0,0.0,0.0,0.0,0.0,0.0,0.0,0.0,0.0,0.0,0.0,0.0,0.0,0.0,0.0,0.0,0.0,0.0,0.0,0.0,0.0,0.0,0.0,0.0,0.0,0.0,0.0,0.0,0.0,0.0,0.0,0.0,0.0,0.0,0.0,0.0,0.0,0.0,0.0,0.0,0.0,0.0,0.0,0.0,0.0,0.0,0.0,0.0,0.0,0.0,0.0,0.0,0.0,0.0,0.0,0.0,0.0,0.0,0.0,0.0,0.0,0.0,0.0,0.0,0.0,0.0,0.0,0.0,0.0,0.0,0.0,-1.591,-1.591,-1.5897,-1.5897,-1.5897,-1.5897,-1.5885,0.0,0.0,0.0,0.0,0.0,0.0,0.0,0.0,0.0,0.0,0.0,0.0,0.0,0.0,0.0,0.0,0.0,0.0,0.0,0.0,0.0,0.0,0.0,0.0,0.0,0.0,0.0,0.0,0.0,0.0,0.0,0.0,0.0,0.0,0.0,0.0,0.0,0.0,0.0,0.0,0.0,0.0,0.0,0.0,0.0,0.0,0.0,0.0,0.0,0.0,0.0,0.0,0.0,0.0,0.0,0.0,0.0,0.0,0.0,0.0,0.0,0.0,0.0,0.0,0.0,0.0,0.0,0.0,0.0,0.0,0.0,0.0,0.0,0.0,0.0,0.0,0.0,0.0,0.0,0.0,0.0,0.0,0.0,0.0,0.0,0.0,0.0,0.0,0.0,0.0,0.0,0.0,0.0,0.0,0.0,0.0,0.0,0.0,0.0,0.0,0.0,0.0,0.0,0.0,0.0,0.0,0.0,0.0,0.0,-1.6441,-1.6079,-1.597,-1.6151,-1.5982,-1.5885,0.0,0.0,0.0,0.0,0.0,0.0,0.0,0.0,0.0,0.0,0.0,0.0,0.0,0.0,0.0,0.0,0.0,0.0,0.0,0.0,0.0,0.0,0.0,0.0,0.0,0.0,0.0,0.0,0.0,0.0,0.0,0.0,0.0,0.0,0.0,0.0,0.0,0.0,0.0,0.0,0.0,0.0,0.0,0.0,0.0,0.0,0.0,0.0,0.0,0.0,0.0,0.0,0.0,0.0,0.0,0.0,0.0,0.0,0.0,0.0,0.0,0.0,0.0,0.0,0.0,0.0,0.0,0.0,0.0,0.0,0.0,0.0,0.0,0.0,0.0,0.0,0.0,0.0,0.0,0.0,0.0,0.0,0.0,0.0,0.0,0.0,0.0,0.0,0.0,0.0,0.0,0.0,0.0,0.0,0.0,0.0,0.0,0.0,0.0,0.0,0.0,0.0,0.0,0.0,0.0,0.0,0.0,0.0,0.0,-1.6972,-1.6465,-1.6272,-1.6441,-1.6175,-1.603,-1.603,0.0,0.0,0.0,0.0,0.0,0.0,0.0,0.0,0.0,0.0,0.0,0.0,0.0,0.0,0.0,0.0,0.0,0.0,0.0,0.0,0.0,0.0,0.0,0.0,0.0,0.0,0.0,0.0,0.0,0.0,0.0,0.0,0.0,0.0,0.0,0.0,0.0,0.0,0.0,0.0,0.0,0.0,0.0,0.0,0.0,0.0,0.0,0.0,0.0,0.0,0.0,0.0,0.0,0.0,0.0,0.0,0.0,0.0,0.0,0.0,0.0,0.0,0.0,0.0,0.0,0.0,0.0,0.0,0.0,0.0,0.0,0.0,0.0,0.0,0.0,0.0,0.0,0.0,0.0,0.0,0.0,0.0,0.0,0.0,0.0,0.0,0.0,0.0,0.0,0.0,0.0,0.0,0.0,0.0,0.0,0.0,0.0,0.0,0.0,0.0,0.0,0.0,0.0,0.0,0.0,0.0,0.0,0.0,-1.7479,-1.6996,-1.673,-1.6718,-1.6453,-1.6296,0.0,0.0,0.0,0.0,0.0,0.0,0.0,0.0,0.0,0.0,0.0,0.0,0.0,0.0,0.0,0.0,0.0,0.0,0.0,0.0,0.0,0.0,0.0,0.0,0.0,0.0,0.0,0.0,0.0,0.0,0.0,0.0,0.0,0.0,0.0,0.0,0.0,0.0,0.0,0.0,0.0,0.0,0.0,0.0,0.0,0.0,0.0,0.0,0.0,0.0,0.0,0.0,0.0,0.0,0.0,0.0,0.0,0.0,0.0,0.0,0.0,0.0,0.0,0.0,0.0,0.0,0.0,0.0,0.0,0.0,0.0,0.0,0.0,0.0,0.0,0.0,0.0,0.0,0.0,0.0,0.0,0.0,0.0,0.0,0.0,0.0,0.0,0.0,0.0,0.0,0.0,0.0,0.0,0.0,0.0,0.0,0.0,0.0,0.0,0.0,0.0,0.0,0.0,0.0,0.0,0.0,0.0,0.0,0.0,-1.7479,-1.7346,-1.7189,-1.6996,-1.673,-1.6489,0.0,0.0,0.0,0.0,0.0,0.0,0.0,0.0,0.0,0.0,0.0,0.0,0.0,0.0,0.0,0.0,0.0,0.0,0.0,0.0,0.0,0.0,0.0,0.0,0.0,0.0,0.0,0.0,0.0,0.0,0.0,0.0,0.0,0.0,0.0,0.0,0.0,0.0,0.0,0.0,0.0,0.0,0.0,0.0,0.0,0.0,0.0,0.0,0.0,0.0,0.0,0.0,0.0,0.0,0.0,0.0,0.0,0.0,0.0,0.0,0.0,0.0,0.0,0.0,0.0,0.0,0.0,0.0,0.0,0.0,0.0,0.0,0.0,0.0,0.0,0.0,0.0,0.0,0.0,0.0,0.0,0.0,0.0,0.0,0.0,0.0,0.0,0.0,0.0,0.0,0.0,0.0,0.0,0.0,0.0,0.0,0.0,0.0,0.0,0.0,0.0,0.0,0.0,0.0,0.0,0.0,0.0,0.0,-1.7877,-1.766,-1.7768,-1.7696,-1.743,-1.7056,-1.6791,0.0,0.0,0.0,0.0,0.0,0.0,0.0,0.0,0.0,0.0,0.0,0.0,0.0,0.0,0.0,0.0,0.0,0.0,0.0,0.0,0.0,0.0,0.0,0.0,0.0,0.0,0.0,0.0,0.0,0.0,0.0,0.0,0.0,0.0,0.0,0.0,0.0,0.0,0.0,0.0,0.0,0.0,0.0,0.0,0.0,0.0,0.0,0.0,0.0,0.0,0.0,0.0,0.0,0.0,0.0,0.0,0.0,0.0,0.0,0.0,0.0,0.0,0.0,0.0,0.0,0.0,0.0,0.0,0.0,0.0,0.0,0.0,0.0,0.0,0.0,0.0,0.0,0.0,0.0,0.0,0.0,0.0,0.0,0.0,0.0,0.0,0.0,0.0,0.0,0.0,0.0,0.0,0.0,0.0,0.0,0.0,0.0,0.0,0.0,0.0,0.0,0.0,0.0,0.0,0.0,0.0,0.0,0.0,-1.8372,-1.7925,-1.8167,-1.8179,-1.7913,-1.743,-1.7153,0.0,0.0,0.0,0.0,0.0,0.0,0.0,0.0,0.0,0.0,0.0,0.0,0.0,0.0,0.0,0.0,0.0,0.0,0.0,0.0,0.0,0.0,0.0,0.0,0.0,0.0,0.0,0.0,0.0,0.0,0.0,0.0,0.0,0.0,0.0,0.0,0.0,0.0,0.0,0.0,0.0,0.0,0.0,0.0,0.0,0.0,0.0,0.0,0.0,0.0,0.0,0.0,0.0,0.0,0.0,0.0,0.0,0.0,0.0,0.0,0.0,0.0,0.0,0.0,0.0,0.0,0.0,0.0,0.0,0.0,0.0,0.0,0.0,0.0,0.0,0.0,0.0,0.0,0.0,0.0,0.0,0.0,0.0,0.0,0.0,0.0,0.0,0.0,0.0,0.0,0.0,0.0,0.0,0.0,0.0,0.0,0.0,0.0,0.0,0.0,0.0,0.0,0.0,0.0,0.0,0.0,0.0,0.0,-1.8106,-1.8203,-1.8263,-1.8263,-1.8203,-1.7877,-1.7515,0.0,0.0,0.0,0.0,0.0,0.0,0.0,0.0,0.0,0.0,0.0,0.0,0.0,0.0,0.0,0.0,0.0,0.0,0.0,0.0,0.0,0.0,0.0,0.0,0.0,0.0,0.0,0.0,0.0,0.0,0.0,0.0,0.0,0.0,0.0,0.0,0.0,0.0,0.0,0.0,0.0,0.0,0.0,0.0,0.0,0.0,0.0,0.0,-1.8865,0.0,0.0,0.0,0.0,0.0,0.0,0.0,0.0,0.0,0.0,0.0,0.0,0.0,0.0,0.0,0.0,0.0,0.0,0.0,0.0,0.0,0.0,0.0,0.0,0.0,0.0,0.0,0.0,0.0,0.0,0.0,0.0,0.0,0.0,0.0,0.0,0.0,0.0,0.0,0.0,0.0,0.0,0.0,0.0,0.0,0.0,0.0,0.0,0.0,0.0,0.0,0.0,0.0,0.0,0.0,0.0,0.0,0.0,0.0,-1.8444,-1.8481,-1.8601,-1.8601,-1.8481,-1.8215,-1.7877,0.0,0.0,0.0,0.0,0.0,0.0,0.0,0.0,0.0,0.0,0.0,0.0,0.0,0.0,0.0,0.0,0.0,0.0,0.0,0.0,0.0,0.0,0.0,0.0,0.0,0.0,0.0,0.0,0.0,0.0,0.0,0.0,0.0,0.0,0.0,0.0,0.0,0.0,0.0,0.0,0.0,0.0,0.0,0.0,0.0,0.0,0.0,0.0,0.0,0.0,0.0,0.0,0.0,0.0,0.0,0.0,0.0,0.0,0.0,0.0,0.0,0.0,0.0,0.0,0.0,0.0,0.0,0.0,0.0,0.0,0.0,0.0,0.0,0.0,0.0,0.0,0.0,0.0,0.0,0.0,0.0,0.0,0.0,0.0,0.0,0.0,0.0,0.0,0.0,0.0,0.0,0.0,0.0,0.0,0.0,0.0,0.0,0.0,0.0,0.0,0.0,0.0,0.0,0.0,0.0,0.0,0.0,-1.871,-1.8988,-1.8819,-1.906,-1.9072,-1.8807,-1.8553,-1.8263,-1.795,0.0,0.0,0.0,0.0,0.0,0.0,0.0,0.0,0.0,0.0,0.0,0.0,0.0,0.0,0.0,0.0,0.0,0.0,0.0,0.0,0.0,0.0,0.0,0.0,0.0,0.0,0.0,0.0,0.0,0.0,0.0,0.0,0.0,0.0,0.0,0.0,0.0,0.0,-1.8237,-1.8677,0.0,0.0,0.0,0.0,0.0,0.0,0.0,0.0,-1.9372,0.0,0.0,0.0,0.0,0.0,0.0,0.0,0.0,0.0,0.0,0.0,0.0,0.0,0.0,0.0,0.0,0.0,0.0,0.0,0.0,0.0,0.0,0.0,0.0,0.0,0.0,0.0,0.0,0.0,0.0,0.0,0.0,0.0,0.0,0.0,0.0,0.0,0.0,0.0,0.0,0.0,0.0,0.0,0.0,0.0,0.0,0.0,0.0,0.0,0.0,0.0,0.0,0.0,0.0,0.0,0.0,-1.8541,-1.8891,-1.9157,-1.9338,-1.9603,-1.9615,-1.935,-1.9084,-1.8722,-1.8239,0.0,0.0,0.0,0.0,0.0,0.0,0.0,0.0,0.0,0.0,0.0,0.0,0.0,0.0,0.0,0.0,0.0,0.0,0.0,0.0,0.0,0.0,0.0,0.0,0.0,0.0,0.0,0.0,0.0,0.0,0.0,0.0,0.0,0.0,0.0,0.0,0.0,0.0,0.0,-1.9239,-1.9319,0.0,0.0,0.0,0.0,0.0,0.0,0.0,0.0,-1.9332,0.0,0.0,0.0,0.0,0.0,0.0,0.0,0.0,0.0,0.0,0.0,0.0,0.0,0.0,0.0,0.0,0.0,0.0,0.0,0.0,0.0,0.0,0.0,0.0,0.0,0.0,0.0,0.0,0.0,0.0,0.0,0.0,0.0,0.0,0.0,0.0,0.0,0.0,0.0,0.0,0.0,0.0,0.0,0.0,0.0,0.0,0.0,0.0,0.0,0.0,0.0,0.0,0.0,0.0,0.0,-1.8867,-1.9145,-1.941,-1.9676,-1.982,-1.982,-1.9688,-1.9289,-1.8951,0.0,0.0,0.0,0.0,0.0,0.0,0.0,0.0,0.0,0.0,0.0,0.0,0.0,0.0,0.0,0.0,0.0,0.0,0.0,0.0,0.0,0.0,0.0,0.0,0.0,0.0,0.0,0.0,0.0,0.0,0.0,0.0,0.0,0.0,0.0,0.0,0.0,0.0,0.0,0.0,-1.9372,-1.9426,-1.9573,0.0,0.0,0.0,0.0,0.0,0.0,-1.9599,-1.9533,0.0,0.0,0.0,0.0,0.0,0.0,0.0,0.0,0.0,0.0,0.0,0.0,0.0,0.0,0.0,0.0,0.0,0.0,0.0,0.0,0.0,0.0,0.0,0.0,0.0,0.0,0.0,0.0,0.0,0.0,0.0,0.0,0.0,0.0,0.0,0.0,0.0,0.0,0.0,0.0,0.0,0.0,0.0,0.0,0.0,0.0,0.0,0.0,0.0,0.0,0.0,0.0,0.0,0.0,0.0,-1.9145,-1.947,-1.9736,-1.9953,-2.0026,-2.0026,-1.9953,-1.9543,-1.9241,0.0,0.0,0.0,0.0,0.0,0.0,0.0,0.0,0.0,0.0,0.0,0.0,0.0,0.0,0.0,0.0,0.0,0.0,0.0,0.0,0.0,0.0,0.0,0.0,0.0,0.0,0.0,0.0,0.0,0.0,0.0,0.0,0.0,0.0,0.0,0.0,0.0,0.0,0.0,0.0,0.0,-1.9546,-1.9773,-1.9907,0.0,0.0,0.0,0.0,-1.9933,-1.9893,0.0,0.0,0.0,0.0,0.0,0.0,0.0,0.0,0.0,0.0,0.0,0.0,0.0,0.0,0.0,0.0,0.0,0.0,0.0,0.0,0.0,0.0,0.0,0.0,0.0,0.0,0.0,0.0,0.0,0.0,0.0,0.0,0.0,0.0,0.0,0.0,0.0,0.0,0.0,0.0,0.0,0.0,0.0,0.0,0.0,0.0,0.0,0.0,0.0,0.0,0.0,0.0,0.0,0.0,0.0,0.0,-1.9422,-1.9929,-2.0195,-2.0243,-2.046,-2.0472,-2.0243,-2.0171,-1.9808,0.0,0.0,0.0,0.0,0.0,0.0,0.0,0.0,0.0,0.0,0.0,0.0,0.0,0.0,0.0,0.0,0.0,0.0,0.0,0.0,0.0,0.0,0.0,0.0,0.0,0.0,0.0,0.0,0.0,0.0,0.0,0.0,0.0,0.0,0.0,0.0,0.0,0.0,0.0,0.0,0.0,-1.976,-1.98,-2.0241,-2.0494,0.0,0.0,-2.0521,-2.0227,-2.0187,0.0,0.0,0.0,0.0,0.0,0.0,0.0,0.0,0.0,0.0,0.0,0.0,0.0,0.0,0.0,0.0,0.0,0.0,0.0,0.0,0.0,0.0,0.0,0.0,0.0,0.0,0.0,0.0,0.0,0.0,0.0,0.0,0.0,0.0,0.0,0.0,0.0,0.0,0.0,0.0,0.0,0.0,0.0,0.0,0.0,0.0,0.0,0.0,0.0,0.0,0.0,0.0,0.0,0.0,0.0,-1.9277,-1.97,-2.0086,-2.0352,-2.0496,-2.0605,-2.0617,-2.0496,-2.0352,-2.011,0.0,0.0,0.0,0.0,0.0,0.0,0.0,0.0,0.0,0.0,0.0,0.0,0.0,0.0,0.0,0.0,0.0,0.0,0.0,0.0,0.0,0.0,0.0,0.0,0.0,0.0,0.0,0.0,0.0,0.0,0.0,0.0,0.0,0.0,0.0,0.0,0.0,0.0,0.0,0.0,0.0,0.0,-2.0494,-2.0762,0.0,0.0,0.0,-2.1323,-2.1029,0.0,0.0,0.0,0.0,0.0,0.0,0.0,0.0,0.0,0.0,0.0,0.0,0.0,0.0,0.0,0.0,0.0,0.0,0.0,0.0,0.0,0.0,0.0,0.0,0.0,0.0,0.0,0.0,0.0,0.0,0.0,0.0,0.0,0.0,0.0,0.0,0.0,0.0,0.0,0.0,0.0,0.0,0.0,0.0,0.0,0.0,0.0,0.0,0.0,0.0,0.0,0.0,0.0,0.0,0.0,0.0,0.0,-1.9977,-2.0243,-2.0472,-2.0665,-2.0665,-2.0665,-2.0665,-2.0472,0.0,0.0,0.0,0.0,0.0,0.0,0.0,0.0,0.0,0.0,0.0,0.0,0.0,0.0,0.0,0.0,0.0,0.0,0.0,0.0,0.0,0.0,0.0,0.0,0.0,0.0,0.0,-1.5577,0.0,0.0,0.0,0.0,0.0,0.0,0.0,0.0,0.0,0.0,0.0,0.0,0.0,0.0,-2.0641,-2.1149,-2.1349,-2.1563,0.0,0.0,-2.1991,-2.171,-2.1657,-2.1577,0.0,0.0,0.0,0.0,0.0,0.0,0.0,0.0,0.0,0.0,0.0,0.0,0.0,0.0,0.0,0.0,0.0,0.0,0.0,0.0,0.0,0.0,0.0,0.0,0.0,0.0,0.0,0.0,0.0,0.0,0.0,0.0,0.0,0.0,0.0,0.0,0.0,0.0,0.0,0.0,0.0,0.0,0.0,0.0,0.0,0.0,0.0,0.0,0.0,0.0,0.0,0.0,0.0,0.0,0.0,-2.0243,-2.0509,-2.0653,-2.0665,-2.0665,-2.0665,-2.0665,-2.0653,-2.0533,0.0,0.0,0.0,0.0,0.0,0.0,0.0,0.0,0.0,0.0,0.0,0.0,0.0,0.0,0.0,0.0,0.0,0.0,0.0,0.0,0.0,0.0,0.0,0.0,0.0,0.0,0.0,0.0,0.0,0.0,0.0,0.0,0.0,0.0,0.0,0.0,0.0,0.0,0.0,0.0,0.0,-2.1162,-2.1483,-2.1991,-2.2245,0.0,0.0,-2.2285,-2.2004,-2.1964,-2.1951,-2.1924,0.0,0.0,0.0,0.0,0.0,0.0,0.0,0.0,0.0,0.0,0.0,0.0,0.0,0.0,0.0,0.0,0.0,0.0,0.0,0.0,0.0,0.0,0.0,0.0,0.0,0.0,0.0,0.0,0.0,0.0,0.0,0.0,0.0,0.0,0.0,0.0,0.0,0.0,0.0,0.0,0.0,0.0,0.0,0.0,0.0,0.0,0.0,0.0,0.0,0.0,0.0,0.0,0.0,-1.9197,-2.0279,-2.0533,-2.075,-2.0907,-2.0907,-2.0907,-2.0907,-2.0907,-2.0786,0.0,0.0,0.0,0.0,0.0,0.0,0.0,0.0,0.0,0.0,0.0,0.0,0.0,0.0,0.0,0.0,0.0,0.0,0.0,0.0,0.0,0.0,0.0,0.0,0.0,0.0,0.0,0.0,-1.6356,-1.6886,-1.7556,0.0,0.0,0.0,0.0,0.0,0.0,0.0,0.0,0.0,0.0,-2.175,-2.2044,-2.2285,0.0,0.0,-2.2619,-2.2659,-2.2552,-2.2525,-2.2525,-2.2525,-2.2378,0.0,0.0,0.0,0.0,0.0,0.0,0.0,0.0,0.0,0.0,0.0,0.0,0.0,0.0,0.0,0.0,0.0,0.0,0.0,0.0,0.0,0.0,0.0,0.0,0.0,0.0,0.0,0.0,0.0,0.0,0.0,0.0,0.0,0.0,0.0,0.0,0.0,0.0,0.0,0.0,0.0,0.0,0.0,0.0,0.0,0.0,0.0,0.0,0.0,0.0,0.0,0.0,-1.8887,-2.0509,-2.0774,-2.1003,-2.1185,-2.1185,-2.1185,-2.1185,-2.1185,-2.1064,0.0,0.0,0.0,0.0,0.0,0.0,0.0,0.0,0.0,0.0,0.0,0.0,0.0,0.0,0.0,0.0,0.0,0.0,0.0,0.0,0.0,0.0,0.0,0.0,0.0,0.0,0.0,0.0,-1.6858,-1.7316,-1.8031,0.0,0.0,0.0,0.0,0.0,0.0,0.0,0.0,0.0,0.0,-2.2218,-2.2498,-2.2552,-2.2632,-2.2832,-2.2859,-2.2859,-2.2859,-2.2859,-2.2859,-2.2859,0.0,0.0,0.0,0.0,0.0,0.0,0.0,0.0,0.0,0.0,0.0,0.0,0.0,0.0,0.0,0.0,0.0,0.0,0.0,0.0,0.0,0.0,0.0,0.0,0.0,0.0,0.0,0.0,0.0,0.0,-0.9401,0.0,0.0,0.0,0.0,0.0,0.0,0.0,0.0,0.0,0.0,0.0,0.0,0.0,0.0,0.0,0.0,0.0,0.0,0.0,0.0,0.0,0.0,-1.9223,-2.104,-2.115,-2.145,-2.1474,-2.1474,-2.1474,-2.1474,-2.1474,-2.1341,-2.1052,0.0,0.0,0.0,0.0,0.0,0.0,0.0,0.0,0.0,0.0,0.0,0.0,0.0,0.0,0.0,0.0,0.0,0.0,0.0,0.0,0.0,0.0,0.0,0.0,0.0,0.0,-1.6683,-1.7495,-1.8112,0.0,0.0,0.0,0.0,0.0,0.0,0.0,0.0,0.0,0.0,-2.2405,-2.2525,-2.2806,-2.2846,-2.2846,-2.2859,-2.2859,-2.2859,-2.2859,-2.2859,-2.2859,0.0,0.0,0.0,0.0,0.0,0.0,0.0,0.0,0.0,0.0,0.0,0.0,0.0,0.0,0.0,0.0,0.0,0.0,0.0,0.0,0.0,0.0,0.0,0.0,0.0,0.0,0.0,-0.9978,-0.9854,0.0,0.0,0.0,0.0,0.0,0.0,0.0,0.0,0.0,0.0,0.0,-1.586,-1.6267,0.0,0.0,0.0,0.0,0.0,0.0,0.0,0.0,0.0,0.0,0.0,0.0,-1.6453,-1.7969,-1.8196,-1.8309,-1.8453,-1.9496,-2.0094,-2.0094,-2.1143,-2.1523,-2.1076,0.0,0.0,0.0,0.0,0.0,0.0,0.0,0.0,0.0,0.0,0.0,0.0,0.0,0.0,0.0,0.0,0.0,0.0,0.0,0.0,0.0,0.0,0.0,0.0,0.0,-1.6759,0.0,0.0,0.0,0.0,0.0,0.0,0.0,0.0,0.0,0.0,0.0,-2.1871,-2.2365,-2.2592,-2.2752,-2.2846,-2.2859,-2.2859,0.0,0.0,0.0,0.0,0.0,0.0,0.0,0.0,0.0,0.0,0.0,0.0,0.0,0.0,-3.0301,-2.8765,-2.9151,-2.9782,-2.9782,0.0,0.0,0.0,0.0,0.0,0.0,0.0,0.0,0.0,0.0,0.0,0.0,0.0,0.0,-1.0303,0.0,-1.0432,0.0,0.0,0.0,0.0,0.0,0.0,0.0,0.0,-1.2767,-1.4078,-1.4928,-1.5211,-1.6529,0.0,-1.7093,-1.6708,0.0,0.0,0.0,0.0,0.0,0.0,0.0,0.0,-1.5129,-1.673,-1.6871,-1.7011,-1.7284,-1.8874,-1.9639,-1.9714,-2.1059,-2.1704,-2.1354,-2.0991,-2.0678,0.0,0.0,0.0,0.0,0.0,0.0,0.0,0.0,0.0,0.0,0.0,0.0,0.0,0.0,0.0,0.0,0.0,0.0,0.0,0.0,0.0,0.0,0.0,-1.7475,0.0,0.0,0.0,0.0,0.0,0.0,0.0,0.0,0.0,-2.1857,-2.2017,-2.2245,-2.2539,-2.2739,-2.2859,-2.2859,0.0,0.0,0.0,0.0,0.0,0.0,0.0,-2.2859,-2.2859,-2.2859,-2.2996,-2.3529,-2.5517,-2.7254,-2.7784,0.0,0.0,-2.9542,-3.0086,-3.0607,-3.0607,-3.0607,-3.0607,-3.0607,-3.0607,-3.0607,0.0,0.0,0.0,0.0,0.0,0.0,0.0,0.0,-1.0792,-1.0598,0.0,-1.0598,0.0,0.0,0.0,0.0,0.0,-1.1111,0.0,0.0,-1.1344,-1.2095,-1.3636,-1.2255,-1.3255,-1.6155,-1.4873,-1.5104,-1.6543,-1.5672,0.0,0.0,0.0,0.0,0.0,0.0,-1.5445,-1.6814,-1.7186,-1.7545,-1.7554,-1.946,-2.0248,-2.0177,-2.1268,-2.1909,-2.186,-2.1378,-2.0979,-2.0714,-2.0424,0.0,0.0,0.0,0.0,0.0,0.0,0.0,0.0,0.0,0.0,0.0,0.0,0.0,0.0,0.0,0.0,0.0,0.0,0.0,0.0,-1.801,0.0,0.0,0.0,0.0,0.0,0.0,0.0,0.0,0.0,0.0,-2.2418,-2.2432,-2.2539,-2.2832,0.0,0.0,0.0,0.0,-2.2859,-2.2886,-2.2873,-2.2859,-2.2859,-2.2859,-2.2859,-2.2859,0.0,0.0,-2.4738,-2.6054,-2.7519,-2.9003,-3.0325,-3.1377,-3.1359,-3.1322,-3.1341,-3.1341,-3.1322,-3.1359,-3.1359,-3.1286,-3.1322,-1.1552,0.0,0.0,0.0,0.0,-1.1118,-1.1104,-1.1097,-1.1056,-1.1036,-1.1036,-1.1036,0.0,0.0,0.0,0.0,0.0,0.0,-1.1599,-1.1796,-1.1803,-1.2692,-1.4035,-1.3743,-1.4521,-1.6387,-1.4922,-1.4506,-1.4982,-1.3629,-1.3413,-1.4188,0.0,0.0,0.0,0.0,-1.3414,-1.3989,-1.5442,-1.6188,-1.6188,-1.9083,-2.1124,-2.214,-2.2625,-2.2524,-2.2162,-2.1993,-2.1716,-2.1257,-2.081,0.0,0.0,0.0,0.0,0.0,0.0,0.0,0.0,0.0,0.0,0.0,0.0,0.0,0.0,0.0,0.0,0.0,0.0,0.0,-1.8601,-1.8927,-1.9157,0.0,0.0,0.0,0.0,0.0,0.0,0.0,0.0,0.0,-2.2739,-2.2739,-2.2846,0.0,0.0,-2.302,-2.3447,-2.314,-2.2939,-2.3166,-2.3006,0.0,-2.2859,-2.2859,-2.2859,-2.2859,-2.2859,-2.2996,-2.3393,-2.5517,-2.7254,-2.7652,-2.977,-3.1377,-3.1377,-3.1377,-3.1377,-3.1377,-3.1377,-3.1377,-3.1377,-3.1377,-3.1377,-1.1997,-1.1518,-1.1518,-1.1518,-1.1518,-1.1518,-1.1518,-1.1518,-1.1518,-1.1518,-1.1368,-1.1518,-1.166,-1.181,-1.166,0.0,0.0,0.0,-1.1891,-1.206,-1.206,-1.265,-1.3378,-1.3378,-1.3901,-1.4919,-1.4026,-1.3945,-1.4686,-1.3173,-1.3326,-1.483,0.0,0.0,-1.2461,-1.261,-1.2732,-1.282,-1.4076,-1.4632,-1.4632,-1.7172,-1.9401,-2.1133,-2.1045,-2.1167,-2.1498,-2.1291,-2.1347,-2.18,-2.1281,-2.0895,0.0,0.0,0.0,0.0,0.0,0.0,0.0,0.0,0.0,0.0,0.0,-1.7853,-1.8167,0.0,0.0,0.0,-1.9193,-1.9229,-1.9386,-1.9627,0.0,0.0,0.0,0.0,0.0,0.0,0.0,-2.168,-2.2238,-2.2585,-2.2859,-2.2859,-2.2939,-2.3113,-2.2979,-2.2993,-2.3354,0.0,-2.2926,-2.3113,-2.3086,-2.3046,-2.3046,-2.314,-2.3193,-2.306,-2.2939,-2.3393,-2.4467,-2.6054,-2.7519,-2.8706,-3.0178,-3.1377,-3.1377,-3.1377,-3.1377,-3.1377,-3.1377,-3.1377,-3.1377,-3.1377,-3.1377,-1.2442,-1.2135,-1.2135,-1.2108,-1.206,-1.206,-1.206,-1.206,-1.2054,-1.1904,-1.1599,-1.1904,-1.206,-1.206,-1.206,0.0,-1.2101,-1.2094,-1.2115,-1.2135,-1.2135,-1.2135,-1.2135,-1.2135,-1.2277,-1.2542,-1.2535,-1.3454,-1.4995,-1.3742,-1.3756,-1.5186,-1.3476,-1.2617,-1.2752,-1.2901,-1.2976,-1.2976,-1.3288,-1.354,-1.3711,-1.5155,-1.6589,-1.8201,-1.8154,-1.8828,-2.0377,-2.0124,-2.0642,-2.2307,-2.1824,-2.1317,-2.0834,0.0,0.0,0.0,0.0,0.0,0.0,0.0,0.0,0.0,0.0,0.0,0.0,0.0,0.0,0.0,-1.9796,0.0,-1.9953,-2.0171,0.0,0.0,0.0,-2.0804,-2.1069,-2.0943,-2.1081,-2.2173,0.0,0.0,-2.2722,-2.2859,-2.2873,-2.2899,-2.2873,-2.2886,-2.2953,-2.2979,-2.2953,-2.3073,-2.326,-2.3434,-2.35,-2.3674,-2.3754,-2.3514,-2.3332,-2.4285,-2.6433,-2.7493,-2.8643,-3.0722,-3.1431,-3.1561,-3.1543,-3.1579,-3.1469,-3.1506,-3.1433,-3.1377,-3.1377,-3.1377,-3.1377,-1.291,-1.2745,-1.2745,-1.2481,-1.206,-1.206,-1.206,-1.206,-1.206,-1.206,-1.206,-1.206,-1.206,-1.206,-1.206,-1.2189,-1.2393,-1.24,-1.2522,-1.2745,-1.2745,-1.2752,-1.2752,-1.2752,-1.2786,-1.2847,-1.2854,-1.3207,-1.3596,-1.3116,-1.3178,-1.376,-1.3205,-1.2976,-1.2915,-1.3051,-1.3125,-1.3125,-1.4683,-1.6219,-1.768,-1.7879,-1.8302,-1.8622,-1.9725,-2.0485,-2.0791,-2.1794,-2.2591,-2.285,-2.2355,-2.2017,-2.1897,-2.151,0.0,0.0,0.0,0.0,0.0,0.0,0.0,0.0,0.0,-1.9374,-1.9591,0.0,-1.9881,0.0,-2.0436,-2.0484,-2.0484,-2.0533,0.0,0.0,-2.0629,-2.0665,-2.0804,-2.0943,-2.1358,-2.1897,-2.1897,-2.2035,-2.2448,-2.2448,-2.2526,-2.2736,-2.2868,-2.31,-2.3754,-2.3688,-2.3714,-2.4102,-2.4249,-2.4329,-2.4315,-2.4382,-2.4396,-2.4342,-2.5249,-2.6343,-2.7027,-2.9131,-3.0821,-3.1513,-3.2277,-3.2673,-3.2771,-3.2533,-3.2313,-3.2258,-3.1818,-3.1377,-3.1377,-3.1377,-3.1377,-1.3123,-1.2963,-1.2963,-1.2766,-1.2461,-1.2461,-1.2461,-1.2461,-1.2461,-1.2461,-1.23,-1.2461,-1.2461,-1.2467,-1.2461,-1.2549,-1.2705,-1.2705,-1.28,-1.2956,-1.2963,-1.2963,-1.2963,-1.2963,-1.2996,-1.3051,-1.3057,-1.3125,-1.3254,-1.3261,-1.3329,-1.3464,-1.3471,-1.3431,-1.3356,-1.337,-1.3403,-1.3471,-1.463,-1.5601,-1.6705,-1.6615,-1.6566,-1.6566,-1.8293,-1.9453,-1.9897,-2.1574,-2.2688,-2.3237,-2.2826,-2.25,-2.2271,-2.1981,-2.1655,0.0,0.0,0.0,0.0,0.0,0.0,0.0,0.0,0.0,0.0,0.0,-2.0352,-2.0641,-2.0665,-2.0665,-2.0665,-2.0665,-2.0665,-2.0665,-2.0665,-2.0665,-2.0665,-2.0804,-2.1081,-2.1484,-2.1597,-2.2001,-2.2549,-2.2806,-2.3001,-2.3275,-2.3469,-2.3781,-2.4115,-2.4168,-2.4275,-2.4583,-2.4743,-2.489,-2.4997,-2.4917,-2.4836,-2.4823,-2.5442,-2.6357,-2.7795,-2.9361,-3.0926,-3.2351,-3.3062,-3.3486,-3.3468,-3.3321,-3.3138,-3.3083,-3.2771,-3.2349,-3.2001,-3.1928,-3.1909,-1.336,-1.3051,-1.3044,-1.3057,-1.3071,-1.3078,-1.303,-1.2963,-1.2963,-1.2795,-1.2628,-1.2956,-1.2963,-1.2963,-1.2963,-1.2969,-1.299,-1.299,-1.2996,-1.3017,-1.3037,-1.3044,-1.3051,-1.3064,-1.3139,-1.3254,-1.3254,-1.3397,-1.3648,-1.3654,-1.3715,-1.3838,-1.3838,-1.3851,-1.3865,-1.3749,-1.3743,-1.3865,-1.3871,-1.3878,-1.3899,-1.3878,-1.3865,-1.4208,-1.605,-1.7643,-1.9151,-2.0763,-2.2189,-2.3404,-2.3285,-2.2923,-2.2452,-2.238,-2.2126,0.0,-2.1583,0.0,0.0,0.0,0.0,0.0,0.0,0.0,0.0,-2.0557,-2.0665,-2.0665,-2.0665,-2.0665,-2.0665,-2.0665,-2.0665,-2.0665,-2.0665,-2.0678,-2.0714,-2.075,-2.0926,-2.1368,-2.1604,-2.2162,-2.2988,-2.3378,-2.3624,-2.3857,-2.4232,-2.4515,-2.4516,-2.4636,-2.477,-2.4783,-2.505,-2.5398,-2.5558,-2.5424,-2.5277,-2.5237,-2.5841,-2.6305,-2.9132,-2.997,-3.1103,-3.3426,-3.4165,-3.4092,-3.4037,-3.4018,-3.3963,-3.3963,-3.3927,-3.3651,-3.2973,-3.2753,-3.2753,-1.339,-1.3498,-1.3505,-1.3566,-1.3675,-1.3675,-1.3403,-1.2963,-1.2963,-1.2956,-1.2956,-1.2963,-1.3123,-1.2963,-1.2963,-1.3024,-1.3132,-1.3132,-1.32,-1.3322,-1.3444,-1.3505,-1.3512,-1.362,-1.3688,-1.3715,-1.3715,-1.3743,-1.3797,-1.3797,-1.3817,-1.3838,-1.3838,-1.3905,-1.4021,0.0,0.0,0.0,-1.4027,-1.4089,-1.4204,-1.4089,-1.4707,-1.6246,-1.7809,0.0,-2.1368,-2.2996,-2.402,-2.4094,-2.384,0.0,0.0,0.0,0.0,0.0,0.0,0.0,0.0,0.0,0.0,0.0,-2.1281,-2.116,-2.0931,-2.0762,-2.0665,-2.0665,-2.0665,-2.0665,-2.0665,-2.0665,-2.0665,-2.0665,-2.0665,-2.075,-2.0955,-2.1185,-2.1545,-2.2054,-2.2459,-2.2633,-2.283,-2.3189,-2.3638,-2.3932,-2.4441,-2.5106,-2.5585,-2.5438,-2.5438,-2.5665,-2.5892,-2.6132,-2.6213,-2.6146,-2.6052,-2.6445,-2.8549,-2.996,-3.0823,-3.3106,-3.4658,-3.5687,-3.5485,-3.5247,-3.5247,-3.5027,-3.4788,-3.4807,-3.4807,-3.455,-3.3762,-3.3596,-3.3578,-1.3661,0.0,-1.3736,-1.3777,0.0,-1.3838,-1.3668,-1.3397,-1.3397,-1.3397,-1.3397,-1.3562,-1.3562,-1.3397,-1.3397,-1.3431,-1.3505,-1.3505,-1.3546,-1.362,-1.3695,-1.3736,-1.3736,-1.381,-1.3838,-1.3838,-1.3838,-1.3878,-1.3953,-1.3953,-1.3994,-1.4068,-1.4068,-1.4109,-1.4183,-1.4183,-1.4183,-1.4183,-1.4183,-1.4224,-1.4292,-1.4224,-1.4703,-1.557,-1.8242,0.0,0.0,0.0,0.0,0.0,0.0,0.0,0.0,0.0,0.0,-2.2681,-2.2645,-2.2524,-2.2271,-2.2138,-2.2054,-2.2054,-2.1824,-2.1559,-2.1293,-2.1148,-2.1064,-2.1064,-2.1076,-2.1064,-2.1076,-2.1076,-2.1124,-2.1245,-2.1257,-2.1366,-2.1607,-2.1776,-2.2056,-2.235,-2.2594,-2.2953,-2.324,-2.3529,-2.3869,-2.4443,-2.4907,-2.5518,-2.5806,-2.5883,-2.6012,-2.6146,-2.6279,-2.6386,-2.64,-2.64,-2.64,-2.6702,-2.7776,-2.9464,-3.0993,-3.2674,-3.4203,-3.5736,-3.6036,-3.5907,-3.5889,-3.5742,-3.5614,-3.5614,-3.5614,-3.5504,-3.5045,-3.4697,-3.4422,-1.3858,-1.3878,-1.3885,-1.3899,-1.3919,-1.3919,-1.3919,-1.3919,0.0,0.0,0.0,-1.3844,-1.3844,-1.3838,-1.3838,-1.3838,-1.3838,-1.3838,-1.3838,-1.3844,-1.3871,-1.3885,-1.3885,-1.3905,-1.3919,-1.3919,-1.3926,-1.3987,-1.4109,-1.4109,-1.4177,-1.4292,-1.4326,-1.4353,-1.4373,-1.438,-1.438,-1.4373,-1.4353,-1.4353,-1.438,-1.438,-1.4544,-1.4864,-1.7831,-1.9653,-2.0123,-2.2873,-2.4639,-2.4721,-2.4492,-2.4263,-2.3997,-2.3731,-2.3466,-2.3212,-2.314,-2.3092,-2.3043,-2.285,-2.2718,-2.2718,-2.2319,-2.1909,-2.151,-2.1474,-2.1498,-2.1547,-2.1547,-2.1571,-2.1607,-2.1619,-2.1704,-2.1921,-2.1945,-2.2029,-2.2283,-2.238,-2.2428,-2.2476,-2.2882,-2.3255,-2.3618,-2.3984,-2.4377,-2.4895,-2.5225,-2.5753,-2.5753,-2.6188,-2.6346,-2.636,-2.6386,-2.64,-2.64,-2.64,-2.64,-2.6386,-2.6702,-2.7919,-3.0377,-3.1606,-3.2994,-3.5754,-3.6201,-3.6182,-3.6201,-3.6164,-3.6201,-3.6201,-3.6201,-3.6201,-3.6146,-3.5705,-3.5265,-1.4098,-1.4041,-1.4041,-1.4116,-1.4238,-1.4238,-1.4238,-1.4211,-1.396,-1.3838,-1.3838,-1.3838,-1.3838,-1.3838,-1.3838,-1.3838,-1.3838,-1.3838,-1.3838,-1.3844,-1.398,-1.4041,-1.4048,-1.4177,-1.4238,-1.4231,-1.4231,-1.4245,-1.4265,-1.4272,-1.4278,-1.4312,-1.4421,-1.455,-1.4665,-1.4679,-1.4679,-1.4672,-1.455,-1.4543,-1.4672,-1.4679,-1.5326,-1.6789,-1.7307,-1.9156,-2.2084,-2.26,-2.3528,-2.4831,-2.4951,-2.4806,-2.4528,-2.4263,-2.4009,-2.3744,-2.3526,-2.3297,-2.3068,-2.3007,-2.2983,-2.2983,-2.2923,-2.2488,-2.1583,-2.1474,-2.1571,-2.1788,-2.1836,-2.1909,-2.2114,-2.215,-2.2174,-2.2223,-2.2223,-2.2319,-2.2597,-2.2814,-2.3007,-2.3225,-2.383,-2.3977,-2.383,-2.4062,-2.4577,-2.4958,-2.4945,-2.4945,-2.5727,-2.607,-2.6386,-2.64,-2.64,-2.64,-2.64,-2.64,-2.64,-2.64,-2.7462,-2.8856,-3.0993,-3.2217,-3.3751,-3.5903,-3.6201,-3.6201,-3.6201,-3.6201,-3.6201,-3.6201,-3.6201,-3.6201,-3.6201,-3.6054,-3.5999,-1.4311,-1.419,-1.4197,-1.4238,-1.4299,-1.4299,-1.4299,-1.4285,-1.415,-1.4089,-1.4089,-1.4089,-1.4089,-1.4089,-1.4089,-1.4089,-1.4089,-1.4089,-1.4089,-1.4095,-1.4163,-1.4197,-1.4204,-1.4265,-1.4299,-1.4306,-1.438,-1.4414,-1.4421,-1.4496,-1.4536,-1.4543,-1.4604,-1.4672,-1.4733,-1.474,-1.478,-1.4862,-1.4713,-1.4672,-1.4733,-1.474,-1.5063,-1.5889,-1.6775,-1.8644,-2.1084,-2.2131,-2.3593,-2.5095,-2.512,-2.4987,-2.4854,-2.4601,-2.4395,-2.4263,-2.4021,-2.3828,-2.3695,-2.343,-2.32,-2.3056,-2.3043,-2.285,-2.238,-2.2331,-2.238,-2.2488,-2.2512,-2.2549,-2.2669,-2.2693,-2.2742,-2.2899,-2.2911,-2.3019,-2.3249,-2.3393,-2.3526,-2.3647,-2.3927,-2.4,-2.384,-2.4,-2.4332,-2.4639,-2.4857,-2.5059,-2.5505,-2.57,-2.6039,-2.6319,-2.64,-2.64,-2.6386,-2.64,-2.64,-2.64,-2.7004,-2.8544,-3.0685,-3.2065,-3.3432,-3.5587,-3.6201,-3.6201,-3.6201,-3.6201,-3.6201,-3.6201,-3.6201,-3.6201,-3.6201,-3.6201,-3.6201,-1.4401,-1.4401,-1.4401,-1.4401,-1.4401,-1.4401,-1.4401,-1.4401,-1.4401,-1.4401,-1.4394,-1.4333,-1.4299,-1.4299,-1.4333,-1.4346,-1.4353,-1.4387,-1.4401,-1.4401,-1.4401,-1.4401,-1.4401,-1.4401,-1.4401,-1.4407,-1.4509,-1.4563,-1.4577,-1.4685,-1.476,-1.4787,-1.4794,-1.4808,-1.4835,-1.4841,-1.4896,-1.5004,-1.4903,-1.4841,-1.4841,-1.4835,-1.4828,-1.4794,-1.6234,-1.7952,-2.0084,-2.1656,-2.3315,-2.5359,-2.5337,-2.5192,-2.512,-2.4878,-2.4721,-2.4697,-2.4468,-2.4299,-2.4214,-2.3864,-2.3514,-2.3249,-2.3225,-2.3225,-2.3225,-2.3225,-2.32,-2.3152,-2.3116,-2.314,-2.3212,-2.3225,-2.3309,-2.3514,-2.3538,-2.3587,-2.3792,-2.384,-2.384,-2.384,-2.384,-2.384,-2.384,-2.384,-2.3976,-2.4209,-2.4786,-2.5231,-2.5192,-2.533,-2.5732,-2.6026,-2.6186,-2.6159,-2.6199,-2.6172,-2.6159,-2.6186,-2.6172,-2.7862,-3.0038,-3.1172,-3.2607,-3.5235,-3.6201,-3.6201,-3.6201,-3.6201,-3.6201,-3.6201,-3.6201,-3.6201,-3.6201,-3.6201,-3.6201,-1.4692,-1.4699,-1.4685,-1.4699,-1.4685,-1.4692,-1.4685,-1.4692,-1.4692,-1.4699,-1.4658,-1.4421,-1.4312,-1.4319,-1.4434,-1.4489,-1.4502,-1.4638,-1.4692,-1.4685,-1.4699,-1.4699,-1.4685,-1.4692,-1.4699,-1.4692,-1.4713,-1.4719,-1.4719,-1.4746,-1.4814,-1.4936,-1.495,-1.5011,-1.512,-1.5133,-1.5147,-1.516,-1.5147,-1.5147,-1.514,-1.514,-1.5079,-1.4957,-1.5135,-1.688,-2.0299,-2.0638,-2.2329,-2.5473,-2.5759,-2.5639,-2.5409,-2.5144,-2.5011,-2.4999,-2.4745,-2.4492,-2.4263,-2.419,-2.4033,-2.3804,-2.3744,-2.3744,-2.3744,-2.3756,-2.3659,-2.3478,-2.3418,-2.3514,-2.3731,-2.3744,-2.3731,-2.3756,-2.378,-2.3828,-2.384,-2.384,-2.384,-2.384,-2.3828,-2.384,-2.3816,-2.3792,-2.3719,-2.3672,-2.4339,-2.4777,-2.4611,-2.5006,-2.5451,-2.5571,-2.5611,-2.5625,-2.5638,-2.5598,-2.5678,-2.5651,-2.5611,-2.7239,-2.9685,-3.1157,-3.2109,-3.502,-3.6109,-3.6072,-3.6109,-3.6201,-3.6146,-3.6036,-3.6072,-3.6164,-3.6182,-3.6164,-3.6164,-1.4929,-1.474,-1.474,-1.474,-1.474,-1.474,-1.474,-1.474,-1.474,-1.474,-1.4726,-1.4611,-1.4557,-1.4563,-1.4624,-1.4645,-1.4652,-1.4713,-1.474,-1.474,-1.474,-1.474,-1.474,-1.474,-1.474,-1.4753,-1.4828,-1.4875,-1.4889,-1.4964,-1.5031,-1.5092,-1.5099,-1.5126,-1.5181,-1.5181,-1.5181,-1.5181,-1.5181,-1.5181,-1.5181,-1.5181,-1.5153,-1.5106,-1.5092,-1.6857,-2.0152,-2.0667,-2.2368,-2.5723,-2.5916,-2.5784,-2.5675,-2.5421,-2.5277,-2.5264,-2.5023,-2.4758,-2.4492,-2.4323,-2.419,-2.4082,-2.3937,-2.384,-2.384,-2.384,-2.3792,-2.3707,-2.3683,-2.3731,-2.3828,-2.384,-2.384,-2.384,-2.384,-2.384,-2.384,-2.384,-2.384,-2.384,-2.3707,-2.3623,-2.3587,-2.3466,-2.3345,-2.3344,-2.3907,-2.4214,-2.4036,-2.4501,-2.4927,-2.5211,-2.5264,-2.5344,-2.5464,-2.5518,-2.5518,-2.5518,-2.5518,-2.6794,-2.9559,-3.0489,-3.1597,-3.4938,-3.5468,-3.5614,-3.5467,-3.5504,-3.5504,-3.554,-3.554,-3.5559,-3.5797,-3.5852,-3.5925,-1.5053,-1.4862,-1.4862,-1.4862,-1.4862,-1.4862,-1.4862,-1.4862,-1.4862,-1.4862,-1.4862,-1.4862,-1.4862,-1.4855,-1.4821,-1.4801,-1.4808,-1.4841,-1.4862,-1.4862,-1.4862,-1.4862,-1.4862,-1.4862,-1.4862,-1.4882,-1.4977,-1.5031,-1.5038,-1.5126,-1.5181,-1.5181,-1.5181,-1.5181,-1.5181,-1.5181,-1.5181,-1.5181,-1.5181,-1.5181,-1.5181,-1.5181,-1.5181,-1.5181,-1.5181,-1.6979,-2.0528,-2.0875,-2.2423,-2.6162,-2.6146,-2.5977,-2.5832,-2.5651,-2.5518,-2.5433,-2.5264,-2.5035,-2.4758,-2.4564,-2.4395,-2.4238,-2.4045,-2.3925,-2.3864,-2.384,-2.384,-2.384,-2.384,-2.384,-2.384,-2.384,-2.384,-2.384,-2.384,-2.384,-2.384,-2.384,-2.384,-2.3828,-2.3707,-2.3562,-2.3526,-2.3369,-2.32,-2.3332,-2.3562,-2.382,-2.396,-2.4449,-2.4847,-2.5157,-2.5211,-2.5291,-2.5478,-2.5518,-2.5518,-2.5518,-2.5518,-2.6586,-2.9632,-3.0277,-3.1581,-3.4805,-3.5121,-3.532,-3.5449,-3.532,-3.5119,-3.5064,-3.5045,-3.5119,-3.5394,-3.5449,-3.5559,-1.5167,-1.5153,-1.516,-1.5147,-1.516,-1.5153,-1.5153,-1.5133,-1.5147,-1.5153,-1.514,-1.5147,-1.5153,-1.5133,-1.5011,-1.4964,-1.4977,-1.5086,-1.5133,-1.5133,-1.514,-1.5153,-1.5167,-1.516,-1.5153,-1.512,-1.514,-1.516,-1.516,-1.5181,-1.5181,-1.5181,-1.5181,-1.5181,-1.5181,-1.5181,-1.5181,-1.5181,-1.5181,-1.5181,-1.5181,-1.5181,-1.5181,-1.5181,-1.5181,-1.7032,-2.0538,-2.1093,-2.2841,-2.645,-2.658,-2.6363,-2.5916,-2.582,-2.5687,-2.547,-2.5421,-2.5301,-2.5071,-2.4987,-2.477,-2.4347,-2.4214,-2.4106,-2.3864,-2.384,-2.384,-2.384,-2.384,-2.384,-2.384,-2.384,-2.384,-2.384,-2.384,-2.384,-2.384,-2.384,-2.384,-2.384,-2.3792,-2.3731,-2.378,-2.3599,-2.3442,-2.3381,-2.3512,-2.3803,-2.4252,-2.47,-2.5006,-2.5325,-2.5491,-2.5504,-2.5531,-2.5518,-2.5518,-2.5518,-2.5837,-2.6475,-2.8942,-3.1259,-3.3058,-3.4688,-3.5338,-3.5687,-3.5632,-3.5485,-3.5284,-3.5137,-3.4954,-3.5027,-3.5027,-3.5045,-3.5155,-1.5181,-1.5181,-1.5181,-1.5181,-1.5181,-1.4805,-1.4805,-1.5181,-1.4805,-1.4805,-1.5181,-1.5181,-1.5181,-1.5181,-1.5126,-1.5106,-1.5113,-1.516,-1.5181,-1.5181,-1.5181,-1.5181,-1.5181,-1.5181,-1.5181,-1.5181,-1.5181,-1.5181,-1.5181,-1.5181,-1.5181,-1.5181,-1.5181,-1.5181,-1.5181,-1.5181,-1.5181,-1.5181,-1.5181,-1.5181,-1.5181,-1.5181,-1.5181,-1.5181,-1.5181,-1.704,-2.0927,-2.1111,-2.2923,-2.6701,-2.6737,-2.6544,-2.6339,-2.6013,-2.5711,-2.547,-2.5433,-2.5397,-2.5289,-2.5132,-2.489,-2.4528,-2.4323,-2.413,-2.3913,-2.384,-2.384,-2.384,-2.384,-2.384,-2.384,-2.384,-2.384,-2.384,-2.384,-2.384,-2.384,-2.384,-2.384,-2.3816,-2.3707,-2.3599,-2.3647,-2.3514,-2.3526,-2.3659,-2.3928,-2.4277,-2.4583,-2.4856,-2.5334,-2.5644,-2.5798,-2.5865,-2.6079,-2.5718,-2.5518,-2.5518,-2.5837,-2.6613,-2.8399,-2.9984,-3.1745,-3.3631,-3.4788,-3.5504,-3.5285,-3.532,-3.5155,-3.4899,-3.4752,-3.4807,-3.4642,-3.4715,-3.4825,-1.4805,-1.4811,-1.4805,-1.4805,-1.4623,-1.4429,-1.4429,-1.4617,-1.4429,-1.461,-1.4993,-1.5181,-1.5181,-1.5181,-1.5181,-1.5181,-1.5181,-1.5181,-1.5181,-1.5181,-1.5181,-1.5181,-1.5181,-1.5181,-1.5181,-1.5181,-1.5181,-1.5181,-1.5181,-1.5181,-1.5181,-1.5181,-1.5181,-1.5181,-1.5181,-1.5181,-1.5181,-1.5181,-1.5181,-1.5181,-1.5181,-1.5181,-1.5181,-1.5181,-1.5181,-1.704,-2.0927,-2.1111,-2.2964,-2.6265,-2.6858,-2.6689,-2.6484,-2.6073,-2.5711,-2.5482,-2.5433,-2.5433,-2.5421,-2.5264,-2.5059,-2.4782,-2.4516,-2.4251,-2.4009,-2.3888,-2.3852,-2.384,-2.384,-2.384,-2.384,-2.384,-2.384,-2.384,-2.384,-2.384,-2.384,-2.384,-2.3888,-2.3961,-2.3949,-2.3864,-2.3828,-2.3852,-2.3937,-2.4082,-2.4255,-2.4641,-2.4996,-2.5174,-2.5596,-2.6055,-2.6146,-2.6186,-2.6266,-2.6039,-2.5892,-2.5892,-2.5838,-2.6529,-2.753,-2.9049,-3.0569,-3.2389,-3.3716,-3.4576,-3.4939,-3.4974,-3.4917,-3.466,-3.4697,-3.4807,-3.4623,-3.444,-3.4532,-1.4052,-1.387,-1.4241,-1.4241,-1.387,-1.3682,-1.3682,-1.387,-1.4241,-1.4422,-1.461,-1.4993,-1.5181,-1.5181,-1.5181,-1.5181,-1.5181,-1.5181,-1.5181,-1.5181,-1.5181,-1.5181,-1.5181,-1.5181,-1.5181,-1.5181,-1.5181,-1.5181,-1.5181,-1.5181,-1.5181,-1.5181,-1.5181,-1.5181,-1.5181,-1.5181,-1.5181,-1.5181,-1.5181,-1.5181,-1.5181,-1.5181,-1.5181,-1.5181,-1.5181,-1.704,-2.0927,-2.1111,-2.2964,-2.647,-2.7015,-2.6761,-2.6303,-2.6001,-2.5723,-2.5494,-2.5433,-2.5433,-2.5433,-2.5421,-2.5277,-2.5011,-2.477,-2.4468,-2.4202,-2.3973,-2.384,-2.384,-2.384,-2.384,-2.384,-2.3876,-2.3876,-2.384,-2.384,-2.3852,-2.3864,-2.3864,-2.3949,-2.4202,-2.4371,-2.4589,-2.4613,-2.454,-2.4552,-2.4613,-2.4637,-2.4931,-2.5502,-2.5664,-2.5886,-2.6413,-2.6387,-2.6281,-2.6413,-2.6386,-2.6373,-2.6346,-2.6279,-2.667,-2.7537,-2.8901,-3.0389,-3.2074,-3.4023,-3.4895,-3.5486,-3.5504,-3.5284,-3.5082,-3.5027,-3.4899,-3.4715,-3.4532,-3.4275,-1.387,-1.3682,-1.387,-1.387,-1.3682,-1.3305,-1.3305,-1.3682,-1.387,-1.4052,-1.4422,-1.4993,-1.5181,-1.5181,-1.5181,-1.5181,-1.5181,-1.5181,-1.5181,-1.5181,-1.5181,-1.5181,-1.5181,-1.5181,-1.5181,-1.5181,-1.5181,-1.5181,-1.5181,-1.5181,-1.5181,-1.5181,-1.5181,-1.5181,-1.5181,-1.5181,-1.5181,-1.5181,-1.5181,-1.5181,-1.5181,-1.5181,-1.5181,-1.5181,-1.5181,-1.704,-2.0742,-2.1111,-2.2964,-2.6845,-2.7027,-2.6785,-2.6315,-2.6146,-2.5892,-2.5506,-2.5433,-2.5433,-2.5433,-2.5433,-2.5325,-2.5059,-2.4782,-2.4516,-2.4251,-2.4009,-2.3876,-2.3852,-2.384,-2.384,-2.3876,-2.4021,-2.4033,-2.3864,-2.384,-2.3949,-2.4106,-2.4275,-2.4407,-2.448,-2.4576,-2.4697,-2.4866,-2.4914,-2.4975,-2.512,-2.5156,-2.5276,-2.5595,-2.5803,-2.5754,-2.6287,-2.6279,-2.6254,-2.6294,-2.6386,-2.64,-2.64,-2.6386,-2.6386,-2.7319,-2.8232,-2.9774,-3.1912,-3.3751,-3.5235,-3.5703,-3.5852,-3.5632,-3.5504,-3.543,-3.521,-3.4899,-3.466,-3.4422,-1.311,-1.3116,-1.3305,-1.3311,-1.3116,-1.2739,-1.2739,-1.3116,-1.3305,-1.3682,-1.4241,-1.4617,-1.4993,-1.5181,-1.5181,-1.5181,-1.5181,-1.5181,-1.5181,-1.5181,-1.5181,-1.5181,-1.5181,-1.5181,-1.5181,-1.5181,-1.5181,-1.5181,-1.5181,-1.5181,-1.5181,-1.5181,-1.5181,-1.5181,-1.5181,-1.5181,-1.5181,-1.5181,-1.5181,-1.5181,-1.5181,-1.5181,-1.5181,-1.5181,-1.5181,-1.7227,-2.0742,-2.1111,-2.2964,-2.6106,-2.7027,-2.6773,-2.6278,-2.6194,-2.5989,-2.5566,-2.5433,-2.5433,-2.5433,-2.5433,-2.5373,-2.518,-2.4939,-2.4733,-2.4528,-2.4287,-2.4142,-2.413,-2.4142,-2.413,-2.4166,-2.4275,-2.4287,-2.4154,-2.4154,-2.4214,-2.4383,-2.4613,-2.4758,-2.4806,-2.4878,-2.5011,-2.5132,-2.5204,-2.5252,-2.5409,-2.5433,-2.575,-2.588,-2.6092,-2.6109,-2.6294,-2.641,-2.636,-2.6122,-2.6228,-2.6386,-2.64,-2.6386,-2.6386,-2.686,-2.7319,-2.8388,-3.1453,-3.3751,-3.5438,-3.6091,-3.6109,-3.5999,-3.5925,-3.5779,-3.5614,-3.532,-3.4935,-3.466,-1.2161,-1.2361,-1.2739,-1.255,-1.2361,-1.2172,-1.2361,-1.2361,-1.2739,-1.3305,-1.3682,-1.4241,-1.4617,-1.4993,-1.5181,-1.5181,-1.5181,-1.5181,-1.5181,-1.5181,-1.5181,-1.5181,-1.5181,-1.5181,-1.5181,-1.5181,-1.5181,-1.5181,-1.5181,-1.5181,-1.5181,-1.5181,-1.5181,-1.5181,-1.5181,-1.5181,-1.5181,-1.5181,-1.5181,-1.5181,-1.5181,-1.5181,-1.5181,-1.5181,-1.5368,-1.704,-2.0372,-2.1675,-2.3515,-2.647,-2.7027,-2.6785,-2.6339,-2.6218,-2.5989,-2.5494,-2.5433,-2.5433,-2.5433,-2.5433,-2.5397,-2.5325,-2.5132,-2.5023,-2.4878,-2.4661,-2.4516,-2.4528,-2.4552,-2.4576,-2.4564,-2.4637,-2.4649,-2.4673,-2.4625,-2.4637,-2.4661,-2.489,-2.5035,-2.5108,-2.5277,-2.5421,-2.5397,-2.5397,-2.5409,-2.5433,-2.5433,-2.575,-2.6054,-2.6217,-2.6287,-2.6337,-2.6379,-2.6265,-2.6029,-2.6228,-2.6386,-2.64,-2.64,-2.64,-2.686,-2.7462,-2.8232,-3.1146,-3.3751,-3.5288,-3.6201,-3.6201,-3.6201,-3.6109,-3.6017,-3.5962,-3.5705,-3.5284,-3.4899,-1.2167,-1.2172,-1.2361,-1.2361,-1.2172,-1.2172,-1.2172,-1.2172,-1.2739,-1.2928,-1.3305,-1.4052,-1.4422,-1.4617,-1.4993,-1.5181,-1.5181,-1.5181,-1.5181,-1.5181,-1.5181,-1.5181,-1.5181,-1.5181,-1.5181,-1.5181,-1.5181,-1.5181,-1.5181,-1.5181,-1.5181,-1.5181,-1.5181,-1.5181,-1.5181,-1.5181,-1.5181,-1.5181,-1.5181,-1.5181,-1.5181,-1.5181,-1.5181,-1.5181,-1.5181,-1.7227,-2.0927,-2.3892,-2.573,-2.6845,-2.7027,-2.6773,-2.6291,-2.6206,-2.5989,-2.5542,-2.5433,-2.5433,-2.5433,-2.5433,-2.5349,-2.5168,-2.512,-2.4963,-2.4745,-2.4685,-2.4625,-2.4625,-2.4625,-2.4649,-2.4673,-2.4818,-2.4987,-2.5168,-2.5035,-2.4939,-2.4975,-2.5156,-2.5337,-2.5349,-2.5397,-2.5433,-2.5433,-2.5433,-2.5433,-2.5433,-2.5433,-2.5604,-2.5908,-2.5871,-2.5986,-2.579,-2.5829,-2.586,-2.5948,-2.6294,-2.6386,-2.6386,-2.64,-2.64,-2.7319,-2.8544,-2.9619,-3.1606,-3.4221,-3.6052,-3.6219,-3.6219,-3.6219,-3.6329,-3.6311,-3.6274,-3.5962,-3.5577,-3.5174,-1.2172,-1.2172,-1.2172,-1.2172,-1.2172,-1.2172,-1.2172,-1.2172,-1.255,-1.2739,-1.2928,-1.3487,-1.4046,-1.4429,-1.4805,-1.4993,-1.5181,-1.5181,-1.5181,-1.5181,-1.5181,-1.5181,-1.5181,-1.5181,-1.5181,-1.5181,-1.5181,-1.5181,-1.5181,-1.5181,-1.5181,-1.5181,-1.5181,-1.5181,-1.5181,-1.5181,-1.5181,-1.5181,-1.5181,-1.5181,-1.5181,-1.5181,-1.5181,-1.5181,-1.5368,-1.704,-2.0927,-2.4064,-2.6095,-2.6664,-2.7003,-2.6785,-2.6291,-2.6218,-2.5977,-2.5494,-2.5433,-2.5433,-2.5433,-2.5433,-2.5313,-2.5132,-2.5132,-2.5059,-2.4914,-2.489,-2.4963,-2.4987,-2.4963,-2.4963,-2.4987,-2.512,-2.5264,-2.5361,-2.5301,-2.5204,-2.5204,-2.5337,-2.5421,-2.5433,-2.5433,-2.5433,-2.5433,-2.5433,-2.5433,-2.5433,-2.5433,-2.5604,-2.5763,-2.5568,-2.5591,-2.5521,-2.5564,-2.5963,-2.5974,-2.6122,-2.6386,-2.6386,-2.64,-2.64,-2.7305,-2.8997,-3.0377,-3.1912,-3.4521,-3.6256,-3.6347,-3.6457,-3.6641,-3.6714,-3.6659,-3.6622,-3.6421,-3.5834,-3.5449,-1.2172,-1.2172,-1.2172,-1.2172,-1.2172,-1.2172,-1.2172,-1.2172,-1.2172,-1.2361,-1.2739,-1.2928,-1.3487,-1.4234,-1.4429,-1.4617,-1.5181,-1.5181,-1.5181,-1.5181,-1.5181,-1.5181,-1.5181,-1.5181,-1.5181,-1.5181,-1.5181,-1.5181,-1.5181,-1.5181,-1.5181,-1.5181,-1.5181,-1.5181,-1.5181,-1.5181,-1.5181,-1.5181,-1.5181,-1.5181,-1.5181,-1.5181,-1.5181,-1.5181,-1.5737,-1.7414,-2.0557,-2.3137,-2.499,-2.7027,-2.7027,-2.6749,-2.6303,-2.6218,-2.5953,-2.5566,-2.5433,-2.5433,-2.5433,-2.5433,-2.5289,-2.5071,-2.5216,-2.5277,-2.5047,-2.5108,-2.5277,-2.5325,-2.5433,-2.5361,-2.5361,-2.5421,-2.5409,-2.5421,-2.5397,-2.5385,-2.5397,-2.5421,-2.5433,-2.5433,-2.5433,-2.5433,-2.5433,-2.5433,-2.5433,-2.5433,-2.5433,-2.5433,-2.5604,-2.5592,-2.5493,-2.5397,-2.5691,-2.6053,-2.5905,-2.5924,-2.6228,-2.64,-2.64,-2.6544,-2.7004,-2.8388,-3.0222,-3.2081,-3.4022,-3.5575,-3.6677,-3.6824,-3.7026,-3.7099,-3.7062,-3.7191,-3.7173,-3.6274,-3.5687,-1.2172,-1.2172,-1.2172,-1.2172,-1.2172,-1.2172,-1.2172,-1.2172,-1.2172,-1.2361,-1.2361,-1.2739,-1.3116,-1.3305,-1.4052,-1.4422,-1.461,-1.4993,-1.5181,-1.5181,-1.5181,-1.5181,-1.5181,-1.5181,-1.5181,-1.5181,-1.5181,-1.5181,-1.5181,-1.5181,-1.5181,-1.5181,-1.5181,-1.5181,-1.5181,-1.5181,-1.5181,-1.5181,-1.5181,-1.5181,-1.5181,-1.5181,-1.5181,-1.5368,-1.6486,-1.8524,-2.0927,-2.2954,-2.499,-2.647,-2.7003,-2.6773,-2.6339,-2.6218,-2.5965,-2.5578,-2.5433,-2.5433,-2.5433,-2.5409,-2.5228,-2.4842,-2.4987,-2.5023,-2.477,-2.4987,-2.5228,-2.5373,-2.5433,-2.5433,-2.5433,-2.5433,-2.5421,-2.5385,-2.5264,-2.5144,-2.5156,-2.5301,-2.5373,-2.5397,-2.5397,-2.5433,-2.5421,-2.5409,-2.5421,-2.5433,-2.5433,-2.5433,-2.5433,-2.5604,-2.5445,-2.5372,-2.559,-2.5929,-2.6,-2.5911,-2.6228,-2.64,-2.64,-2.6386,-2.6847,-2.7619,-2.9308,-3.1273,-3.3279,-3.4842,-3.6594,-3.7191,-3.7393,-3.7429,-3.7466,-3.7411,-3.7209,-3.6476,-3.5962,-1.2172,-1.2172,-1.2172,-1.2172,-1.2172,-1.2172,-1.2172,-1.2172,-1.2172,-1.2172,-1.2172,-1.255,-1.2739,-1.2928,-1.3487,-1.3864,-1.4422,-1.4993,-1.5181,-1.5181,-1.5181,-1.5181,-1.5181,-1.5181,-1.5181,-1.5181,-1.5181,-1.5181,-1.5181,-1.5181,-1.5181,-1.5181,-1.5181,-1.5181,-1.5181,-1.5181,-1.5181,-1.5181,-1.5181,-1.5181,-1.5181,-1.5181,-1.5181,-1.5181,-1.6299,-1.7965,-2.0927,-2.2034,-2.4258,-2.6106,-2.7015,-2.6785,-2.6339,-2.6206,-2.5953,-2.5554,-2.5433,-2.5433,-2.5433,-2.5409,-2.5204,-2.4685,-2.489,-2.4842,-2.477,-2.4878,-2.5156,-2.5361,-2.5433,-2.5433,-2.5433,-2.5433,-2.5397,-2.5252,-2.5132,-2.4999,-2.4902,-2.4975,-2.5059,-2.5059,-2.5023,-2.512,-2.518,-2.524,-2.5361,-2.5361,-2.5421,-2.5421,-2.5433,-2.5556,-2.5457,-2.5317,-2.569,-2.5929,-2.5961,-2.607,-2.6228,-2.64,-2.64,-2.64,-2.6544,-2.7476,-2.8388,-3.0686,-3.2989,-3.5033,-3.6507,-3.7104,-3.7741,-3.7943,-3.7943,-3.7668,-3.7264,-3.6696,-3.6292,-1.2172,-1.2172,-1.2172,-1.2172,-1.2172,-1.2172,-1.2172,-1.2172,-1.2172,-1.2172,-1.2172,-1.2172,-1.2361,-1.2739,-1.2928,-1.3487,-1.4241,-1.4993,-1.5181,-1.5181,-1.5181,-1.5181,-1.5181,-1.5181,-1.5181,-1.5181,-1.5181,-1.5181,-1.5181,-1.5181,-1.5181,-1.5181,-1.5181,-1.5181,-1.5181,-1.5181,-1.5181,-1.5181,-1.5181,-1.5181,-1.5181,-1.5181,-1.5181,-1.5181,-1.5368,-1.704,-1.9825,-2.1121,-2.278,-2.6288,-2.6809,-2.6701,-2.6375,-2.6194,-2.5989,-2.5494,-2.5433,-2.5433,-2.5433,-2.5409,-2.5204,-2.4697,-2.4818,-2.4818,-2.4685,-2.4782,-2.5047,-2.5264,-2.5385,-2.5433,-2.5433,-2.5433,-2.5313,-2.512,-2.5023,-2.4854,-2.4637,-2.4552,-2.454,-2.4685,-2.477,-2.4854,-2.4927,-2.4987,-2.5156,-2.5301,-2.5349,-2.5385,-2.5397,-2.5313,-2.5371,-2.5434,-2.5754,-2.6002,-2.6056,-2.6056,-2.6373,-2.6333,-2.6346,-2.6306,-2.6306,-2.6711,-2.7947,-3.0485,-3.2852,-3.4744,-3.6344,-3.7422,-3.7924,-3.8346,-3.8144,-3.7613,-3.7228,-3.6897,-3.6549,-1.2172,-1.2172,-1.2172,-1.2172,-1.2172,-1.2172,-1.2172,-1.2172,-1.2172,-1.2172,-1.2172,-1.2172,-1.2172,-1.2361,-1.2739,-1.3487,-1.4241,-1.4805,-1.5181,-1.5181,-1.5181,-1.5181,-1.5181,-1.5181,-1.5181,-1.5181,-1.5181,-1.5181,-1.5181,-1.5181,-1.5181,-1.5181,-1.5181,-1.5181,-1.5181,-1.5181,-1.5181,-1.5181,-1.5181,-1.5181,-1.5181,-1.5181,-1.5181,-1.5181,-1.5181,-1.6486,-1.8524,-2.0372,-2.2218,-2.4408,-2.5896,-2.6366,-2.6291,-2.6206,-2.5928,-2.5566,-2.5433,-2.5433,-2.5433,-2.5433,-2.5156,-2.4794,-2.4697,-2.4589,-2.4456,-2.4564,-2.4878,-2.5132,-2.5337,-2.5433,-2.5433,-2.5433,-2.5301,-2.5083,-2.4842,-2.4613,-2.4347,-2.419,-2.4202,-2.4444,-2.4552,-2.4613,-2.4661,-2.4733,-2.4866,-2.4999,-2.5083,-2.518,-2.524,-2.53,-2.5273,-2.5347,-2.559,-2.597,-2.6281,-2.6215,-2.6333,-2.6239,-2.6213,-2.6119,-2.6092,-2.6039,-2.7481,-2.9822,-3.2033,-3.3835,-3.5417,-3.7131,-3.7741,-3.7906,-3.7686,-3.7429,-3.7099,-3.6769,-3.6586,-1.2172,-1.2172,-1.2172,-1.2172,-1.2172,-1.2172,-1.2172,-1.2172,-1.2172,-1.2172,-1.2172,-1.2172,-1.2172,-1.2172,-1.2361,-1.311,-1.4059,-1.4805,-1.5181,-1.5181,-1.5181,-1.5181,-1.5181,-1.5181,-1.5181,-1.5181,-1.5181,-1.5181,-1.5181,-1.5181,-1.5181,-1.5181,-1.5181,-1.5181,-1.5181,-1.5181,-1.5181,-1.5181,-1.5181,-1.5181,-1.5181,-1.5181,-1.5181,-1.5181,-1.5368,-1.6299,-1.7965,-2.0001,-2.2034,-2.4021,-2.5681,-2.633,-2.6278,-2.6049,-2.5844,-2.5518,-2.5433,-2.5433,-2.5433,-2.5421,-2.518,-2.4721,-2.4625,-2.4504,-2.4383,-2.4492,-2.4794,-2.5144,-2.5313,-2.5433,-2.5433,-2.5433,-2.524,-2.4914,-2.4697,-2.4456,-2.413,-2.3937,-2.4045,-2.4226,-2.4202,-2.4251,-2.4407,-2.448,-2.4576,-2.4697,-2.4806,-2.4927,-2.5059,-2.5082,-2.5065,-2.5401,-2.5609,-2.5831,-2.6069,-2.6186,-2.6132,-2.6066,-2.6012,-2.5919,-2.5825,-2.5758,-2.6933,-2.8966,-3.0917,-3.2659,-3.4745,-3.6362,-3.6913,-3.7429,-3.7246,-3.7044,-3.6879,-3.6677,-3.6476,-1.2172,-1.2172,-1.2172,-1.2172,-1.2172,-1.2172,-1.2172,-1.2172,-1.2172,-1.2172,-1.2172,-1.2172,-1.2172,-1.2172,-1.2361,-1.2928,-1.3688,-1.4617,-1.4993,-1.5181,-1.5181,-1.5181,-1.5181,-1.5181,-1.5181,-1.5181,-1.5181,-1.5181,-1.5181,-1.5181,-1.5181,-1.5181,-1.5181,-1.5181,-1.5181,-1.5181,-1.5181,-1.5181,-1.5181,-1.5181,-1.5181,-1.5181,-1.5181,-1.5181,-1.5181,-1.5924,-1.7219,-1.9816,-2.1665,-2.343,-2.5071,-2.6447,-2.6218,-2.5916,-2.5663,-2.5482,-2.5446,-2.5433,-2.5433,-2.5433,-2.5204,-2.4685,-2.4637,-2.4456,-2.4323,-2.4432,-2.4818,-2.5252,-2.5421,-2.5433,-2.5433,-2.5433,-2.5168,-2.4806,-2.4613,-2.4456,-2.4057,-2.3852,-2.3852,-2.3925,-2.384,-2.3937,-2.413,-2.419,-2.4275,-2.4444,-2.4552,-2.4673,-2.4758,-2.4649,-2.4772,-2.5236,-2.5568,-2.5806,-2.5945,-2.5879,-2.5812,-2.5745,-2.5705,-2.5638,-2.5531,-2.5438,-2.6822,-2.7936,-2.929,-3.1004,-3.3415,-3.5392,-3.6075,-3.6533,-3.6691,-3.6696,-3.6567,-3.6457,-3.6329,-1.2172,-1.2172,-1.2172,-1.2172,-1.2172,-1.2172,-1.2172,-1.2172,-1.2172,-1.2172,-1.2172,-1.2172,-1.2172,-1.2361,-1.255,-1.3116,-1.3682,-1.4241,-1.4805,-1.4993,-1.5181,-1.5181,-1.5181,-1.5181,-1.5181,-1.5181,-1.5181,-1.5181,-1.5181,-1.5181,-1.5181,-1.5181,-1.5181,-1.5181,-1.5181,-1.5181,-1.5181,-1.5181,-1.5181,-1.5181,-1.5181,-1.5181,-1.5181,-1.5181,-1.5181,-1.5368,-1.6299,-1.8896,-2.1111,-2.181,-2.4543,-2.6102,-2.6146,-2.5735,-2.553,-2.5446,-2.5433,-2.5433,-2.5433,-2.5433,-2.5204,-2.4758,-2.4625,-2.4359,-2.4226,-2.4359,-2.4721,-2.5047,-2.5277,-2.5421,-2.5433,-2.5433,-2.5144,-2.4866,-2.4637,-2.4371,-2.4009,-2.384,-2.384,-2.384,-2.384,-2.384,-2.3937,-2.3949,-2.3973,-2.4154,-2.4299,-2.4395,-2.4383,-2.4377,-2.4392,-2.4831,-2.5414,-2.5657,-2.5638,-2.5571,-2.5478,-2.5411,-2.5358,-2.5331,-2.5251,-2.5184,-2.5358,-2.6572,-2.7929,-2.9579,-3.2097,-3.3805,-3.4942,-3.5531,-3.5743,-3.5935,-3.6274,-3.6201,-3.6201,-1.2172,-1.2172,-1.2172,-1.2172,-1.2172,-1.2172,-1.2172,-1.2172,-1.2172,-1.2172,-1.2172,-1.2172,-1.2172,-1.2361,-1.2739,-1.2928,-1.3305,-1.4052,-1.4429,-1.4805,-1.4993,-1.5181,-1.5181,-1.5181,-1.5181,-1.5181,-1.5181,-1.5181,-1.5181,-1.5181,-1.5181,-1.5181,-1.5181,-1.5181,-1.5181,-1.5181,-1.5181,-1.5181,-1.5181,-1.5181,-1.5181,-1.5181,-1.5181,-1.5181,-1.5181,-1.5181,-1.5924,-1.7592,-2.0001,-2.1036,-2.3432,-2.516,-2.5747,-2.5759,-2.5446,-2.5446,-2.5433,-2.5433,-2.5433,-2.5433,-2.5132,-2.4782,-2.4601,-2.4456,-2.4214,-2.4263,-2.4613,-2.5023,-2.5144,-2.5264,-2.5397,-2.5433,-2.5228,-2.4975,-2.4721,-2.4432,-2.413,-2.3937,-2.384,-2.384,-2.384,-2.384,-2.3828,-2.3828,-2.384,-2.3925,-2.3973,-2.3985,-2.4012,-2.4074,-2.4252,-2.4402,-2.5022,-2.5518,-2.5371,-2.5264,-2.5117,-2.5037,-2.4957,-2.493,-2.493,-2.4957,-2.5197,-2.5464,-2.6487,-2.8447,-3.0776,-3.2146,-3.3178,-3.4022,-3.4839,-3.5288,-3.5903,-3.6201,-3.6201,-1.2172,-1.2172,-1.2172,-1.2172,-1.2172,-1.2172,-1.2172,-1.2172,-1.2172,-1.2172,-1.2172,-1.2172,-1.2172,-1.2172,-1.255,-1.2739,-1.2928,-1.3676,-1.4241,-1.4429,-1.4805,-1.4993,-1.5181,-1.5181,-1.5181,-1.5181,-1.5181,-1.5181,-1.5181,-1.5181,-1.5181,-1.5181,-1.5181,-1.5181,-1.5181,-1.5181,-1.5181,-1.5181,-1.5181,-1.5181,-1.5181,-1.5181,-1.5181,-1.5181,-1.5181,-1.5181,-1.5556,-1.7227,-1.9074,-2.0033,-2.2332,-2.4052,-2.4974,-2.5342,-2.5287,-2.5433,-2.5433,-2.5433,-2.5433,-2.5397,-2.5132,-2.4794,-2.4456,-2.4275,-2.4166,-2.419,-2.4335,-2.4758,-2.5011,-2.5144,-2.5289,-2.5373,-2.5277,-2.5035,-2.4782,-2.4528,-2.4275,-2.4033,-2.3864,-2.384,-2.384,-2.384,-2.3816,-2.3756,-2.3744,-2.3744,-2.3695,-2.3611,-2.3707,-2.3761,-2.3957,-2.4176,-2.4479,-2.5006,-2.5064,-2.493,-2.4796,-2.4743,-2.4663,-2.4649,-2.473,-2.493,-2.5184,-2.5464,-2.5772,-2.6804,-2.8783,-3.0053,-3.13,-3.2994,-3.4521,-3.4971,-3.5438,-3.5903,-3.6201,-1.2172,-1.2172,-1.2172,-1.2172,-1.2172,-1.2172,-1.2172,-1.2172,-1.2172,-1.2172,-1.2172,-1.2172,-1.2172,-1.2172,-1.2361,-1.255,-1.2928,-1.2928,-1.3487,-1.4052,-1.4422,-1.4805,-1.4993,-1.5181,-1.5181,-1.5181,-1.5181,-1.5181,-1.5181,-1.5181,-1.5181,-1.5181,-1.5181,-1.5181,-1.5181,-1.5181,-1.5181,-1.5181,-1.5181,-1.5181,-1.5181,-1.5181,-1.5181,-1.5181,-1.5181,-1.5181,-1.5368,-1.6853,-1.8079,-1.8492,-2.099,-2.308,-2.36,-2.4557,-2.4932,-2.5263,-2.5433,-2.5433,-2.5433,-2.5397,-2.5144,-2.4685,-2.4251,-2.3997,-2.3961,-2.4118,-2.4263,-2.4383,-2.4709,-2.4975,-2.5132,-2.5228,-2.5228,-2.5144,-2.4902,-2.4637,-2.4359,-2.4082,-2.3925,-2.3864,-2.384,-2.3816,-2.3731,-2.3647,-2.3611,-2.3611,-2.3357,-2.3273,-2.3247,-2.3335,-2.3516,-2.3694,-2.3954,-2.4311,-2.4581,-2.4663,-2.469,-2.469,-2.4649,-2.4636,-2.4649,-2.4903,-2.5264,-2.5491,-2.5798,-2.6222,-2.6594,-2.8189,-3.0083,-3.2538,-3.3902,-3.3751,-3.4822,-3.5736,-3.6052,-1.2172,-1.2172,-1.2172,-1.2172,-1.2172,-1.2172,-1.2172,-1.2172,-1.2172,-1.2172,-1.2172,-1.2172,-1.2172,-1.2172,-1.2172,-1.2361,-1.255,-1.2739,-1.3116,-1.3676,-1.4052,-1.4429,-1.4805,-1.4993,-1.5181,-1.5181,-1.5181,-1.5181,-1.5181,-1.5181,-1.5181,-1.5181,-1.5181,-1.5181,-1.5181,-1.5181,-1.5181,-1.5181,-1.5181,-1.5181,-1.5181,-1.5181,-1.5181,-1.5181,-1.5181,-1.5181,-1.5368,-1.5924,-1.6747,-1.7884,-1.9147,-2.074,-2.2462,-2.3292,-2.4235,-2.5092,-2.5263,-2.5433,-2.5421,-2.5397,-2.518,-2.4673,-2.4178,-2.384,-2.384,-2.3949,-2.4094,-2.4251,-2.4432,-2.4673,-2.5035,-2.5132,-2.5156,-2.518,-2.5011,-2.4697,-2.4432,-2.413,-2.3949,-2.3876,-2.3816,-2.3768,-2.3647,-2.3514,-2.349,-2.3454,-2.3176,-2.2923,-2.2919,-2.2949,-2.3141,-2.353,-2.3825,-2.4219,-2.4488,-2.4636,-2.4636,-2.4636,-2.4636,-2.4663,-2.473,-2.513,-2.5451,-2.5651,-2.5865,-2.6316,-2.6662,-2.6991,-2.8544,-3.0839,-3.1606,-3.1759,-3.3297,-3.5438,-3.5903,-1.2172,-1.2172,-1.2172,-1.2172,-1.2172,-1.2172,-1.2172,-1.2172,-1.2172,-1.2172,-1.2172,-1.2172,-1.2172,-1.2172,-1.2172,-1.2172,-1.2361,-1.255,-1.2739,-1.3116,-1.3676,-1.4241,-1.4617,-1.4805,-1.5181,-1.5181,-1.5181,-1.5181,-1.5181,-1.5181,-1.5181,-1.5181,-1.5181,-1.5181,-1.5181,-1.5181,-1.5181,-1.5181,-1.5181,-1.5181,-1.5181,-1.5181,-1.5181,-1.5181,-1.5181,-1.5181,-1.5181,-1.5542,-1.5803,-1.6559,-1.7656,-1.8919,-2.0666,-2.2231,-2.3193,-2.4212,-2.5092,-2.5433,-2.5421,-2.5216,-2.5035,-2.4625,-2.4142,-2.39,-2.384,-2.384,-2.3961,-2.4069,-2.419,-2.4407,-2.483,-2.4842,-2.4927,-2.4927,-2.4758,-2.4492,-2.4371,-2.4142,-2.3985,-2.3864,-2.378,-2.3635,-2.3466,-2.3297,-2.3116,-2.3043,-2.2814,-2.2621,-2.27,-2.2741,-2.2967,-2.3216,-2.3625,-2.4044,-2.4488,-2.4488,-2.4636,-2.4636,-2.4649,-2.473,-2.489,-2.5277,-2.5585,-2.5785,-2.6012,-2.6293,-2.6544,-2.6702,-2.7619,-2.8856,-2.9774,-3.0993,-3.269,-3.4822,-3.5438,-1.2172,-1.2172,-1.2172,-1.2172,-1.2172,-1.2172,-1.2172,-1.2172,-1.2172,-1.2172,-1.2172,-1.2172,-1.2172,-1.2172,-1.2172,-1.2172,-1.2172,-1.2361,-1.2361,-1.2928,-1.3305,-1.3864,-1.4429,-1.4805,-1.5181,-1.5181,-1.5181,-1.5181,-1.5181,-1.5181,-1.5181,-1.5181,-1.5181,-1.5181,-1.5181,-1.5181,-1.5181,-1.5181,-1.5181,-1.5181,-1.5181,-1.5181,-1.5181,-1.5181,-1.5181,-1.5181,-1.5181,-1.5147,-1.5389,-1.5364,-1.6537,-1.7421,-1.804,-2.0955,-2.2298,-2.2998,-2.4566,-2.5263,-2.5421,-2.4951,-2.4709,-2.4589,-2.4154,-2.3876,-2.384,-2.3852,-2.3852,-2.3961,-2.4069,-2.419,-2.4359,-2.448,-2.4625,-2.4697,-2.454,-2.4407,-2.4299,-2.419,-2.4045,-2.3792,-2.3599,-2.343,-2.3249,-2.3056,-2.279,-2.2609,-2.2416,-2.2331,-2.2331,-2.2457,-2.2719,-2.3005,-2.3451,-2.3896,-2.4193,-2.4488,-2.4636,-2.4636,-2.4676,-2.4756,-2.4957,-2.5291,-2.5585,-2.5865,-2.6119,-2.636,-2.64,-2.6386,-2.7162,-2.8076,-2.9774,-3.1146,-3.2842,-3.407,-3.4822,-1.2172,-1.2172,-1.2172,-1.2172,-1.2172,-1.2172,-1.2172,-1.2172,-1.2172,-1.2172,-1.2172,-1.2172,-1.2172,-1.2172,-1.2172,-1.2172,-1.2172,-1.2172,-1.2361,-1.255,-1.2928,-1.3493,-1.3864,-1.4429,-1.4798,-1.5181,-1.5181,-1.5181,-1.5181,-1.5181,-1.5181,-1.5181,-1.5181,-1.5181,-1.5181,-1.5181,-1.5181,-1.5181,-1.5181,-1.5181,-1.5181,-1.5181,-1.5181,-1.5181,-1.5181,-1.5181,-1.5174,-1.5113,-1.495,-1.4753,-1.5753,-1.6099,-1.6961,-1.97,-2.1262,-2.2481,-2.4224,-2.5263,-2.5301,-2.4975,-2.4661,-2.4468,-2.4178,-2.3864,-2.384,-2.384,-2.384,-2.3852,-2.3937,-2.4069,-2.4238,-2.4299,-2.442,-2.4625,-2.4552,-2.4432,-2.4311,-2.4226,-2.4069,-2.3719,-2.3454,-2.3164,-2.2947,-2.2802,-2.2561,-2.2464,-2.2331,-2.2295,-2.2295,-2.2433,-2.2558,-2.2856,-2.3302,-2.36,-2.4044,-2.4341,-2.4636,-2.4636,-2.4676,-2.4756,-2.501,-2.5371,-2.5651,-2.5945,-2.6186,-2.64,-2.64,-2.6386,-2.6544,-2.7462,-2.8856,-2.9774,-3.0685,-3.2386,-3.407,-1.2172,-1.2172,-1.2172,-1.2172,-1.2172,-1.2172,-1.2172,-1.2172,-1.2172,-1.2172,-1.2172,-1.2172,-1.2172,-1.2172,-1.2172,-1.2172,-1.2172,-1.2172,-1.2172,-1.2361,-1.2739,-1.3116,-1.3493,-1.4052,-1.4617,-1.4993,-1.5181,-1.5181,-1.5181,-1.5181,-1.5181,-1.5181,-1.5181,-1.5181,-1.5181,-1.5181,-1.5181,-1.5181,-1.5181,-1.5181,-1.5181,-1.5181,-1.5181,-1.5181,-1.5181,-1.5181,-1.514,-1.5045,-1.4896,-1.474,-1.4771,-1.4977,-1.6448,-1.8479,-2.0221,-2.1953,-2.4041,-2.5092,-2.5313,-2.4927,-2.4661,-2.4601,-2.413,-2.3876,-2.384,-2.384,-2.384,-2.384,-2.384,-2.3925,-2.4069,-2.4118,-2.419,-2.4395,-2.4347,-2.4214,-2.4178,-2.4069,-2.3961,-2.3599,-2.3285,-2.2971,-2.2657,-2.25,-2.2331,-2.2295,-2.2271,-2.2271,-2.2271,-2.2408,-2.2408,-2.2856,-2.3154,-2.36,-2.4044,-2.4341,-2.4488,-2.4636,-2.473,-2.485,-2.5184,-2.5558,-2.5798,-2.6026,-2.6239,-2.64,-2.64,-2.6386,-2.6544,-2.6702,-2.7319,-2.8246,-2.87,-3.0392,-3.2386,-1.2172,-1.2172,-1.2172,-1.2172,-1.2172,-1.2172,-1.2172,-1.2172,-1.2172,-1.2172,-1.2172,-1.2172,-1.2172,-1.2172,-1.2172,-1.2172,-1.2172,-1.2172,-1.2172,-1.2361,-1.255,-1.2928,-1.3305,-1.3864,-1.4241,-1.461,-1.4798,-1.4993,-1.5181,-1.5181,-1.5181,-1.5181,-1.5181,-1.5181,-1.5181,-1.5181,-1.5181,-1.5181,-1.5181,-1.5181,-1.5181,-1.5181,-1.5181,-1.5181,-1.5181,-1.5181,-1.5133,-1.5018,-1.4875,-1.4733,-1.4584,-1.4441,-1.5572,-1.7789,-1.9177,-2.1088,-2.3697,-2.4921,-2.5361,-2.4927,-2.4673,-2.4564,-2.413,-2.3925,-2.384,-2.384,-2.384,-2.384,-2.384,-2.384,-2.3876,-2.3888,-2.3913,-2.3961,-2.3949,-2.3913,-2.3913,-2.3828,-2.3731,-2.3478,-2.3176,-2.285,-2.2488,-2.2271,-2.2271,-2.2271,-2.2271,-2.2408,-2.2408,-2.2259,-2.2558,-2.2856,-2.3154,-2.36,-2.3896,-2.4341,-2.4581,-2.4756,-2.4917,-2.5077,-2.5411,-2.5718,-2.5945,-2.6146,-2.6306,-2.64,-2.64,-2.64,-2.6386,-2.6702,-2.686,-2.7162,-2.7933,-2.8856,-3.0546,-1.2172,-1.2172,-1.2172,-1.2172,-1.2172,-1.2172,-1.2172,-1.2172,-1.2172,-1.2172,-1.2172,-1.2172,-1.2172,-1.2172,-1.2172,-1.2172,-1.2172,-1.2172,-1.2172,-1.2361,-1.2361,-1.255,-1.2928,-1.3305,-1.3864,-1.4234,-1.461,-1.4798,-1.5181,-1.5181,-1.5181,-1.5181,-1.5181,-1.5181,-1.5181,-1.5181,-1.5181,-1.5181,-1.5181,-1.5181,-1.5181,-1.5181,-1.5181,-1.5181,-1.5181,-1.5181,-1.5126,-1.4936,-1.4794,-1.4719,-1.4489,-1.4333,-1.4489,-1.6745,-1.8479,-2.178,-2.4041,-2.5433,-2.5349,-2.4939,-2.4637,-2.454,-2.4154,-2.3913,-2.384,-2.384,-2.384,-2.384,-2.384,-2.384,-2.384,-2.384,-2.384,-2.384,-2.384,-2.384,-2.384,-2.3816,-2.3707,-2.3454,-2.314,-2.2766,-2.2392,-2.2271,-2.2271,-2.2271,-2.2408,-2.2408,-2.2558,-2.2408,-2.2558,-2.3005,-2.3302,-2.36,-2.3896,-2.4341,-2.4634,-2.4917,-2.5077,-2.5291,-2.5651,-2.5919,-2.6106,-2.6239,-2.636,-2.64,-2.64,-2.64,-2.64,-2.64,-2.6544,-2.6702,-2.7162,-2.7933,-2.9012,-1.2172,-1.2172,-1.2172,-1.2172,-1.2172,-1.2172,-1.2172,-1.2172,-1.2172,-1.2172,-1.2172,-1.2172,-1.2172,-1.2172,-1.2172,-1.2172,-1.2172,-1.2172,-1.2172,-1.2172,-1.2172,-1.2361,-1.255,-1.2928,-1.3487,-1.3864,-1.4429,-1.4798,-1.4993,-1.5181,-1.5181,-1.5181,-1.5181,-1.5181,-1.5181,-1.5181,-1.5181,-1.5181,-1.5181,-1.5181,-1.5181,-1.5181,-1.5181,-1.5181,-1.5181,-1.5153,-1.5086,-1.4848,-1.4733,-1.4645,-1.4401,-1.4306,-1.4822,-1.6745,-1.9351,-2.2309,-2.4224,-2.5263,-2.5373,-2.5071,-2.4794,-2.4552,-2.4238,-2.4009,-2.3876,-2.384,-2.384,-2.384,-2.384,-2.384,-2.384,-2.384,-2.384,-2.384,-2.384,-2.384,-2.384,-2.384,-2.3659,-2.343,-2.3092,-2.2718,-2.2464,-2.2343,-2.2271,-2.2271,-2.2408,-2.2558,-2.2707,-2.2707,-2.2856,-2.3154,-2.3451,-2.3748,-2.4044,-2.438,-2.4688,-2.501,-2.5224,-2.5478,-2.5852,-2.6092,-2.6239,-2.6319,-2.6373,-2.64,-2.64,-2.64,-2.64,-2.64,-2.64,-2.6544,-2.6702,-2.7004,-2.8232,-1.2172,-1.2172,-1.2172,-1.2172,-1.2172,-1.2172,-1.2172,-1.2172,-1.2172,-1.2172,-1.2172,-1.2172,-1.2172,-1.2172,-1.2172,-1.2172,-1.2172,-1.2172,-1.2172,-1.2172,-1.2172,-1.2361,-1.2361,-1.255,-1.3116,-1.3682,-1.4052,-1.4617,-1.4993,-1.5181,-1.5181,-1.5181,-1.5181,-1.5181,-1.5181,-1.5181,-1.5181,-1.5181,-1.5181,-1.5181,-1.5181,-1.5181,-1.5181,-1.5174,-1.5153,-1.5106,-1.497,-1.4814,-1.4658,-1.4516,-1.4394,-1.4306,-1.5344,-1.7263,-1.9873,-2.1964,-2.3697,-2.4921,-2.5203,-2.5144,-2.489,-2.4637,-2.4383,-2.4094,-2.3925,-2.3852,-2.384,-2.384,-2.384,-2.384,-2.384,-2.384,-2.384,-2.384,-2.384,-2.384,-2.384,-2.3816,-2.3695,-2.3478,-2.3225,-2.285,-2.2573,-2.2464,-2.2343,-2.2307,-2.2408,-2.2558,-2.2707,-2.2856,-2.3154,-2.329,-2.3587,-2.3896,-2.4219,-2.4581,-2.489,-2.509,-2.5358,-2.5665,-2.6039,-2.6239,-2.6373,-2.64,-2.64,-2.64,-2.64,-2.64,-2.64,-2.64,-2.64,-2.64,-2.6544,-2.6702,-2.7619,-1.2172,-1.2172,-1.2172,-1.2172,-1.2172,-1.2172,-1.2172,-1.2172,-1.2172,-1.2172,-1.2172,-1.2172,-1.2172,-1.2172,-1.2172,-1.2172,-1.2172,-1.2172,-1.2172,-1.2172,-1.2172,-1.2172,-1.2172,-1.2361,-1.2739,-1.3116,-1.3682,-1.4429,-1.4993,-1.5181,-1.5181,-1.5181,-1.5181,-1.5181,-1.5181,-1.5181,-1.5181,-1.5181,-1.516,-1.516,-1.516,-1.5174,-1.5181,-1.514,-1.5099,-1.5004,-1.4869,-1.4706,-1.4597,-1.4489,-1.4373,-1.4312,-1.4476,-1.6569,-1.8654,-2.0395,-2.2309,-2.3869,-2.4861,-2.5047,-2.4963,-2.4673,-2.4395,-2.413,-2.3949,-2.3876,-2.384,-2.384,-2.384,-2.384,-2.384,-2.384,-2.384,-2.384,-2.384,-2.384,-2.384,-2.378,-2.3719,-2.355,-2.3345,-2.308,-2.2778,-2.2585,-2.2452,-2.2367,-2.2295,-2.2408,-2.2856,-2.3005,-2.3451,-2.3587,-2.3883,-2.4044,-2.4407,-2.4688,-2.5024,-2.5317,-2.5611,-2.5919,-2.6226,-2.6306,-2.64,-2.64,-2.64,-2.64,-2.64,-2.64,-2.64,-2.64,-2.64,-2.64,-2.64,-2.6544,-2.7476,-1.2172,-1.2172,-1.2172,-1.2172,-1.2172,-1.2172,-1.2172,-1.2172,-1.2172,-1.2172,-1.2172,-1.2172,-1.2172,-1.2172,-1.2172,-1.2172,-1.2172,-1.2172,-1.2172,-1.2172,-1.2172,-1.2172,-1.2172,-1.2172,-1.255,-1.2928,-1.3676,-1.4429,-1.4805,-1.5181,-1.5181,-1.5181,-1.5181,-1.5174,-1.5174,-1.5181,-1.5167,-1.5181,-1.512,-1.5092,-1.5086,-1.5086,-1.5086,-1.5052,-1.4964,-1.4869,-1.4733,-1.4577,-1.4509,-1.4434,-1.4333,-1.4306,-1.4646,-1.6225,-1.7438,-1.9177,-2.0915,-2.2998,-2.3995,-2.4755,-2.4843,-2.4709,-2.4528,-2.4311,-2.3913,-2.384,-2.384,-2.384,-2.384,-2.384,-2.384,-2.384,-2.384,-2.384,-2.384,-2.384,-2.384,-2.3816,-2.378,-2.3719,-2.3526,-2.3333,-2.3068,-2.2911,-2.2754,-2.2536,-2.2452,-2.2505,-2.293,-2.3254,-2.3676,-2.3961,-2.4149,-2.435,-2.4741,-2.5037,-2.5211,-2.5518,-2.5852,-2.6052,-2.6266,-2.6333,-2.64,-2.64,-2.64,-2.64,-2.64,-2.64,-2.64,-2.64,-2.64,-2.64,-2.64,-2.64,-2.7004,-1.2172,-1.2172,-1.2172,-1.2172,-1.2172,-1.2172,-1.2172,-1.2172,-1.2172,-1.2172,-1.2172,-1.2172,-1.2172,-1.2172,-1.2172,-1.2172,-1.2172,-1.2172,-1.2172,-1.2172,-1.2172,-1.2172,-1.2172,-1.2172,-1.255,-1.3116,-1.3682,-1.4052,-1.4241,-1.4805,-1.5181,-1.5181,-1.5167,-1.5153,-1.5153,-1.5126,-1.5086,-1.5045,-1.4991,-1.495,-1.4943,-1.4943,-1.4943,-1.4889,-1.4794,-1.4658,-1.457,-1.4502,-1.4441,-1.438,-1.4326,-1.4306,-1.4476,-1.5521,-1.6569,-1.7964,-2.0221,-2.1953,-2.2987,-2.4531,-2.4734,-2.4782,-2.4685,-2.442,-2.4009,-2.384,-2.384,-2.384,-2.384,-2.384,-2.384,-2.384,-2.384,-2.384,-2.384,-2.384,-2.384,-2.384,-2.3828,-2.3816,-2.3683,-2.3514,-2.3357,-2.3188,-2.3019,-2.2802,-2.2797,-2.2839,-2.2941,-2.3468,-2.3807,-2.4233,-2.4547,-2.475,-2.5064,-2.5291,-2.5478,-2.5692,-2.5999,-2.6159,-2.6293,-2.636,-2.64,-2.64,-2.64,-2.64,-2.64,-2.64,-2.64,-2.64,-2.64,-2.64,-2.64,-2.64,-2.64,-1.2172,-1.2172,-1.2172,-1.2172,-1.2172,-1.2172,-1.2172,-1.2172,-1.2172,-1.2172,-1.2172,-1.2172,-1.2172,-1.2172,-1.2172,-1.2172,-1.2172,-1.2172,-1.2172,-1.2172,-1.2172,-1.2172,-1.2172,-1.2172,-1.255,-1.2928,-1.3493,-1.3682,-1.4046,-1.461,-1.4986,-1.4597,-1.5038,-1.5004,-1.4991,-1.4943,-1.4869,-1.4855,-1.4855,-1.4808,-1.4801,-1.4794,-1.478,-1.4719,-1.4638,-1.4638,-1.4631,-1.4563,-1.4516,-1.4448,-1.4373,-1.4333,-1.4489,-1.4836,-1.5697,-1.7096,-1.9351,-2.0915,-2.2298,-2.4224,-2.4794,-2.4721,-2.4576,-2.4395,-2.4069,-2.384,-2.384,-2.384,-2.384,-2.384,-2.384,-2.384,-2.384,-2.384,-2.384,-2.384,-2.384,-2.384,-2.384,-2.384,-2.3792,-2.3635,-2.3478,-2.3357,-2.3273,-2.3092,-2.2971,-2.3016,-2.3096,-2.3591,-2.4074,-2.4353,-2.4796,-2.502,-2.5157,-2.5571,-2.5812,-2.5985,-2.6119,-2.6253,-2.6346,-2.6373,-2.64,-2.64,-2.64,-2.64,-2.64,-2.64,-2.64,-2.64,-2.64,-2.64,-2.64,-2.64,-2.64]}]]